[[[{"header":{"parameterUnit":"kt","parameterCategory":2,"dx":1,"dy":1,"la1":29.587661999999998,"la2":31.0,"lo1":-88.76705300000003,"lo2":-86.6583820000003,"nx":115,"ny":88,"refTime":"2022-09-25T06:00:00:Z","depth":0,"parameterNumber":1,"parameterNumberName":"U-component_of_WINDS"},"data":[16.441,16.441,16.441,16.441,16.441,16.441,16.441,16.441,16.441,16.441,16.441,16.441,16.441,16.441,16.441,16.441,16.441,16.441,16.441,16.441,16.441,16.441,16.441,16.441,16.441,16.441,16.441,16.441,16.441,16.441,16.441,16.441,16.441,16.441,16.441,16.441,16.441,16.441,16.441,16.441,16.441,16.441,16.441,16.441,16.441,16.441,16.441,16.441,16.441,16.441,16.441,16.441,16.441,16.441,16.441,16.441,16.441,16.441,16.441,16.441,16.441,16.441,16.441,16.441,16.441,16.441,16.441,16.441,16.441,16.441,16.441,16.441,16.4462,16.4915,16.5376,16.6135,16.6933,16.7352,16.7621,16.7694,16.7742,16.7742,16.7742,16.7742,16.7742,16.7742,16.7742,16.7742,16.7742,16.7742,16.7742,16.7742,16.7742,16.7742,16.7742,16.7742,16.7742,16.7742,16.7273,16.5975,16.4433,16.2556,16.1149,16.0166,15.963,15.9094,15.896,15.896,15.896,15.896,15.896,15.896,15.896,15.896,15.896,16.441,16.441,16.441,16.441,16.441,16.441,16.441,16.441,16.441,16.441,16.441,16.441,16.441,16.441,16.441,16.441,16.441,16.441,16.441,16.441,16.441,16.441,16.441,16.441,16.441,16.441,16.441,16.441,16.441,16.441,16.441,16.441,16.441,16.441,16.441,16.441,16.441,16.441,16.441,16.441,16.441,16.441,16.441,16.441,16.441,16.441,16.441,16.441,16.441,16.441,16.441,16.441,16.441,16.441,16.441,16.441,16.441,16.441,16.441,16.441,16.441,16.441,16.441,16.441,16.441,16.441,16.441,16.441,16.441,16.441,16.441,16.441,16.441,16.4657,16.5197,16.5807,16.6635,16.7401,16.7572,16.7718,16.7742,16.7742,16.7742,16.7742,16.7742,16.7742,16.7742,16.7742,16.7742,16.7742,16.7742,16.7742,16.7742,16.7742,16.7742,16.7742,16.7742,16.7742,16.7675,16.6713,16.5506,16.3629,16.2087,16.0881,15.9831,15.9161,15.896,15.896,15.896,15.896,15.896,15.896,15.896,15.896,15.896,16.441,16.441,16.441,16.441,16.441,16.441,16.441,16.441,16.441,16.441,16.441,16.441,16.441,16.441,16.441,16.441,16.441,16.441,16.441,16.441,16.441,16.441,16.441,16.441,16.441,16.441,16.441,16.441,16.441,16.441,16.441,16.441,16.441,16.441,16.441,16.441,16.441,16.441,16.441,16.441,16.441,16.441,16.441,16.441,16.441,16.441,16.441,16.441,16.441,16.441,16.441,16.441,16.441,16.441,16.441,16.441,16.441,16.441,16.441,16.441,16.441,16.441,16.441,16.441,16.441,16.441,16.441,16.441,16.441,16.441,16.441,16.441,16.441,16.4462,16.4966,16.5579,16.6361,16.7155,16.7547,16.7694,16.7742,16.7742,16.7742,16.7742,16.7742,16.7742,16.7742,16.7742,16.7742,16.7742,16.7742,16.7742,16.7742,16.7742,16.7742,16.7742,16.7742,16.7742,16.7742,16.7206,16.6646,16.4702,16.2825,16.1283,16.0099,15.9362,15.9027,15.896,15.896,15.896,15.896,15.896,15.896,15.896,15.896,16.441,16.441,16.441,16.441,16.441,16.441,16.441,16.441,16.441,16.441,16.441,16.441,16.441,16.441,16.441,16.441,16.441,16.441,16.441,16.441,16.441,16.441,16.441,16.441,16.441,16.441,16.441,16.441,16.441,16.441,16.441,16.441,16.441,16.441,16.441,16.441,16.441,16.441,16.441,16.441,16.441,16.441,16.441,16.441,16.441,16.441,16.441,16.441,16.441,16.441,16.441,16.441,16.441,16.441,16.441,16.441,16.441,16.441,16.441,16.441,16.441,16.441,16.441,16.441,16.441,16.441,16.441,16.441,16.441,16.441,16.441,16.441,16.4436,16.4553,16.4709,16.5401,16.6085,16.6809,16.7499,16.7645,16.7718,16.7742,16.7742,16.7742,16.7742,16.7742,16.7742,16.7742,16.7742,16.7742,16.7742,16.7742,16.7742,16.7742,16.7742,16.7742,16.7742,16.7742,16.7742,16.7742,16.7675,16.6176,16.4634,16.2513,16.0502,15.9764,15.9228,15.9094,15.896,15.896,15.896,15.896,15.896,15.896,15.896,16.441,16.441,16.441,16.441,16.441,16.441,16.441,16.441,16.441,16.441,16.441,16.441,16.441,16.441,16.441,16.441,16.441,16.441,16.441,16.441,16.441,16.441,16.441,16.441,16.441,16.441,16.441,16.441,16.441,16.441,16.441,16.441,16.441,16.441,16.441,16.441,16.441,16.441,16.441,16.441,16.441,16.441,16.441,16.441,16.441,16.441,16.441,16.441,16.441,16.441,16.441,16.441,16.441,16.441,16.441,16.441,16.441,16.441,16.441,16.441,16.441,16.441,16.441,16.441,16.441,16.441,16.441,16.441,16.4617,16.4709,16.4631,16.4605,16.4683,16.476,16.5017,16.5554,16.616,16.6759,16.7352,16.7669,16.7742,16.7742,16.7742,16.7742,16.7742,16.7742,16.7742,16.7742,16.7742,16.7742,16.7742,16.7742,16.7742,16.7742,16.7742,16.7742,16.7742,16.7742,16.7742,16.7742,16.7742,16.7072,16.6243,16.3964,16.1618,16.0569,15.9563,15.9161,15.896,15.896,15.896,15.896,15.896,15.896,15.896,16.441,16.441,16.441,16.441,16.441,16.441,16.441,16.441,16.441,16.441,16.441,16.441,16.441,16.441,16.441,16.441,16.441,16.441,16.441,16.441,16.441,16.441,16.441,16.441,16.441,16.441,16.441,16.441,16.441,16.441,16.441,16.441,16.441,16.441,16.441,16.441,16.441,16.441,16.441,16.441,16.441,16.441,16.441,16.441,16.441,16.441,16.441,16.441,16.441,16.441,16.441,16.441,16.441,16.441,16.441,16.441,16.441,16.441,16.441,16.441,16.441,16.441,16.441,16.441,16.441,16.4436,16.4436,16.4513,16.4786,16.4915,16.4837,16.476,16.4889,16.5017,16.5401,16.5782,16.6261,16.6784,16.7229,16.7621,16.7742,16.7742,16.7742,16.7742,16.7742,16.7742,16.7742,16.7742,16.7742,16.7742,16.7742,16.7742,16.7742,16.7742,16.7742,16.7742,16.7742,16.7742,16.7742,16.7742,16.7742,16.734,16.6737,16.497,16.2892,16.1618,16.0569,15.9831,15.9161,15.896,15.896,15.896,15.896,15.896,15.896,16.441,16.441,16.441,16.441,16.441,16.441,16.441,16.441,16.441,16.441,16.441,16.441,16.441,16.441,16.441,16.441,16.441,16.441,16.441,16.441,16.441,16.441,16.441,16.441,16.441,16.441,16.441,16.441,16.441,16.441,16.441,16.441,16.441,16.441,16.441,16.441,16.441,16.441,16.441,16.441,16.441,16.441,16.441,16.441,16.441,16.441,16.441,16.441,16.441,16.441,16.441,16.441,16.441,16.441,16.441,16.441,16.441,16.441,16.441,16.441,16.441,16.441,16.441,16.441,16.441,16.4436,16.4579,16.4709,16.4915,16.5017,16.4992,16.4992,16.5043,16.535,16.5782,16.6085,16.6311,16.6834,16.7376,16.7694,16.7742,16.7742,16.7742,16.7742,16.7742,16.7742,16.7742,16.7742,16.7742,16.7742,16.7742,16.7742,16.7742,16.7742,16.7742,16.7742,16.7742,16.7742,16.7742,16.7742,16.7742,16.7608,16.7206,16.6133,16.4658,16.3183,16.1708,16.0612,15.9741,15.9496,15.9027,15.9027,15.896,15.896,15.896,16.441,16.441,16.441,16.441,16.441,16.441,16.441,16.441,16.441,16.441,16.441,16.441,16.441,16.441,16.441,16.441,16.441,16.441,16.441,16.441,16.441,16.441,16.441,16.441,16.441,16.441,16.441,16.441,16.441,16.441,16.441,16.441,16.441,16.441,16.441,16.441,16.441,16.441,16.441,16.441,16.441,16.441,16.441,16.441,16.441,16.441,16.441,16.441,16.441,16.441,16.441,16.441,16.441,16.441,16.441,16.441,16.441,16.441,16.441,16.441,16.441,16.441,16.441,16.441,16.441,16.4436,16.4631,16.4812,16.512,16.5171,16.5299,16.5376,16.5427,16.5782,16.6236,16.6436,16.6585,16.6933,16.7499,16.7694,16.7718,16.7742,16.7742,16.7742,16.7742,16.7742,16.7742,16.7742,16.7742,16.7742,16.7742,16.7742,16.7742,16.7742,16.7742,16.7742,16.7742,16.7742,16.7742,16.7742,16.7742,16.7675,16.7474,16.7005,16.5999,16.4725,16.2915,16.1618,16.0612,15.9741,15.9205,15.9071,15.896,15.896,15.896,16.441,16.441,16.441,16.441,16.441,16.441,16.441,16.441,16.441,16.441,16.441,16.441,16.441,16.441,16.441,16.441,16.441,16.441,16.441,16.441,16.441,16.441,16.441,16.441,16.441,16.441,16.441,16.441,16.441,16.441,16.441,16.441,16.441,16.441,16.441,16.441,16.441,16.441,16.441,16.441,16.441,16.441,16.441,16.441,16.441,16.441,16.441,16.441,16.441,16.441,16.441,16.441,16.441,16.441,16.441,16.441,16.441,16.441,16.441,16.441,16.441,16.441,16.441,16.441,16.441,16.441,16.4683,16.4966,16.5376,16.5452,16.5554,16.6336,16.6386,16.6461,16.6809,16.7007,16.7155,16.7278,16.7718,16.7718,16.7742,16.7742,16.7742,16.7742,16.7742,16.7742,16.7742,16.7742,16.7742,16.7742,16.7742,16.7742,16.7742,16.7742,16.7742,16.7742,16.7742,16.7742,16.7742,16.7742,16.7742,16.7742,16.7742,16.7608,16.7005,16.6066,16.4189,16.2691,16.1752,16.0814,15.9875,15.9339,15.9027,15.896,15.896,16.441,16.441,16.441,16.441,16.441,16.441,16.441,16.441,16.441,16.441,16.441,16.441,16.441,16.441,16.441,16.441,16.441,16.441,16.441,16.441,16.441,16.441,16.441,16.441,16.441,16.441,16.441,16.441,16.441,16.441,16.441,16.441,16.441,16.441,16.441,16.441,16.441,16.441,16.441,16.441,16.441,16.441,16.441,16.441,16.441,16.441,16.441,16.441,16.441,16.441,16.441,16.441,16.441,16.441,16.441,16.441,16.441,16.441,16.441,16.441,16.441,16.441,16.441,16.441,16.441,16.441,16.4631,16.4915,16.5197,16.5427,16.5681,16.6436,16.6735,16.6834,16.7229,16.745,16.7474,16.7621,16.7742,16.7742,16.7742,16.7742,16.7742,16.7742,16.7742,16.7742,16.7742,16.7742,16.7742,16.7742,16.7742,16.7742,16.7742,16.7742,16.7742,16.7742,16.7742,16.7742,16.7742,16.7742,16.7742,16.7742,16.7742,16.7742,16.7675,16.7474,16.6066,16.4658,16.3294,16.1886,16.0814,16.0076,15.9429,15.9094,15.9027,16.441,16.441,16.441,16.441,16.441,16.441,16.441,16.441,16.441,16.441,16.441,16.441,16.441,16.441,16.441,16.441,16.441,16.441,16.441,16.441,16.441,16.441,16.441,16.441,16.441,16.441,16.441,16.441,16.441,16.441,16.441,16.441,16.441,16.441,16.441,16.441,16.441,16.441,16.441,16.441,16.441,16.441,16.441,16.441,16.441,16.441,16.441,16.441,16.441,16.441,16.441,16.441,16.441,16.441,16.441,16.441,16.441,16.441,16.441,16.441,16.441,16.441,16.441,16.441,16.441,16.4462,16.4631,16.512,16.5171,16.535,16.5807,16.6311,16.6502,16.6776,16.7352,16.7645,16.7499,16.7523,16.7669,16.7742,16.7742,16.7742,16.7742,16.7742,16.7742,16.7742,16.7742,16.7742,16.7742,16.7742,16.7742,16.7742,16.7742,16.7742,16.7742,16.7742,16.7742,16.7742,16.7742,16.7742,16.7742,16.7742,16.7742,16.7742,16.7742,16.7675,16.7139,16.6536,16.5329,16.4055,16.2513,16.1082,15.9741,15.9161,15.9027,16.441,16.441,16.441,16.441,16.441,16.441,16.441,16.441,16.441,16.441,16.441,16.441,16.441,16.441,16.441,16.441,16.441,16.441,16.441,16.441,16.441,16.441,16.441,16.441,16.441,16.441,16.441,16.441,16.441,16.441,16.441,16.441,16.441,16.441,16.441,16.441,16.441,16.441,16.441,16.441,16.441,16.441,16.441,16.441,16.441,16.441,16.441,16.441,16.441,16.441,16.441,16.441,16.441,16.441,16.441,16.441,16.441,16.441,16.441,16.441,16.441,16.441,16.441,16.4436,16.441,16.4436,16.4837,16.5325,16.563,16.5959,16.6544,16.6933,16.7032,16.7099,16.7621,16.7718,16.7572,16.7523,16.7645,16.7742,16.7742,16.7742,16.7742,16.7742,16.7742,16.7742,16.7742,16.7742,16.7742,16.7742,16.7742,16.7742,16.7742,16.7742,16.7742,16.7742,16.7742,16.7742,16.7742,16.7742,16.7742,16.7742,16.7742,16.7742,16.7742,16.7742,16.7541,16.7206,16.6603,16.5956,16.4658,16.316,16.1776,16.0099,15.9697,16.441,16.441,16.441,16.441,16.441,16.441,16.441,16.441,16.441,16.441,16.441,16.441,16.441,16.441,16.441,16.441,16.441,16.441,16.441,16.441,16.441,16.441,16.441,16.441,16.441,16.441,16.441,16.441,16.441,16.441,16.441,16.441,16.441,16.441,16.441,16.441,16.441,16.441,16.441,16.441,16.441,16.441,16.441,16.441,16.441,16.441,16.441,16.441,16.441,16.441,16.441,16.441,16.441,16.441,16.441,16.441,16.441,16.441,16.441,16.441,16.441,16.441,16.4502,16.4605,16.4915,16.4863,16.5146,16.5554,16.6025,16.6261,16.6859,16.7253,16.7596,16.7694,16.7742,16.7742,16.7694,16.7669,16.7742,16.7742,16.7742,16.7742,16.7742,16.7742,16.7742,16.7742,16.7742,16.7742,16.7742,16.7742,16.7742,16.7742,16.7742,16.7742,16.7742,16.7742,16.7742,16.7742,16.7742,16.7742,16.7742,16.7742,16.7742,16.7742,16.7742,16.7742,16.7742,16.7742,16.7474,16.6804,16.5932,16.4903,16.325,16.1373,16.0234,16.441,16.441,16.441,16.441,16.441,16.441,16.441,16.441,16.441,16.441,16.441,16.441,16.441,16.441,16.441,16.441,16.441,16.441,16.441,16.441,16.441,16.441,16.441,16.441,16.441,16.441,16.441,16.441,16.441,16.441,16.441,16.441,16.441,16.441,16.441,16.441,16.441,16.441,16.441,16.441,16.441,16.441,16.441,16.441,16.441,16.441,16.441,16.441,16.441,16.441,16.441,16.441,16.441,16.441,16.441,16.441,16.441,16.441,16.441,16.441,16.4436,16.4553,16.4657,16.4889,16.535,16.5427,16.5706,16.616,16.6311,16.661,16.6908,16.7106,16.745,16.7621,16.7742,16.7742,16.7742,16.7742,16.7742,16.7742,16.7742,16.7742,16.7742,16.7742,16.7742,16.7742,16.7742,16.7742,16.7742,16.7742,16.7742,16.7742,16.7742,16.7742,16.7742,16.7742,16.7742,16.7742,16.7742,16.7742,16.7742,16.7742,16.7742,16.7742,16.7742,16.7742,16.7742,16.7742,16.7675,16.745,16.6914,16.5932,16.4457,16.3183,16.1776,16.441,16.441,16.441,16.441,16.441,16.441,16.441,16.441,16.441,16.441,16.441,16.441,16.441,16.441,16.441,16.441,16.441,16.441,16.441,16.441,16.441,16.441,16.441,16.441,16.441,16.441,16.441,16.441,16.441,16.441,16.441,16.441,16.441,16.441,16.441,16.441,16.441,16.441,16.441,16.441,16.441,16.441,16.441,16.441,16.441,16.441,16.441,16.441,16.4344,16.4278,16.4213,16.4016,16.4147,16.4147,16.4239,16.4239,16.4513,16.4513,16.4565,16.4617,16.476,16.4992,16.5222,16.535,16.5899,16.605,16.6252,16.6735,16.6784,16.7056,16.7401,16.7523,16.7596,16.7645,16.7742,16.7742,16.7742,16.7742,16.7742,16.7742,16.7742,16.7742,16.7742,16.7742,16.7742,16.7742,16.7742,16.7742,16.7742,16.7742,16.7742,16.7742,16.7742,16.7742,16.7742,16.7742,16.7742,16.7742,16.7742,16.7742,16.7742,16.7742,16.7742,16.7742,16.7742,16.7742,16.7742,16.7742,16.7742,16.7675,16.7407,16.667,16.6066,16.5329,16.3988,16.441,16.441,16.441,16.441,16.441,16.441,16.441,16.441,16.441,16.441,16.441,16.441,16.441,16.441,16.441,16.441,16.441,16.441,16.441,16.441,16.441,16.441,16.441,16.441,16.441,16.441,16.441,16.441,16.441,16.441,16.441,16.441,16.441,16.441,16.441,16.441,16.441,16.441,16.441,16.441,16.441,16.441,16.441,16.441,16.441,16.441,16.4278,16.395,16.3515,16.3384,16.2792,16.2661,16.2701,16.3187,16.3515,16.3607,16.4248,16.4834,16.508,16.5248,16.5427,16.5655,16.5823,16.5792,16.6176,16.6427,16.6759,16.7253,16.7303,16.7425,16.7645,16.7718,16.7742,16.7742,16.7742,16.7742,16.7742,16.7742,16.7742,16.7742,16.7742,16.7742,16.7742,16.7742,16.7742,16.7742,16.7742,16.7742,16.7742,16.7742,16.7742,16.7742,16.7742,16.7742,16.7742,16.7742,16.7742,16.7742,16.7742,16.7742,16.7742,16.7742,16.7742,16.7742,16.7742,16.7742,16.7742,16.7742,16.7742,16.7742,16.7742,16.7407,16.7072,16.6334,16.5262,16.4147,16.4213,16.4344,16.441,16.441,16.441,16.441,16.441,16.441,16.441,16.441,16.441,16.441,16.441,16.441,16.441,16.441,16.441,16.441,16.441,16.441,16.441,16.441,16.441,16.441,16.441,16.441,16.441,16.441,16.441,16.441,16.441,16.441,16.441,16.437,16.4041,16.4278,16.4344,16.4213,16.4081,16.4016,16.3753,16.3713,16.3687,16.3621,16.3555,16.3227,16.2595,16.2094,16.1937,16.0911,16.0294,16.0425,16.1568,16.212,16.2597,16.3719,16.5126,16.5138,16.4964,16.5039,16.5056,16.533,16.582,16.5895,16.6241,16.636,16.7383,16.7694,16.7718,16.7718,16.7742,16.7742,16.7742,16.7742,16.7742,16.7742,16.7742,16.7742,16.7742,16.7742,16.7742,16.7541,16.7675,16.7675,16.7742,16.7742,16.7742,16.7742,16.7742,16.7742,16.7742,16.7742,16.7742,16.7742,16.7742,16.7742,16.7742,16.7742,16.7742,16.7742,16.7742,16.7742,16.7675,16.7742,16.7742,16.7742,16.7742,16.7742,16.7742,16.7742,16.7742,16.7742,16.7072,16.6176,16.2752,16.2818,16.3976,16.441,16.441,16.441,16.4436,16.441,16.441,16.441,16.441,16.441,16.441,16.441,16.441,16.441,16.441,16.441,16.441,16.441,16.441,16.441,16.441,16.441,16.441,16.441,16.441,16.441,16.441,16.441,16.441,16.4304,16.4344,16.441,16.4041,16.3147,16.3713,16.3687,16.345,16.2752,16.2423,16.1674,16.1017,16.1017,16.1017,16.1214,16.1346,16.0845,16.0648,16.0516,16.0253,16.0056,16.0385,16.1503,16.1578,16.069,16.164,16.2335,16.2749,16.2864,16.34,16.376,16.3385,16.4295,16.4938,16.4968,16.4759,16.5951,16.678,16.7474,16.7273,16.7675,16.7651,16.7675,16.7675,16.7742,16.7675,16.7742,16.7651,16.734,16.7742,16.7541,16.7072,16.7072,16.6713,16.6713,16.6603,16.6737,16.6646,16.6847,16.7206,16.734,16.7407,16.734,16.7139,16.6938,16.6737,16.6713,16.678,16.7139,16.7407,16.7675,16.7608,16.7474,16.7541,16.7474,16.7742,16.7742,16.7742,16.7742,16.7742,16.7742,16.7742,16.7273,16.6847,16.1305,16.1346,16.2069,16.2792,16.3318,16.3384,16.3778,16.4344,16.441,16.441,16.441,16.441,16.441,16.441,16.441,16.441,16.441,16.441,16.441,16.441,16.441,16.441,16.441,16.441,16.441,16.441,16.441,16.441,16.441,16.4344,16.4041,16.3647,16.3384,16.3055,16.2332,16.17,16.1806,16.1937,16.1674,16.1305,16.1174,16.0714,16.0228,16.0228,16.0228,16.0162,16.0031,15.9661,15.9135,15.9054,15.8727,15.8496,15.8884,15.9741,16.0648,16.0419,16.141,16.2282,16.2433,16.2505,16.2511,16.2799,16.2889,16.3525,16.396,16.3897,16.3739,16.4433,16.5372,16.5573,16.5707,16.6243,16.6578,16.6804,16.734,16.7316,16.7048,16.7383,16.6578,16.5573,16.5774,16.5841,16.5841,16.5908,16.5707,16.5573,16.5506,16.5372,16.5238,16.5573,16.5999,16.5999,16.5865,16.5664,16.5128,16.497,16.4836,16.5238,16.5506,16.6176,16.6646,16.734,16.7407,16.6938,16.6938,16.6871,16.7139,16.7474,16.7675,16.7742,16.7742,16.7742,16.7742,16.7742,16.7608,15.9793,15.9833,16.0122,16.0845,16.1897,16.1963,16.2595,16.3647,16.349,16.3687,16.3621,16.3687,16.349,16.3555,16.3687,16.3713,16.345,16.3713,16.391,16.391,16.391,16.3555,16.349,16.3515,16.3713,16.3818,16.349,16.3384,16.3424,16.3687,16.2792,16.216,16.1963,16.1543,16.0688,15.9924,15.999,16.0557,16.0096,15.9793,15.9793,15.9661,15.953,15.9044,15.8979,15.9044,15.8938,15.824,15.7697,15.773,15.7069,15.6939,15.756,15.8789,15.9685,16.0108,16.0937,16.15,16.1851,16.2261,16.2466,16.2556,16.2241,16.2399,16.2734,16.26,16.2624,16.3026,16.3361,16.316,16.3294,16.45,16.5128,16.5463,16.5932,16.6243,16.5731,16.5798,16.5573,16.3763,16.3562,16.3605,16.4031,16.4299,16.4366,16.4433,16.4366,16.4366,16.4275,16.45,16.4725,16.4524,16.4457,16.3921,16.3361,16.3361,16.3495,16.4031,16.4433,16.5104,16.5506,16.6511,16.6578,16.5573,16.5305,16.5841,16.6536,16.7005,16.734,16.7742,16.7742,16.7742,16.7742,16.7742,16.7742,15.8371,15.8437,15.9661,16.0294,16.0491,16.0516,16.0688,16.0885,16.082,16.1214,16.0885,16.082,16.128,16.0951,16.1017,16.0885,16.1214,16.1963,16.262,16.2686,16.2661,16.2135,16.1609,16.1872,16.1963,16.0885,16.1083,16.1083,16.1083,16.082,16.1083,16.0648,16.0516,16.0122,15.9833,15.9135,15.8741,15.9464,15.8807,15.8371,15.8371,15.8371,15.7845,15.7163,15.6965,15.6965,15.6974,15.6735,15.6553,15.6812,15.671,15.7174,15.7906,15.8717,15.92,15.9267,15.9579,15.996,16.0143,15.9965,15.9965,15.9607,15.9764,16.0301,16.0948,16.0814,16.1149,16.1819,16.2221,16.1819,16.3093,16.3519,16.3562,16.3763,16.383,16.3897,16.3696,16.3763,16.3294,16.1886,16.1953,16.2355,16.2624,16.2556,16.2935,16.327,16.3337,16.3337,16.3404,16.3495,16.3361,16.3183,16.325,16.2959,16.2489,16.2355,16.2556,16.2959,16.3294,16.3562,16.3763,16.4098,16.3988,16.3495,16.3964,16.4769,16.5463,16.62,16.6938,16.7608,16.7742,16.7742,16.7742,16.7742,16.7742,15.69,15.699,15.7623,15.8346,15.8938,15.907,15.9464,16.0096,16.0162,16.0162,16.0162,16.0162,16.0162,16.0162,16.0162,16.0162,16.0359,16.0911,16.1174,16.1174,16.1148,16.0779,16.0359,16.0056,15.9818,15.9333,15.9727,16.0162,16.0162,16.0228,15.9636,15.9095,15.9029,15.8741,15.782,15.7228,15.7426,15.7754,15.7187,15.6924,15.69,15.6858,15.6464,15.6069,15.5938,15.6019,15.628,15.6329,15.662,15.703,15.7389,15.7863,15.861,15.8888,15.9004,15.896,15.896,15.896,15.896,15.896,15.896,15.9027,15.9027,15.9429,15.9563,15.9496,15.9831,16.0435,16.0569,16.0234,16.0948,16.1551,16.2087,16.2221,16.2825,16.2892,16.2221,16.1507,16.068,16.0411,16.068,16.1015,16.1015,16.0612,16.0814,16.1216,16.1283,16.1283,16.1417,16.1953,16.1819,16.1752,16.1953,16.1953,16.1484,16.1417,16.1574,16.1685,16.1953,16.2087,16.2087,16.1843,16.1507,16.1819,16.2221,16.316,16.4457,16.5396,16.6133,16.6938,16.7541,16.7675,16.7675,16.7474,16.7474,15.5913,15.5913,15.5913,15.6505,15.745,15.7582,15.8215,15.911,15.9176,15.8979,15.9176,15.9201,15.911,15.911,15.9004,15.9267,15.9044,15.953,15.9727,15.9727,15.9702,15.957,15.8913,15.8149,15.7648,15.7779,15.8741,15.9176,15.911,15.8781,15.8609,15.7648,15.7491,15.7031,15.6176,15.6176,15.5913,15.5913,15.5979,15.6045,15.6045,15.6045,15.6003,15.5938,15.5913,15.6134,15.6409,15.6741,15.7174,15.7722,15.8146,15.8249,15.8262,15.8377,15.8132,15.7931,15.8065,15.8423,15.8557,15.8692,15.896,15.896,15.896,15.896,15.896,15.9027,15.9027,15.9027,15.896,15.9161,15.9429,16.0143,16.0545,16.0814,16.1484,16.1752,16.0814,15.9764,15.9362,15.9094,15.9161,15.9027,15.9094,15.9295,15.9228,15.9094,15.9094,15.9027,15.9563,16.021,16.0166,15.9965,16.0234,16.0545,16.0143,16.0099,16.0099,16.0099,16.0435,16.0703,16.0545,16.0368,16.0301,16.0478,16.0747,16.1886,16.3318,16.4256,16.486,16.6109,16.7115,16.7407,16.7474,16.7139,16.7005,15.5913,15.5913,15.5913,15.5979,15.6176,15.6135,15.6439,15.6439,15.6636,15.6571,15.6571,15.6439,15.6768,15.6308,15.69,15.6505,15.6571,15.7779,15.8108,15.824,15.8174,15.7779,15.69,15.6505,15.6398,15.6398,15.6242,15.6571,15.6834,15.6636,15.6308,15.6373,15.6242,15.6045,15.5979,15.5913,15.5913,15.5913,15.5913,15.5913,15.5913,15.5913,15.5913,15.5913,15.5913,15.6011,15.6304,15.6934,15.7636,15.8729,15.8844,15.804,15.7014,15.6926,15.6456,15.5719,15.6389,15.6926,15.7037,15.7998,15.8759,15.8759,15.8759,15.896,15.896,15.8759,15.8826,15.896,15.896,15.896,15.9027,15.9094,15.9429,15.9563,15.9429,15.9496,15.9228,15.9094,15.896,15.896,15.896,15.896,15.896,15.896,15.896,15.896,15.896,15.896,15.9228,15.9496,15.9295,15.896,15.9094,15.9295,15.9161,15.896,15.896,15.9027,15.9563,15.9697,15.963,15.9563,15.9362,15.9362,15.9764,16.0703,16.2111,16.2848,16.3385,16.4457,16.5573,16.6444,16.7005,16.6133,16.5798,15.5913,15.5913,15.5913,15.5913,15.5913,15.5913,15.5913,15.5913,15.5913,15.5913,15.5913,15.5913,15.5913,15.5913,15.5913,15.5913,15.5979,15.653,15.6793,15.6858,15.6858,15.6505,15.6045,15.5913,15.5913,15.5913,15.5913,15.5913,15.5913,15.5913,15.5913,15.5913,15.5913,15.5913,15.5913,15.5913,15.5913,15.5913,15.5913,15.5913,15.5913,15.5913,15.5913,15.5913,15.5913,15.6085,15.6475,15.7341,15.7185,15.6244,15.623,15.6121,15.5518,15.5451,15.5183,15.4714,15.5049,15.5451,15.5585,15.5987,15.6792,15.7395,15.6792,15.7351,15.8423,15.8088,15.8222,15.8736,15.896,15.896,15.896,15.896,15.896,15.896,15.896,15.9027,15.9027,15.8893,15.896,15.896,15.896,15.896,15.896,15.896,15.896,15.896,15.896,15.896,15.896,15.9027,15.896,15.896,15.9094,15.9094,15.9027,15.896,15.896,15.896,15.9295,15.9228,15.9161,15.9161,15.9094,15.9094,15.9027,15.9496,16.0747,16.1752,16.2379,16.3049,16.3696,16.45,16.4702,16.4299,16.4232,15.5913,15.5913,15.5913,15.5913,15.5913,15.5913,15.5913,15.5913,15.5913,15.5913,15.5913,15.5913,15.5913,15.5913,15.5913,15.5913,15.5913,15.5913,15.5913,15.5913,15.5913,15.5913,15.5913,15.5913,15.5913,15.5913,15.5913,15.5913,15.5913,15.5913,15.5913,15.5913,15.5913,15.5913,15.5913,15.5913,15.5913,15.5913,15.5913,15.5913,15.5913,15.5913,15.5913,15.5938,15.606,15.6138,15.6314,15.7028,15.6185,15.4149,15.4333,15.4445,15.4043,15.3998,15.3708,15.3373,15.3574,15.3998,15.4043,15.4378,15.5026,15.583,15.5317,15.5518,15.7663,15.6725,15.6993,15.7998,15.8423,15.849,15.8893,15.896,15.896,15.896,15.8021,15.7552,15.7663,15.8065,15.84,15.8467,15.8759,15.896,15.896,15.896,15.896,15.896,15.896,15.896,15.896,15.896,15.896,15.896,15.8826,15.8893,15.8893,15.8893,15.8893,15.8826,15.8624,15.8423,15.8222,15.849,15.8759,15.8893,15.8759,15.8893,15.9875,16.0478,16.1551,16.2288,16.2825,16.3227,16.3093,16.2825,16.2758,15.5913,15.5913,15.5913,15.5913,15.5913,15.5913,15.5847,15.5847,15.5782,15.565,15.565,15.5453,15.565,15.5782,15.5453,15.5453,15.5847,15.565,15.565,15.5716,15.5519,15.5584,15.5584,15.5453,15.5453,15.5716,15.5847,15.5913,15.5913,15.5913,15.5913,15.5913,15.5913,15.5913,15.5913,15.5913,15.5913,15.5913,15.5913,15.5913,15.5913,15.5913,15.5872,15.5855,15.618,15.6044,15.537,15.5277,15.5029,15.4534,15.4132,15.3574,15.2792,15.2524,15.1898,15.0804,15.1831,15.2367,15.2792,15.3373,15.4311,15.4512,15.4311,15.4714,15.4982,15.4982,15.525,15.6657,15.6792,15.7328,15.8423,15.8624,15.8624,15.8534,15.668,15.5384,15.4982,15.6099,15.6725,15.706,15.7998,15.8893,15.8557,15.8534,15.8624,15.8624,15.8557,15.8423,15.8423,15.8222,15.8759,15.8759,15.8423,15.8423,15.8289,15.8289,15.8289,15.8021,15.7462,15.7127,15.6792,15.7596,15.8222,15.8356,15.8423,15.8669,15.9071,15.9071,15.9607,16.0747,16.1484,16.2087,16.202,16.1551,16.1283,15.5913,15.5913,15.5913,15.5913,15.5913,15.5913,15.5387,15.4639,15.4574,15.4006,15.3349,15.3241,15.3241,15.3241,15.3241,15.3241,15.3283,15.4138,15.4532,15.4442,15.3677,15.3743,15.4401,15.3677,15.3636,15.4532,15.5453,15.5913,15.5913,15.5913,15.5913,15.5847,15.5913,15.5847,15.5913,15.5913,15.5913,15.5913,15.5847,15.5913,15.5913,15.5913,15.5599,15.5124,15.5185,15.4958,15.4311,15.3678,15.2859,15.1944,15.1675,15.1496,15.1005,15.096,15.0692,15.0289,15.0624,15.0871,15.096,15.1474,15.2077,15.2837,15.2278,15.2479,15.4043,15.3596,15.3864,15.5049,15.5294,15.5585,15.6144,15.6188,15.6188,15.6188,15.5049,15.4646,15.4579,15.5026,15.5317,15.5451,15.592,15.6121,15.6188,15.6188,15.6211,15.6188,15.6188,15.6188,15.6188,15.6322,15.6121,15.6188,15.7015,15.7462,15.7529,15.7529,15.7596,15.6859,15.6188,15.5652,15.5384,15.6322,15.6859,15.6926,15.6926,15.706,15.7529,15.7529,15.7797,15.8803,15.9808,16.0143,16.0277,15.9875,16.0009,15.4598,15.4532,15.4532,15.4557,15.4532,15.4532,15.4006,15.3151,15.3086,15.2559,15.1728,15.1663,15.1663,15.1663,15.1663,15.1663,15.1663,15.2099,15.2404,15.2338,15.1902,15.2255,15.2823,15.2123,15.2123,15.3151,15.4138,15.4729,15.5058,15.4729,15.4861,15.5058,15.4729,15.4598,15.4466,15.4532,15.4557,15.4622,15.4557,15.4622,15.4557,15.4557,15.4314,15.387,15.3993,15.3605,15.2657,15.2034,15.1139,15.0267,15.0066,14.9865,14.9463,14.9396,14.915,14.8793,14.8659,14.8659,14.8726,14.9128,14.9932,15.0557,15.049,15.1228,15.2703,15.2166,15.2367,15.3641,15.3842,15.411,15.4445,15.4512,15.4177,15.3239,15.315,15.2971,15.2904,15.3038,15.3306,15.3708,15.4244,15.4512,15.4579,15.4646,15.4781,15.4781,15.4714,15.4714,15.4646,15.4848,15.4512,15.4512,15.5183,15.5987,15.6054,15.6054,15.5652,15.4848,15.4378,15.3909,15.4043,15.4579,15.4915,15.5049,15.4982,15.5183,15.5763,15.6099,15.6389,15.7127,15.7596,15.7931,15.8222,15.849,15.8893,15.1794,15.186,15.1663,15.1992,15.2057,15.2057,15.1818,15.1663,15.1597,15.1465,15.1071,15.1334,15.1137,15.14,15.1071,15.14,15.1005,15.0126,14.9798,14.9995,15.085,15.14,15.1597,15.1334,15.1334,15.1663,15.1663,15.2452,15.3653,15.2715,15.2649,15.3349,15.2583,15.2189,15.1794,15.2123,15.1926,15.1992,15.2123,15.1926,15.1728,15.2039,15.217,15.2312,15.2646,15.205,15.0381,15.02,15.0066,14.9932,14.9865,14.9329,14.8123,14.7922,14.7318,14.6225,14.5823,14.5756,14.5957,14.7184,14.801,14.8546,14.9351,15.0021,15.0536,15.0469,15.0871,15.2099,15.2434,15.2837,15.3909,15.3976,15.3038,15.0737,15.0603,15.0603,15.0469,15.0267,15.0737,15.2166,15.3306,15.4378,15.4445,15.4043,15.3909,15.3909,15.3976,15.3909,15.3775,15.3775,15.4244,15.4244,15.4311,15.4512,15.4579,15.4468,15.3641,15.2904,15.2635,15.2367,15.2568,15.2703,15.3105,15.3239,15.3172,15.3239,15.3753,15.4378,15.4714,15.5451,15.5183,15.5518,15.6188,15.6859,15.7328,15.1663,15.1663,15.1663,15.1663,15.1663,15.1663,15.1071,15.0216,15.0126,14.9558,14.8703,14.8572,14.8572,14.8614,14.8548,14.8572,14.8548,14.8154,14.8482,14.9337,14.8877,14.9163,14.9798,14.9074,14.9163,15.0061,15.0216,15.0916,15.2099,15.186,15.186,15.2296,15.186,15.1663,15.1663,15.1663,15.1663,15.1663,15.1663,15.1597,15.1645,15.1864,15.1802,15.132,15.0737,15.0275,15.009,14.915,14.8592,14.8458,14.7587,14.6828,14.638,14.6292,14.6091,14.571,14.5555,14.5555,14.5643,14.6024,14.6782,14.7809,14.8412,14.9061,14.9999,15.0066,15.0289,15.0692,15.0804,15.0871,15.1228,15.0624,15.0088,15.02,15.0066,15.0066,15.0066,15.0066,15.0267,15.0804,15.1407,15.1541,15.1474,15.1541,15.1608,15.1563,15.1496,15.1496,15.1474,15.1474,15.1474,15.1541,15.2434,15.2971,15.3127,15.2434,15.1563,15.1362,15.1161,15.0871,15.0871,15.1072,15.1273,15.1407,15.1474,15.1474,15.1809,15.2501,15.3373,15.4445,15.4244,15.3909,15.4646,15.525,15.5585,14.8966,14.8506,14.844,14.8745,14.9206,14.9206,14.9032,14.868,14.8591,14.8088,14.7233,14.7167,14.7102,14.7102,14.6641,14.6641,14.7102,14.7102,14.7693,14.8417,14.7628,14.7693,14.8482,14.7628,14.7782,14.8572,14.868,14.9403,15.0676,15.0282,15.0258,15.0676,15.0282,15.0018,15.0018,15.0018,14.9995,15.0018,14.9995,15.0113,15.0235,15.0492,15.0606,15.0249,14.9341,14.8979,14.9262,14.7855,14.7117,14.7117,14.6158,14.5555,14.5576,14.5107,14.4658,14.4122,14.4055,14.4055,14.4122,14.4524,14.5329,14.6221,14.6804,14.752,14.8257,14.8458,14.8458,14.8458,14.8458,14.8458,14.8257,14.7654,14.7474,14.8257,14.8458,14.8525,14.9128,14.9262,14.9552,14.9932,15.0066,15.0066,15.0267,15.0133,15.0066,15.0066,15.0133,15.02,15.0133,15.0133,15.0267,15.0335,15.0893,15.1563,15.1563,15.0557,15.0066,15.0066,14.9999,14.9932,15.0133,15.0402,14.9798,14.9865,15.0335,15.0402,14.9865,15.0557,15.1496,15.2367,15.2479,15.2501,15.3663,15.3775,15.3976,14.4142,14.3047,14.2938,14.3945,14.4974,14.504,14.5698,14.6838,14.6927,14.6904,14.6707,14.6773,14.6904,14.6707,14.5458,14.5655,14.6707,14.6707,14.6838,14.7059,14.6862,14.6904,14.7036,14.697,14.6904,14.6773,14.6796,14.7628,14.9009,14.7891,14.7891,14.9182,14.8088,14.7233,14.7365,14.743,14.7233,14.7454,14.7566,14.7619,14.7987,14.7926,14.8249,14.883,14.822,14.7766,14.7675,14.6313,14.5509,14.5488,14.5308,14.5308,14.5174,14.4076,14.2777,14.1704,14.1415,14.1435,14.1637,14.2622,14.3493,14.3762,14.486,14.5576,14.5978,14.6024,14.6024,14.5689,14.571,14.5509,14.5643,14.5576,14.5622,14.5823,14.5777,14.6447,14.7654,14.7788,14.8458,14.9329,14.9463,14.9329,14.9597,14.9865,14.9597,14.9798,14.9798,14.9798,14.9865,14.9932,14.9932,14.9999,15.0133,14.9999,14.982,14.9217,14.9329,14.9262,14.886,14.9463,14.9798,14.9731,14.8927,14.8525,14.8793,14.8726,14.8324,14.8659,14.953,15.02,15.0402,15.1072,15.2099,15.2233,15.2501,14.3179,14.2915,14.285,14.3113,14.3442,14.3442,14.3705,14.4034,14.4034,14.4034,14.4034,14.4034,14.4034,14.4034,14.3639,14.3616,14.4034,14.4034,14.4625,14.5435,14.4471,14.4625,14.5435,14.456,14.4034,14.4056,14.4099,14.4823,14.6181,14.6707,14.7365,14.7628,14.7365,14.7102,14.7102,14.7102,14.7102,14.7125,14.7514,14.7743,14.7684,14.6569,14.6075,14.6547,14.6362,14.6246,14.6158,14.486,14.4009,14.4009,14.3003,14.2488,14.2488,14.2106,14.1771,14.1368,14.1301,14.1301,14.1301,14.1637,14.2374,14.3292,14.3762,14.4457,14.5308,14.5555,14.5555,14.5375,14.3653,14.3091,14.3808,14.403,14.4524,14.5421,14.5597,14.5731,14.6179,14.6225,14.6447,14.6715,14.7096,14.6828,14.6849,14.6983,14.7431,14.819,14.7654,14.7385,14.9396,14.9128,14.886,14.9865,14.9999,14.9195,14.7294,14.7072,14.6828,14.6828,14.705,14.7117,14.6849,14.6849,14.6447,14.6581,14.6627,14.656,14.6447,14.6514,14.7117,14.819,14.9329,15.0267,15.0469,15.0603,15.0871,14.1666,14.1117,14.1117,14.1469,14.1995,14.1972,14.2324,14.285,14.285,14.285,14.2741,14.16,14.1446,14.1972,14.1995,14.2324,14.285,14.285,14.331,14.4011,14.331,14.331,14.4011,14.3244,14.285,14.285,14.285,14.3288,14.4142,14.502,14.5721,14.6224,14.6312,14.6575,14.7102,14.7102,14.6838,14.6312,14.6771,14.6938,14.6635,14.5741,14.5367,14.5467,14.504,14.4726,14.4591,14.3359,14.2575,14.2508,14.1791,14.1301,14.1301,14.1301,14.1301,14.1301,14.1301,14.1301,14.1301,14.1301,14.1704,14.2488,14.2575,14.289,14.372,14.3854,14.3854,14.3653,14.2354,14.1637,14.2441,14.2575,14.2911,14.3607,14.3875,14.4097,14.4591,14.4705,14.4973,14.5488,14.5555,14.5622,14.5555,14.5555,14.5978,14.6514,14.6313,14.6246,14.7721,14.752,14.7385,14.8056,14.8257,14.7385,14.62,14.5576,14.5622,14.5622,14.5555,14.5555,14.571,14.5555,14.5308,14.4793,14.5442,14.5622,14.486,14.5128,14.5756,14.6514,14.7855,14.8257,14.8257,14.8257,14.8257,13.978,13.8663,13.8728,13.9408,14.0526,14.0526,14.1249,14.2324,14.2455,14.2455,14.206,13.9802,13.9386,14.0438,14.0526,14.1205,14.2324,14.2455,14.2455,14.2652,14.2521,14.2521,14.2652,14.2521,14.2455,14.2389,14.2324,14.2389,14.2652,14.2718,14.3419,14.4646,14.4843,14.548,14.6602,14.6733,14.6207,14.498,14.5367,14.5242,14.4694,14.5029,14.522,14.5153,14.3942,14.3246,14.3225,14.2039,14.1301,14.1301,14.1301,14.1234,14.1033,14.11,14.1033,14.0832,14.0832,14.0899,14.0832,14.0919,14.0899,14.11,14.11,14.1167,14.1435,14.1167,14.0899,14.0899,14.0899,14.0765,14.11,14.11,14.1234,14.1637,14.1637,14.1838,14.2978,14.3246,14.3762,14.5107,14.486,14.5174,14.4839,14.4839,14.504,14.4994,14.4772,14.504,14.5911,14.5689,14.5509,14.5241,14.5174,14.5107,14.4973,14.5174,14.4839,14.4906,14.5107,14.4839,14.4705,14.4705,14.4839,14.354,14.4122,14.4323,14.3942,14.421,14.504,14.5329,14.5509,14.5576,14.5622,14.5823,14.5643,13.886,13.8575,13.8575,13.8794,13.9057,13.9057,13.9254,13.9583,13.9539,13.9583,13.9452,13.8926,13.8794,13.9057,13.9057,13.9254,13.9517,13.9583,14.0175,14.1052,14.0043,14.0197,14.1052,14.0043,13.9517,13.9517,13.9583,14.0131,14.1117,14.1183,14.1907,14.3179,14.3376,14.3754,14.4442,14.4442,14.4401,14.4424,14.3734,14.2747,14.1579,14.2059,14.2287,14.2287,14.1951,14.1771,14.1771,14.1502,14.1301,14.1301,14.1301,14.0765,13.9625,13.9537,13.9001,13.8015,13.7861,13.7861,13.7861,13.7861,13.833,13.9403,13.9537,14.0007,14.0966,13.9202,13.7861,13.7861,13.7988,13.8438,13.9289,13.947,14.0027,14.1167,14.1301,14.1403,14.1724,14.1771,14.1951,14.2152,14.2307,14.2395,14.2307,14.2287,14.2441,14.2529,14.2287,14.3272,14.4973,14.4591,14.3493,14.2689,14.2287,14.2421,14.2287,14.2421,14.2421,14.2307,14.2421,14.2555,14.2467,14.2354,14.2106,14.2152,14.2219,14.2287,14.2039,14.2219,14.2823,14.3762,14.3942,14.4277,14.5107,14.5308,14.4906,13.8575,13.8575,13.8575,13.8575,13.8575,13.8575,13.8575,13.8465,13.7216,13.6732,13.6838,13.6925,13.6966,13.7202,13.7691,13.7869,13.7935,13.8594,13.9122,13.9693,13.9144,13.9274,13.9912,13.9013,13.8706,13.8836,13.8706,13.9101,13.9956,13.9825,14.0241,14.1164,14.1689,14.2503,14.3519,14.3607,14.3564,14.3227,14.1738,14.0602,13.9887,14.0065,14.0208,14.0228,14.0966,14.1301,14.1301,14.1301,14.0966,14.0275,14.0275,13.9558,13.8129,13.7995,13.7325,13.6003,13.5869,13.5601,13.4844,13.4777,13.5447,13.6922,13.7593,13.7861,13.7325,13.6917,13.6581,13.5948,13.7091,13.793,13.8008,13.7995,13.8563,14.0063,14.0296,14.0228,14.0296,14.0769,14.0965,14.0478,14.1432,14.2016,14.1424,14.1856,14.2136,14.1403,14.1301,14.1838,14.3272,14.2936,14.2173,14.1502,14.1301,14.1301,14.1368,14.1301,14.1301,14.1301,14.1301,14.1301,14.1301,14.1368,14.1368,14.1301,14.1301,14.1301,14.1368,14.1301,14.1637,14.2441,14.2508,14.2689,14.3339,14.3653,14.307,13.8005,13.7983,13.7983,13.8005,13.8005,13.8005,13.7983,13.7742,13.4915,13.3876,13.4231,13.4227,13.4541,13.5136,13.6084,13.6557,13.6867,13.812,13.8501,13.8114,13.8677,13.8892,13.898,13.8791,13.8857,13.9115,13.8814,13.8836,13.9094,13.8836,13.8836,13.927,14.0044,14.1362,14.2858,14.3145,14.2789,14.2001,14.0221,13.9336,13.9336,13.9336,13.9068,13.8532,14.0295,14.0966,14.0161,14.0631,14.0027,13.7861,13.7727,13.6989,13.538,13.5179,13.4863,13.3857,13.3771,13.3187,13.1893,13.1759,13.2363,13.3723,13.5131,13.4642,13.1845,13.3829,13.5006,13.4281,13.6036,13.7334,13.6658,13.6455,13.6953,13.8108,13.8664,13.8837,13.8734,14.0061,14.0753,13.9707,14.1643,14.2524,14.1554,14.2246,14.244,14.1607,14.1344,14.1368,14.1543,14.1283,14.1277,14.1295,14.1301,14.1301,14.1301,14.1301,14.1301,14.1301,14.1301,14.1301,14.1301,14.1301,14.1301,14.1301,14.1301,14.1301,14.1301,14.1301,14.1368,14.1435,14.1502,14.1435,14.1569,14.1301,14.1147,13.5068,13.5046,13.5068,13.5068,13.5068,13.5068,13.5068,13.4849,0.0,0.0,0.0,13.1133,13.193,13.3243,13.3819,13.4446,13.528,13.5878,13.5948,13.5596,13.6824,13.7586,13.7946,13.8715,13.9094,13.918,13.9094,13.9115,13.918,13.9115,13.9115,13.918,13.9379,13.9622,13.995,14.0701,14.1246,14.139,14.1085,14.0899,14.0899,14.0899,13.9155,13.5534,13.9289,13.8954,13.424,13.7439,13.7056,13.2162,13.1826,13.0533,12.7919,12.7718,12.8187,12.9163,12.9297,12.9163,12.8876,12.8876,12.8962,12.923,13.0619,13.015,12.7181,12.7371,12.8541,13.071,13.1283,13.2457,13.4434,13.4571,13.4795,13.5229,13.739,13.8357,13.753,13.9452,14.0847,14.0827,14.1191,14.1417,14.1182,14.1505,14.1415,14.1237,14.1171,14.1301,14.131,14.1253,14.1238,14.1244,14.1116,14.1269,14.1275,14.1182,14.1301,14.1135,14.1228,14.1301,14.1301,14.1301,14.1301,14.1033,14.1301,14.1167,14.1234,14.11,14.1301,14.1301,14.1301,14.1301,14.1234,14.0275,13.9806,13.2022,13.2022,13.2022,13.2022,0.0,13.2022,13.0501,12.7937,12.6579,12.653,12.7511,12.7725,12.8735,13.0432,13.1172,13.1766,13.2297,13.3182,13.3772,13.4135,13.5003,13.5959,13.6962,13.7171,13.7315,13.7315,13.7315,13.7315,13.7381,13.8043,13.8375,13.8375,13.9191,13.9084,13.8165,13.9719,14.0807,14.1301,14.0564,14.0141,14.0141,14.0141,13.8733,13.6003,13.8599,0.0,0.0,0.0,0.0,0.0,0.0,0.0,0.0,0.0,0.0,12.0865,11.7681,11.6183,11.7076,11.677,11.8098,12.176,12.2756,12.1878,11.8808,12.2893,12.5123,12.4172,12.757,13.0043,13.0586,13.0693,13.1364,13.2964,13.4414,13.5426,13.5641,13.7354,13.8722,13.8956,14.0139,14.1125,14.1144,14.1769,14.1711,14.0327,14.0729,14.1192,14.1296,14.1246,14.1144,14.1228,14.0693,14.0434,14.0892,14.0153,13.9135,13.9849,13.9541,13.9081,13.9021,13.9088,13.9088,13.9068,13.9021,13.9021,13.9088,13.9068,13.9088,13.9068,13.9001,13.9021,13.9021,13.8465,13.8129,12.8209,12.8188,12.8229,12.8209,12.8163,12.7494,12.4719,12.0787,12.1245,12.2373,12.377,12.3862,12.5017,12.6802,12.7709,12.8207,12.8464,12.9942,13.1082,13.1839,13.2708,13.386,13.5054,13.4899,13.4942,13.5141,13.5141,13.5361,13.5673,13.6802,13.7354,13.7421,13.8638,13.8603,13.7426,0.0,0.0,0.0,13.9088,13.8599,13.8599,13.8599,13.7593,13.5715,13.7506,0.0,13.493,13.4441,13.2918,13.0083,12.879,0.0,0.0,0.0,0.0,0.0,0.0,0.0,0.0,0.0,0.0,0.0,11.3031,11.2189,11.0631,11.758,12.0669,11.727,12.3339,12.7281,12.643,12.6618,12.7789,13.0156,13.1021,13.1685,13.2735,13.436,13.5626,13.6042,13.8206,13.9805,14.0058,14.1529,14.1517,13.9429,14.0174,14.097,14.0826,14.0314,14.0497,14.128,14.0132,13.9565,14.0851,13.9321,13.8485,13.8473,13.7893,13.7303,13.7014,13.6927,13.6831,13.6944,13.7091,13.7294,13.6954,13.7065,13.7443,13.6915,13.6942,13.6698,13.6388,13.6397,13.6501,12.2396,12.2396,12.2396,12.2396,12.2105,11.8982,11.7303,11.6693,11.8007,11.8725,11.8947,11.9251,12.0296,12.1854,12.2292,12.3023,12.405,12.5718,12.6398,12.6407,12.896,13.0477,13.1042,13.185,13.2901,13.4121,13.4101,13.4787,13.6141,13.6341,13.6407,13.6474,13.6674,13.7254,13.8146,13.7654,13.6729,13.5601,13.6587,13.7123,13.7123,13.7123,13.5179,13.151,13.4978,13.4039,12.765,13.0753,12.9058,12.1415,12.0678,11.9203,11.6303,11.4225,11.2148,0.0,10.7833,0.0,0.0,0.0,0.0,0.0,0.0,0.0,0.0,10.8783,11.1137,11.1644,11.7566,12.1727,12.2665,12.4117,12.5143,12.5708,12.8037,12.916,12.8259,13.0518,13.2779,13.411,13.4575,13.5426,13.6757,13.8228,13.9172,13.8701,13.9768,14.0212,13.9252,13.7886,13.8572,14.2638,14.0713,13.9086,14.0261,14.0505,13.9758,13.8914,13.8275,13.8103,13.6551,13.6431,13.6514,13.668,13.734,13.7906,13.704,13.7708,13.8089,13.6809,13.6527,13.6049,13.4823,13.4581,13.523,11.7753,11.7871,11.708,11.5936,11.4516,11.3149,11.2488,11.2571,11.344,11.3791,11.3808,11.4828,11.6032,11.7454,11.7643,11.8429,11.9696,12.0541,12.1729,12.3175,12.4477,12.5657,12.6645,12.7848,12.8711,12.9103,13.0181,13.0917,13.1324,13.2406,13.2788,13.2619,13.4478,13.368,13.0449,13.3004,13.4844,13.5869,13.652,13.6875,13.6875,13.6875,13.5112,13.1625,13.3368,13.2027,12.7267,12.7401,12.5706,12.1818,11.927,11.6991,11.4778,10.7171,10.3633,0.0,0.0,0.0,0.0,0.0,0.0,0.0,0.0,0.0,0.0,0.0,10.3705,10.784,11.452,11.7456,11.4617,11.5733,11.746,11.9237,11.9061,12.0309,12.4003,12.5479,12.7292,12.9764,13.0775,13.2215,13.4628,13.5576,13.6017,13.6143,13.6721,13.6879,13.6175,13.6289,13.6984,13.9055,13.8273,13.7429,13.7182,13.6561,13.6074,13.6064,13.5538,13.4823,13.413,13.3975,13.4002,13.4071,13.4581,13.4772,13.4291,13.4741,13.495,13.4166,13.3493,13.2648,13.1865,13.2391,13.323,11.3578,11.3612,11.1024,10.9087,10.7829,10.8417,10.8972,10.9432,11.0107,11.0404,11.0471,11.156,11.2143,11.2369,11.1883,11.2609,11.4184,11.489,11.6774,11.9287,11.9757,12.0427,12.1634,12.3024,12.3734,12.3863,12.5244,12.6163,12.6535,12.7655,12.7617,12.6765,12.8841,12.7267,12.2439,12.6779,13.1223,13.5266,13.5246,13.5447,13.5782,13.5447,13.4039,13.1424,13.1003,12.9595,12.7133,12.4517,12.2622,12.1482,11.7479,11.4252,11.1949,10.0787,0.0,0.0,0.0,0.0,0.0,0.0,0.0,0.0,0.0,9.2137,8.4516,0.0,9.7073,0.0,11.0176,11.3164,10.9536,10.9608,0.0,0.0,11.0859,11.1216,11.7422,11.8849,12.0573,12.3771,12.6125,12.8564,13.1417,13.2358,13.2569,13.1899,13.2112,13.2416,13.2773,13.3558,13.4343,13.5471,13.506,13.446,13.4118,13.2867,13.226,13.2841,13.2069,13.1165,13.0871,13.0801,13.0802,13.0872,13.1027,13.1205,13.0922,13.1192,13.1289,13.0779,12.9603,12.8599,12.9005,12.9982,13.0825,10.9678,10.9245,10.3153,10.1712,10.3617,10.4949,10.655,10.8295,10.975,11.0404,11.0404,11.0554,10.8773,10.5625,10.3843,0.0,10.6042,10.8915,11.1262,11.3303,11.4627,11.5382,11.5683,11.7058,11.8381,11.962,11.9789,12.1264,12.3708,12.2774,12.0745,11.8079,11.689,11.6722,11.7594,11.9354,12.3695,13.0619,13.0753,13.1424,13.2698,13.1424,13.0016,12.8492,12.7047,12.5572,12.4048,12.2439,11.9739,11.5583,11.1933,10.8073,10.3756,0.0,0.0,0.0,0.0,0.0,0.0,0.0,0.0,0.0,0.0,0.0,0.0,0.0,0.0,9.4561,10.2044,0.0,11.2034,10.9893,0.0,0.0,0.0,10.4724,10.6814,10.9597,11.2571,11.5627,0.0,0.0,12.5164,12.7863,12.8551,12.5752,12.6587,12.7993,12.9433,12.8564,12.9193,13.3344,13.1716,13.0892,13.3032,13.22,13.0781,12.9931,12.9582,12.8945,12.7626,12.7355,12.7386,12.7526,12.8586,12.912,12.7874,12.8572,12.9189,12.7469,12.6103,12.5567,12.6685,12.7264,12.7539,10.352,9.9117,9.6634,9.6619,9.8263,9.7925,10.0351,10.4514,10.3567,10.2931,10.2629,10.2044,9.9728,9.6235,9.5486,0.0,0.0,0.0,10.4321,10.7993,10.9556,11.0919,11.2263,11.3638,11.4627,11.5231,11.6035,11.7125,11.8349,11.8634,11.3366,10.2983,0.0,0.0,10.8239,11.4204,12.014,12.5684,12.7921,12.9211,12.9748,12.9211,12.7822,12.5523,12.4786,12.2975,11.9739,11.8282,11.4979,10.96,10.5555,10.1043,0.0,0.0,0.0,0.0,0.0,0.0,0.0,0.0,0.0,0.0,0.0,7.813,7.3185,0.0,0.0,0.0,8.8316,9.2392,9.8047,10.0055,0.0,0.0,0.0,0.0,0.0,0.0,0.0,10.7577,11.2132,11.6364,11.98,12.1358,12.1643,12.0442,12.1584,12.3154,12.4711,0.0,12.6507,12.9264,12.8635,12.8265,12.9491,12.7565,12.6352,12.7636,12.7091,12.5865,12.4342,12.3985,12.4038,12.4086,12.4515,12.5052,12.5571,12.3708,12.1897,12.1308,12.1419,12.1922,12.2402,12.3377,12.4383,9.5998,0.0,0.0,0.0,0.0,9.0483,9.2885,9.7411,9.5624,9.459,9.4208,9.3447,0.0,0.0,0.0,0.0,0.0,0.0,9.7994,10.2474,10.5059,10.7077,10.8626,11.042,11.1276,11.1343,11.2348,11.2495,11.1994,11.0717,10.3603,9.1436,0.0,0.0,0.0,0.0,11.5369,12.1501,12.5108,12.7218,12.8071,12.7267,12.5791,12.3695,12.2019,11.9623,11.6538,11.3581,10.969,10.4561,9.9006,0.0,0.0,0.0,0.0,0.0,0.0,0.0,0.0,0.0,0.0,0.0,0.0,0.0,0.0,0.0,0.0,0.0,0.0,0.0,8.8048,9.2491,9.4051,0.0,0.0,0.0,0.0,0.0,0.0,0.0,0.0,0.0,11.2451,11.3878,11.5222,0.0,0.0,11.9515,12.0573,12.1798,12.3094,12.464,12.4497,0.0,12.4212,12.2273,12.1346,12.32,12.3011,12.181,11.9788,12.0133,12.0418,11.9491,12.0145,12.093,12.1513,11.8016,11.5293,11.5936,11.6589,11.716,11.7743,11.9372,12.1048,0.0,0.0,0.0,0.0,0.0,0.0,0.0,0.0,8.6376,8.625,0.0,8.6115,0.0,0.0,0.0,0.0,8.3462,8.841,0.0,0.0,10.1436,10.388,10.4148,10.6831,10.8192,10.8177,10.8157,10.7105,10.4784,9.7294,0.0,0.0,0.0,0.0,0.0,0.0,10.8265,11.8187,12.1993,12.5139,12.7773,12.5224,12.3731,12.3445,11.8063,11.4963,11.4627,10.8616,10.3816,10.0719,9.2483,0.0,0.0,0.0,0.0,0.0,0.0,0.0,0.0,0.0,0.0,0.0,0.0,0.0,0.0,0.0,0.0,0.0,0.0,0.0,0.0,8.9796,0.0,0.0,0.0,0.0,0.0,0.0,0.0,0.0,0.0,0.0,10.2054,10.5622,11.0025,11.4497,0.0,0.0,0.0,0.0,11.8242,11.9824,11.873,11.7791,11.7791,11.7648,11.6994,11.5781,0.0,0.0,11.3521,11.5507,11.6435,11.3592,11.559,11.7065,11.5496,11.1166,10.919,11.1891,11.1309,11.1227,11.2665,11.4651,11.6863,0.0,0.0,0.0,0.0,0.0,0.0,0.0,0.0,0.0,7.7723,7.74,7.6717,0.0,0.0,0.0,0.0,0.0,0.0,0.0,0.0,9.3508,9.6489,9.688,10.0824,10.1726,0.0,9.8642,9.5518,0.0,0.0,0.0,0.0,0.0,0.0,0.0,0.0,10.5224,11.1888,11.9329,12.3267,12.3507,12.2507,12.1542,12.0663,11.6773,11.1544,10.4908,10.2031,9.8466,0.0,0.0,0.0,0.0,0.0,0.0,0.0,0.0,0.0,0.0,0.0,0.0,0.0,0.0,0.0,0.0,0.0,0.0,0.0,0.0,0.0,0.0,0.0,8.5828,0.0,0.0,0.0,0.0,0.0,0.0,0.0,0.0,0.0,9.3774,9.9475,10.4971,10.8626,11.1304,11.3581,11.5567,0.0,0.0,0.0,0.0,0.0,0.0,0.0,11.1452,11.194,10.822,10.5244,10.5183,10.767,10.9454,10.8373,0.0,0.0,10.2798,9.9954,9.9475,10.1687,10.1615,10.1667,10.3318,10.452,10.553,0.0,0.0,0.0,0.0,0.0,0.0,0.0,0.0,0.0,6.7648,6.7367,0.0,0.0,0.0,0.0,0.0,0.0,0.0,0.0,0.0,0.0,0.0,8.9919,9.353,0.0,0.0,0.0,0.0,0.0,0.0,0.0,0.0,0.0,0.0,0.0,0.0,10.2467,10.7859,11.6692,12.1279,12.1105,12.0118,11.8995,11.7695,11.4762,10.9289,10.0758,0.0,0.0,0.0,0.0,0.0,0.0,0.0,0.0,0.0,0.0,0.0,0.0,0.0,0.0,0.0,0.0,0.0,0.0,0.0,0.0,0.0,0.0,0.0,0.0,0.0,7.9748,0.0,0.0,0.0,0.0,0.0,0.0,0.0,0.0,0.0,0.0,0.0,9.8465,10.3715,10.6481,10.9218,11.2286,11.3142,11.3855,0.0,0.0,0.0,0.0,0.0,0.0,0.0,0.0,0.0,0.0,0.0,0.0,0.0,0.0,10.3603,9.4737,9.1821,9.1135,9.226,0.0,0.0,0.0,0.0,0.0,0.0,0.0,0.0,0.0,0.0,0.0,0.0,0.0,0.0,0.0,5.6411,0.0,0.0,5.8711,0.0,0.0,0.0,0.0,0.0,0.0,0.0,0.0,0.0,0.0,0.0,0.0,0.0,0.0,0.0,0.0,0.0,0.0,0.0,0.0,0.0,0.0,9.9786,10.5966,11.4253,11.9246,12.0756,11.8114,11.6049,11.4776,11.196,10.8032,10.2965,0.0,0.0,0.0,0.0,0.0,0.0,0.0,0.0,0.0,0.0,0.0,0.0,0.0,0.0,0.0,0.0,0.0,0.0,0.0,0.0,0.0,0.0,0.0,0.0,0.0,0.0,7.5621,7.8357,7.8925,0.0,0.0,0.0,0.0,0.0,0.0,0.0,0.0,0.0,9.9852,10.241,10.4531,10.7763,10.9394,11.036,11.0442,11.1666,11.2094,11.0727,11.1512,11.0453,0.0,0.0,0.0,0.0,0.0,0.0,0.0,0.0,0.0,0.0,0.0,0.0,0.0,0.0,0.0,0.0,0.0,0.0,0.0,0.0,0.0,0.0,0.0,0.0,0.0,0.0,0.0,0.0,0.0,0.0,0.0,0.0,0.0,0.0,0.0,0.0,0.0,0.0,0.0,0.0,0.0,0.0,0.0,0.0,0.0,0.0,0.0,0.0,0.0,0.0,0.0,0.0,0.0,0.0,9.7339,10.2625,11.2558,11.7611,11.7303,11.6397,11.5343,11.3983,11.1404,10.8124,0.0,0.0,0.0,0.0,0.0,0.0,0.0,0.0,0.0,0.0,0.0,0.0,0.0,0.0,0.0,0.0,0.0,0.0,0.0,0.0,0.0,0.0,0.0,0.0,0.0,0.0,0.0,0.0,7.8164,7.8831,7.5762,0.0,0.0,0.0,0.0,0.0,0.0,0.0,0.0,0.0,0.0,10.345,10.775,10.7695,10.7528,10.8598,10.8252,10.8098,10.8691,10.7303,10.5234,10.2247,0.0,0.0,0.0,0.0,0.0,0.0,0.0,0.0,0.0,0.0,0.0,0.0,0.0,0.0,0.0,0.0,0.0,0.0,0.0,0.0,0.0,0.0,0.0,0.0,0.0,0.0,0.0,0.0,0.0,0.0,0.0,0.0,0.0,0.0,0.0,0.0,0.0,0.0,0.0,0.0,0.0,0.0,0.0,0.0,0.0,0.0,0.0,0.0,0.0,0.0,0.0,0.0,0.0,9.5683,10.1116,11.1309,11.6214,11.5696,11.5095,11.4178,11.2958,11.0853,10.7172,0.0,0.0,0.0,0.0,0.0,0.0,0.0,0.0,0.0,0.0,0.0,0.0,0.0,0.0,0.0,0.0,0.0,0.0,0.0,0.0,0.0,0.0,0.0,0.0,0.0,0.0,0.0,0.0,7.1962,7.383,7.3772,0.0,0.0,0.0,0.0,0.0,0.0,0.0,0.0,0.0,0.0,9.8441,10.3254,10.344,0.0,0.0,10.553,10.5591,10.7752,10.5958,10.3165,9.9831,9.613,0.0,0.0,0.0,0.0,0.0,0.0,0.0,0.0,0.0,0.0,0.0,0.0,0.0,0.0,0.0,0.0,0.0,0.0,0.0,0.0,0.0,0.0,0.0,0.0,0.0,0.0,0.0,0.0,0.0,0.0,0.0,0.0,0.0,0.0,0.0,0.0,0.0,0.0,0.0,0.0,0.0,0.0,0.0,0.0,0.0,0.0,0.0,0.0,0.0,0.0,0.0,0.0,9.4523,10.0973,11.0157,11.5042,11.5445,11.4023,11.2759,11.1661,11.0231,10.5575,0.0,0.0,0.0,0.0,0.0,0.0,0.0,0.0,0.0,0.0,0.0,0.0,0.0,0.0,0.0,0.0,0.0,0.0,0.0,0.0,0.0,0.0,0.0,0.0,0.0,0.0,0.0,0.0,0.0,0.0,0.0,0.0,0.0,0.0,0.0,0.0,0.0,0.0,0.0,0.0,0.0,9.1215,9.5937,9.7582,9.9393,0.0,10.2798,10.3664,10.6632,10.5836,10.29,9.7068,0.0,0.0,0.0,0.0,0.0,0.0,0.0,0.0,0.0,0.0,0.0,0.0,0.0,0.0,0.0,0.0,0.0,0.0,0.0,0.0,0.0,0.0,0.0,0.0,0.0,0.0,0.0,0.0,0.0,0.0,0.0,0.0,0.0,0.0,0.0,0.0,0.0,0.0,0.0,0.0,0.0,0.0,0.0,0.0,0.0,0.0,0.0,0.0,0.0,0.0,0.0,0.0,0.0,0.0,9.9312,10.8598,11.3385,11.3429,11.3097,11.2745,11.2405,11.0121,0.0,0.0,0.0,0.0,0.0,0.0,0.0,0.0,0.0,0.0,0.0,0.0,0.0,0.0,0.0,0.0,0.0,0.0,0.0,0.0,0.0,0.0,0.0,0.0,0.0,0.0,0.0,5.3557,0.0,0.0,0.0,0.0,0.0,0.0,0.0,0.0,0.0,0.0,0.0,0.0,0.0,0.0,9.1417,9.6096,9.4808,9.456,0.0,0.0,9.5283,9.7444,9.7278,9.5888,0.0,0.0,0.0,0.0,0.0,0.0,0.0,0.0,0.0,0.0,0.0,0.0,0.0,0.0,0.0,0.0,0.0,0.0,0.0,0.0,0.0,0.0,0.0,0.0,0.0,0.0,0.0,0.0,0.0,0.0,0.0,0.0,0.0,0.0,0.0,0.0,0.0,0.0,0.0,0.0,0.0,0.0,0.0,0.0,0.0,0.0,0.0,0.0,0.0,0.0,0.0,0.0,0.0,0.0,8.9984,9.761,10.5601,11.0738,11.2605,11.2094,11.1737,11.1726,10.9574,10.469,0.0,0.0,0.0,0.0,0.0,0.0,0.0,0.0,0.0,0.0,0.0,0.0,0.0,0.0,0.0,0.0,0.0,0.0,0.0,0.0,0.0,0.0,0.0,0.0,0.0,0.0,0.0,0.0,0.0,0.0,0.0,0.0,0.0,0.0,0.0,0.0,0.0,0.0,0.0,0.0,0.0,0.0,9.2302,8.9819,0.0,0.0,0.0,8.9644,9.2609,0.0,0.0,0.0,0.0,0.0,0.0,0.0,0.0,0.0,0.0,0.0,0.0,0.0,0.0,0.0,0.0,0.0,0.0,0.0,0.0,0.0,0.0,0.0,0.0,0.0,0.0,0.0,0.0,0.0,0.0,0.0,0.0,0.0,0.0,0.0,0.0,0.0,0.0,0.0,0.0,0.0,0.0,0.0,0.0,0.0,0.0,0.0,0.0,0.0,0.0,0.0,0.0,0.0,0.0,0.0,0.0,0.0,9.5826,10.2533,10.8027,11.188,11.0799,11.0157,11.0085,10.8455,10.3257,0.0,0.0,0.0,0.0,0.0,0.0,0.0,0.0,0.0,0.0,0.0,0.0,0.0,0.0,0.0,0.0,0.0,0.0,0.0,0.0,0.0,0.0,0.0,0.0,0.0,0.0,0.0,0.0,0.0,0.0,0.0,0.0,0.0,0.0,0.0,0.0,0.0,0.0,0.0,0.0,0.0,8.522,8.6967,8.4334,8.372,0.0,0.0,8.5467,8.9814,8.786,0.0,0.0,0.0,0.0,0.0,0.0,0.0,0.0,0.0,0.0,0.0,0.0,0.0,0.0,0.0,0.0,0.0,0.0,0.0,0.0,0.0,0.0,0.0,0.0,0.0,0.0,0.0,0.0,0.0,0.0,0.0,0.0,0.0,0.0,0.0,0.0,0.0,0.0,0.0,0.0,0.0,0.0,0.0,0.0,0.0,0.0,0.0,0.0,0.0,0.0,0.0,0.0,0.0,0.0,0.0,0.0,9.4389,10.3114,10.812,10.8976,10.8691,10.8537,10.8548,10.5805,10.1096,0.0,0.0,0.0,0.0,0.0,0.0,0.0,0.0,0.0,0.0,0.0,0.0,0.0,0.0,0.0,0.0,0.0,0.0,0.0,0.0,0.0,0.0,0.0,0.0,0.0,0.0,0.0,0.0,0.0,0.0,0.0,0.0,0.0,0.0,0.0,0.0,0.0,0.0,0.0,0.0,0.0,8.2364,8.533,8.2765,0.0,0.0,0.0,0.0,8.3856,8.1834,0.0,0.0,0.0,0.0,0.0,0.0,0.0,0.0,0.0,0.0,0.0,0.0,0.0,0.0,0.0,0.0,0.0,0.0,0.0,0.0,0.0,0.0,0.0,0.0,0.0,0.0,0.0,0.0,0.0,0.0,0.0,0.0,0.0,0.0,0.0,0.0,0.0,0.0,0.0,0.0,0.0,0.0,0.0,0.0,0.0,0.0,0.0,0.0,0.0,0.0,0.0,0.0,0.0,0.0,0.0,0.0,9.4846,10.0688,10.5041,10.7906,10.7335,10.66,10.5815,10.3522,9.8609,0.0,0.0,0.0,0.0,0.0,0.0,0.0,0.0,0.0,0.0,0.0,0.0,0.0,0.0,0.0,0.0,0.0,0.0,0.0,0.0,0.0,0.0,0.0,0.0,0.0,0.0,0.0,0.0,0.0,0.0,0.0,0.0,0.0,0.0,0.0,0.0,0.0,0.0,0.0,0.0,7.7373,8.0126,8.2528,0.0,0.0,0.0,0.0,0.0,0.0,7.6258,7.3473,0.0,0.0,0.0,0.0,0.0,0.0,0.0,0.0,0.0,0.0,0.0,0.0,0.0,0.0,0.0,0.0,0.0,0.0,0.0,0.0,0.0,0.0,0.0,0.0,0.0,0.0,0.0,0.0,0.0,0.0,0.0,0.0,0.0,0.0,0.0,0.0,0.0,0.0,0.0,0.0,0.0,0.0,0.0,0.0,0.0,0.0,0.0,0.0,0.0,0.0,0.0,0.0,0.0,0.0,0.0,9.4284,9.6763,10.083,10.6692,10.5387,10.4092,10.3012,10.1045,9.555,8.6533,0.0,0.0,0.0,0.0,0.0,0.0,0.0,0.0,0.0,0.0,0.0,0.0,0.0,0.0,0.0,0.0,0.0,0.0,0.0,0.0,0.0,0.0,0.0,0.0,0.0,0.0,0.0,0.0,0.0,0.0,0.0,0.0,0.0,0.0,0.0,0.0,0.0,0.0,0.0,7.4713,7.7913,0.0,0.0,0.0,0.0,0.0,0.0,0.0,0.0,6.9685,0.0,0.0,0.0,0.0,0.0,0.0,0.0,0.0,0.0,0.0,0.0,0.0,0.0,0.0,0.0,0.0,0.0,0.0,0.0,0.0,0.0,0.0,0.0,0.0,0.0,0.0,0.0,0.0,0.0,0.0,0.0,0.0,0.0,0.0,0.0,0.0,0.0,0.0,0.0,0.0,0.0,0.0,0.0,0.0,0.0,0.0,0.0,0.0,0.0,0.0,0.0,0.0,0.0,0.0,0.0,0.0,9.183,9.7029,10.1829,10.0616,10.0321,10.132,9.7253,9.117,8.3268,0.0,0.0,0.0,0.0,0.0,0.0,0.0,0.0,0.0,0.0,0.0,0.0,0.0,0.0,0.0,0.0,0.0,0.0,0.0,0.0,0.0,0.0,0.0,0.0,0.0,0.0,0.0,0.0,0.0,0.0,0.0,0.0,0.0,0.0,0.0,0.0,0.0,0.0,6.1261,6.8877,0.0,0.0,0.0,0.0,0.0,0.0,0.0,0.0,7.1534,0.0,0.0,0.0,0.0,0.0,0.0,0.0,0.0,0.0,0.0,0.0,0.0,0.0,0.0,0.0,0.0,0.0,0.0,0.0,0.0,0.0,0.0,0.0,0.0,0.0,0.0,0.0,0.0,0.0,0.0,0.0,0.0,0.0,0.0,0.0,0.0,0.0,0.0,0.0,0.0,0.0,0.0,0.0,0.0,0.0,0.0,0.0,0.0,0.0,0.0,0.0,0.0,0.0,0.0,0.0,0.0,0.0,0.0,9.4951,9.9607,9.9098,9.8252,9.71,9.183,8.6835,0.0,0.0,0.0,0.0,0.0,0.0,0.0,0.0,0.0,0.0,0.0,0.0,0.0,0.0,0.0,0.0,0.0,0.0,0.0,0.0,0.0,0.0,0.0,0.0,0.0,0.0,0.0,0.0,0.0,0.0,0.0,0.0,0.0,0.0,0.0,0.0,0.0,0.0,0.0,0.0,0.0,0.0,0.0,0.0,0.0,0.0,0.0,0.0,0.0,0.0,0.0,0.0,0.0,0.0,0.0,0.0,0.0,0.0,0.0,0.0,0.0,0.0,0.0,0.0,0.0,0.0,0.0,0.0,0.0,0.0,0.0,0.0,0.0,0.0,0.0,0.0,0.0,0.0,0.0,0.0,0.0,0.0,0.0,0.0,0.0,0.0,0.0,0.0,0.0,0.0,0.0,0.0,0.0,0.0,0.0,0.0,0.0,0.0,0.0,0.0,0.0,0.0,0.0,0.0,0.0,0.0,0.0,0.0,9.2873,9.7529,9.7386,9.6163,9.389,8.7478,8.3142,0.0,0.0,0.0,0.0,0.0,0.0,0.0,0.0,0.0,0.0,0.0,0.0,0.0,0.0,0.0,0.0,0.0,0.0,0.0,0.0,0.0,0.0,0.0,0.0,0.0,0.0,0.0,0.0,0.0,0.0,0.0,0.0,0.0,0.0,0.0,0.0,0.0,0.0,0.0,0.0,0.0,0.0,0.0,0.0,0.0,0.0,0.0,0.0,6.6036,0.0,0.0,0.0,0.0,0.0,0.0,0.0,0.0,0.0,0.0,0.0,0.0,0.0,0.0,0.0,0.0,0.0,0.0,0.0,0.0,0.0,0.0,0.0,0.0,0.0,0.0,0.0,0.0,0.0,0.0,0.0,0.0,0.0,0.0,0.0,0.0,0.0,0.0,0.0,0.0,0.0,0.0,0.0,0.0,0.0,0.0,0.0,0.0,0.0,0.0,0.0,0.0,0.0,0.0,0.0,0.0,0.0,0.0,0.0,8.9672,9.4237,9.3015,9.2811,9.3605,8.6479,8.1056,0.0,0.0,0.0,0.0,0.0,0.0,0.0,0.0,0.0,0.0,0.0,0.0,0.0,0.0,0.0,0.0,0.0,0.0,0.0,0.0,0.0,0.0,0.0,0.0,0.0,0.0,0.0,0.0,0.0,0.0,0.0,0.0,0.0,0.0,0.0,0.0,0.0,0.0,0.0,0.0,0.0,0.0,0.0,0.0,0.0,0.0,0.0,0.0,0.0,0.0,0.0,0.0,0.0,0.0,0.0,0.0,0.0,0.0,0.0,0.0,0.0,0.0,0.0,0.0,0.0,0.0,0.0,0.0,0.0,0.0,0.0,0.0,0.0,0.0,0.0,0.0,0.0,0.0,0.0,0.0,0.0,0.0,0.0,0.0,0.0,0.0,0.0,0.0,0.0,0.0,0.0,0.0,0.0,0.0,0.0,0.0,0.0,0.0,0.0,0.0,0.0,0.0,0.0,0.0,0.0,0.0,0.0,0.0,8.4195,8.9681,9.0028,9.01,8.9823,8.2253,7.7132,0.0,0.0,0.0,0.0,0.0,0.0,0.0,0.0,0.0,0.0,0.0,0.0,0.0,0.0,0.0,0.0,0.0,0.0,0.0,0.0,0.0,0.0,0.0,0.0,0.0,0.0,0.0,0.0,0.0,0.0,0.0,0.0,0.0,0.0,0.0,0.0,0.0,0.0,0.0,0.0,0.0,0.0,0.0,0.0,0.0,0.0,0.0,0.0,0.0,0.0,0.0,0.0,0.0,0.0,0.0,0.0,0.0,0.0,0.0,0.0,0.0,0.0,0.0,0.0,0.0,0.0,0.0,0.0,0.0,0.0,0.0,0.0,0.0,0.0,0.0,0.0,0.0,0.0,0.0,0.0,0.0,0.0,0.0,0.0,0.0,0.0,0.0,0.0,0.0,0.0,0.0,0.0,0.0,0.0,0.0,0.0,0.0,0.0,0.0,0.0,0.0,0.0,0.0,0.0,0.0,0.0,0.0,0.0,0.0,8.4884,8.6978,8.6835,8.4393,7.8059,7.3286,0.0,0.0,0.0,0.0,0.0,0.0,0.0,0.0,0.0,0.0,0.0,0.0,0.0,0.0,0.0,0.0,0.0,0.0,0.0,0.0,0.0,0.0,0.0,0.0,0.0,0.0,0.0,0.0,0.0,0.0,0.0,0.0,0.0,0.0,0.0,0.0,0.0,0.0,0.0,0.0,0.0,0.0,0.0,0.0,0.0,0.0,0.0,0.0,0.0,0.0,0.0,0.0,0.0,0.0,0.0,0.0,0.0,0.0,0.0,0.0,0.0,0.0,0.0,0.0,0.0,0.0,0.0,0.0,0.0,0.0,0.0,0.0,0.0,0.0,0.0,0.0,0.0,0.0,0.0,0.0,0.0,0.0,0.0,0.0,0.0,0.0,0.0,0.0,0.0,0.0,0.0,0.0,0.0,0.0,0.0,0.0,0.0,0.0,0.0,0.0,0.0,0.0,0.0,0.0,0.0,0.0,0.0,0.0,0.0,8.031,8.3268,8.2642,7.8281,7.4792,7.0146,0.0,0.0,0.0,0.0,0.0,0.0,0.0,0.0,0.0,0.0,0.0,0.0,0.0,0.0,0.0,0.0,0.0,0.0,0.0,0.0,0.0,0.0,0.0,0.0,0.0,0.0,0.0,0.0,0.0,0.0,0.0,0.0,0.0,0.0,0.0,0.0,0.0,0.0,0.0,0.0,0.0,0.0,0.0,0.0,0.0,0.0,0.0,0.0,0.0,0.0,0.0,0.0,0.0,0.0,0.0,0.0,0.0,0.0,0.0,0.0,0.0,0.0,0.0,0.0,0.0,0.0,0.0,0.0,0.0,0.0,0.0,0.0,0.0,0.0,0.0,0.0,0.0,0.0,0.0,0.0,0.0,0.0,0.0,0.0,0.0,0.0,0.0,0.0,0.0,0.0,0.0,0.0,0.0,0.0,0.0,0.0,0.0,0.0,0.0,0.0,0.0,0.0,0.0,0.0,0.0,0.0,0.0,0.0,0.0,6.984,7.3635,7.6362,7.7504,7.0632,6.6708,6.6104,0.0,0.0,0.0,0.0,0.0,0.0,0.0,0.0,0.0,0.0,0.0,0.0,0.0,0.0,0.0,0.0,0.0,0.0,0.0,0.0,0.0,0.0,0.0,0.0,0.0,0.0,0.0,0.0,0.0,0.0,0.0,0.0,0.0,0.0,0.0,0.0,0.0,0.0,0.0,0.0,0.0,0.0,0.0,0.0,0.0,0.0,0.0,0.0,0.0,0.0,0.0,0.0,0.0,0.0,0.0,0.0,0.0,0.0,0.0,0.0,0.0,0.0,0.0,0.0,0.0,0.0,0.0,0.0,0.0,0.0,0.0,0.0,0.0,0.0,0.0,0.0,0.0,0.0,0.0,0.0,0.0,0.0,0.0,0.0,0.0,0.0,0.0,0.0,0.0,0.0,0.0,0.0,0.0,0.0,0.0,0.0,0.0,0.0,0.0,0.0,0.0,0.0,0.0,0.0,0.0,0.0,0.0,0.0,6.421,6.8783,7.2151,7.3579,6.7486,6.3562,0.0,0.0,0.0,0.0,0.0,0.0,0.0,0.0,0.0,0.0,0.0,0.0,0.0,0.0,0.0,0.0,0.0,0.0,0.0,0.0,0.0,0.0,0.0,0.0,0.0,0.0,0.0,0.0,0.0,0.0,0.0,0.0,0.0,0.0,0.0,0.0,0.0,0.0,0.0,0.0,0.0,0.0,0.0,0.0,0.0,0.0,0.0,0.0,0.0,0.0,0.0,0.0,0.0,0.0,0.0,0.0,0.0,0.0,0.0,0.0,0.0,0.0,0.0,0.0,0.0,0.0,0.0,0.0,0.0,0.0,0.0,0.0,0.0,0.0,0.0,0.0,0.0,0.0,0.0,0.0,0.0,0.0,0.0,0.0,0.0,0.0,0.0,0.0,0.0,0.0,0.0,0.0,0.0,0.0,0.0,0.0,0.0,0.0,0.0,0.0,0.0,0.0,0.0,0.0,0.0,0.0,0.0,0.0,5.6434,6.5216,7.0017,7.0445,6.6156,6.5722,6.0661,0.0,0.0,0.0,0.0,0.0,0.0,0.0,0.0,0.0,0.0,0.0,0.0,0.0,0.0,0.0,0.0,0.0,0.0,0.0,0.0,0.0,0.0,0.0,0.0,0.0,0.0,0.0,0.0,0.0,0.0,0.0,0.0,0.0,0.0,0.0,0.0,0.0,0.0,0.0,0.0,0.0,0.0,0.0,0.0,0.0,0.0,0.0,0.0,0.0,0.0,0.0,0.0,0.0,0.0,0.0,0.0,0.0,0.0,0.0,0.0,0.0,0.0,0.0,0.0,0.0,0.0,0.0,0.0,0.0,0.0,0.0,0.0,0.0,0.0,0.0,0.0,0.0,0.0,0.0,0.0,0.0,0.0,0.0,0.0,0.0,0.0,0.0,0.0,0.0,0.0,0.0,0.0,0.0,0.0,0.0,0.0,0.0,0.0,0.0,0.0,0.0,0.0,0.0,0.0,0.0,0.0,0.0,0.0,0.0,5.622,0.0,6.5657,0.0,6.4366,6.04,0.0,0.0,0.0,0.0,0.0,0.0,0.0,0.0,0.0,0.0,0.0,0.0,0.0,0.0,0.0,0.0,0.0,0.0,0.0,0.0,0.0,0.0,0.0,0.0,0.0,0.0,0.0,0.0,0.0,0.0,0.0,0.0,0.0,0.0,0.0,0.0,0.0,0.0,0.0,0.0,0.0,0.0,0.0,0.0,0.0,0.0,0.0,0.0,0.0,0.0,0.0,0.0,0.0,0.0,0.0,0.0,0.0,0.0,0.0,0.0,0.0,0.0,0.0,0.0,0.0,0.0,0.0,0.0,0.0,0.0,0.0,0.0,0.0,0.0,0.0,0.0,0.0,0.0,0.0,0.0,0.0,0.0,0.0,0.0,0.0,0.0,0.0,0.0,0.0,0.0,0.0,0.0,0.0,0.0,0.0,0.0,0.0,0.0,0.0,0.0,0.0,0.0,0.0,0.0,0.0,0.0,0.0,0.0,0.0,5.5017,5.6424,6.081,6.8217,6.2926,6.0095,0.0,0.0,0.0,0.0,0.0,0.0,0.0,0.0,0.0,0.0,0.0,0.0,0.0,0.0,0.0,0.0,0.0,0.0,0.0,0.0,0.0,0.0,0.0,0.0,0.0,0.0,0.0,0.0,0.0,0.0,0.0,0.0,0.0,0.0,0.0,0.0,0.0,0.0,0.0,0.0,0.0,0.0,0.0,0.0,0.0,0.0,0.0,0.0,0.0,0.0,0.0,0.0,0.0,0.0,0.0,0.0,0.0,0.0,0.0,0.0,0.0,0.0,0.0,0.0,0.0,0.0,0.0,0.0,0.0,0.0,0.0,0.0,0.0,0.0,0.0,0.0,0.0,0.0,0.0,0.0,0.0,0.0,0.0,0.0,0.0,0.0,0.0,0.0,0.0,0.0,0.0,0.0,0.0,0.0,0.0,0.0,0.0,0.0,0.0,0.0,0.0,0.0,0.0,0.0,0.0,0.0,0.0,0.0,0.0,5.9866,5.6396,5.6511,6.0985,6.1068,5.9722,0.0,0.0,0.0,0.0,0.0,0.0,0.0,0.0,0.0,0.0,0.0,0.0,0.0,0.0,0.0,0.0,0.0,0.0,0.0,0.0,0.0,0.0,0.0,0.0,0.0,0.0,0.0,0.0,0.0,0.0,0.0,0.0,0.0,0.0,0.0,0.0,0.0,0.0,0.0,0.0,0.0,0.0,0.0,0.0,0.0,0.0,0.0,0.0,0.0,0.0,0.0,0.0,0.0,0.0,0.0,0.0,0.0,0.0,0.0,0.0,0.0,0.0,0.0,0.0,0.0,0.0,0.0,0.0,0.0,0.0,0.0,0.0,0.0,0.0,0.0,0.0,0.0,0.0,0.0,0.0,0.0,0.0,0.0,0.0,0.0,0.0,0.0,0.0,0.0,0.0,0.0,0.0,0.0,0.0,0.0,0.0,0.0,0.0,0.0,0.0,0.0,0.0,0.0,0.0,0.0,0.0,0.0,0.0,0.0,0.0,5.2996,5.4731,5.5973,5.6116,5.627,5.6773,0.0,0.0,0.0,0.0,0.0,0.0,0.0,0.0,0.0,0.0,0.0,0.0,0.0,0.0,0.0,0.0,0.0,0.0,0.0,0.0,0.0,0.0,0.0,0.0,0.0,0.0,0.0,0.0,0.0,0.0,0.0,0.0,0.0,0.0,0.0,0.0,0.0,0.0,0.0,0.0,0.0,0.0,0.0,0.0,0.0,0.0,0.0,0.0,0.0,0.0,0.0,0.0,0.0,0.0,0.0,0.0,0.0,0.0,0.0,0.0,0.0,0.0,0.0,0.0,0.0,0.0,0.0,0.0,0.0,0.0,0.0,0.0,0.0,0.0,0.0,0.0,0.0,0.0,0.0,0.0,0.0,0.0,0.0,0.0,0.0,0.0,0.0,0.0,0.0,0.0,0.0,0.0,0.0,0.0,0.0,0.0,0.0,0.0,0.0,0.0,0.0,0.0,0.0,0.0,0.0,0.0,0.0,0.0,0.0,0.0,5.2296,5.4231,5.4302,5.5077,0.0,0.0,0.0,0.0,0.0,0.0,0.0,0.0,0.0,0.0,0.0,0.0,0.0,0.0,0.0,0.0,0.0,0.0,0.0,0.0,0.0,0.0,0.0,0.0,0.0,0.0,0.0,0.0,0.0,0.0,0.0,0.0,0.0,0.0,0.0,0.0,0.0,0.0,0.0,0.0,0.0,0.0,0.0,0.0,0.0,0.0,0.0,0.0,0.0,0.0,0.0,0.0,0.0,0.0,0.0,0.0,0.0,0.0,0.0,0.0,0.0,0.0,0.0,0.0,0.0,0.0,0.0,0.0,0.0,0.0,0.0,0.0,0.0,0.0,0.0,0.0,0.0,0.0,0.0,0.0,0.0,0.0,0.0,0.0,0.0,0.0,0.0,0.0,0.0,0.0,0.0,0.0,0.0,0.0,0.0,0.0,0.0,0.0,0.0,0.0,0.0,0.0,0.0,0.0,0.0,0.0,0.0,0.0,0.0,0.0,0.0,4.9847,5.3838,5.4618,0.0,5.6233,0.0,0.0,0.0,0.0,0.0,0.0,0.0,0.0,0.0,0.0,0.0,0.0,0.0,0.0,0.0,0.0,0.0,0.0,0.0,0.0,0.0,0.0,0.0,0.0,0.0,0.0,0.0,0.0,0.0,0.0,0.0,0.0,0.0,0.0,0.0,0.0,0.0,0.0,0.0,0.0,0.0,0.0,0.0,0.0,0.0,0.0,0.0,0.0,0.0,0.0,0.0,0.0,0.0,0.0,0.0,0.0,0.0,0.0,0.0,0.0,0.0,0.0,0.0,0.0,0.0,0.0,0.0,0.0,0.0,0.0,0.0,0.0,0.0,0.0,0.0,0.0,0.0,0.0,0.0,0.0,0.0,0.0,0.0,0.0,0.0,0.0,0.0,0.0,0.0,0.0,0.0,0.0,0.0,0.0,0.0,0.0,0.0,0.0,0.0,0.0,0.0,0.0,0.0,0.0,0.0,0.0,0.0,0.0,0.0,0.0,0.0,0.0,5.4384,5.4848,5.0125,0.0,0.0,0.0,0.0,0.0,0.0,0.0,0.0,0.0,0.0,0.0,0.0,0.0,0.0,0.0,0.0,0.0,0.0,0.0,0.0,0.0,0.0,0.0,0.0,0.0,0.0,0.0,0.0,0.0,0.0,0.0,0.0,0.0,0.0,0.0,0.0,0.0,0.0,0.0,0.0,0.0,0.0,0.0,0.0,0.0,0.0,0.0,0.0,0.0,0.0,0.0,0.0,0.0,0.0,0.0,0.0,0.0,0.0,0.0,0.0,0.0,0.0,0.0,0.0,0.0,0.0,0.0,0.0,0.0,0.0,0.0,0.0,0.0,0.0,0.0,0.0,0.0,0.0,0.0,0.0,0.0,0.0,0.0,0.0,0.0,0.0,0.0,0.0,0.0,0.0,0.0,0.0,0.0,0.0,0.0,0.0,0.0,0.0,0.0,0.0,0.0,0.0,0.0,0.0,0.0,0.0,0.0,0.0,0.0,0.0,5.135,4.8201,5.3072,5.3308,4.827,0.0,0.0,0.0,0.0,0.0,0.0,0.0,0.0,0.0,0.0,0.0,0.0,0.0,0.0,0.0,0.0,0.0,0.0,0.0,0.0,0.0,0.0,0.0,0.0,0.0,0.0,0.0,0.0,0.0,0.0,0.0,0.0,0.0,0.0,0.0,0.0,0.0,0.0,0.0,0.0,0.0,0.0,0.0,0.0,0.0,0.0,0.0,0.0,0.0,0.0,0.0,0.0,0.0,0.0,0.0,0.0,0.0,0.0,0.0,0.0,0.0,0.0,0.0,0.0,0.0,0.0,0.0,0.0,0.0,0.0,0.0,0.0,0.0,0.0,0.0,0.0,0.0,0.0,0.0,0.0,0.0,0.0,0.0,0.0,0.0,0.0,0.0,0.0,0.0,0.0,0.0,0.0,0.0,0.0,0.0,0.0,0.0,0.0,0.0,0.0,0.0,0.0,0.0,0.0,0.0,0.0,0.0,0.0,0.0,0.0,0.0,0.0,0.0,0.0,4.899,0.0,0.0,0.0,0.0,0.0,0.0,0.0,0.0,0.0,0.0,0.0,0.0,0.0,0.0,0.0,0.0,0.0,0.0,0.0,0.0,0.0,0.0,0.0,0.0,0.0,0.0,0.0,0.0,0.0,0.0,0.0,0.0,0.0,0.0,0.0,0.0,0.0,0.0,0.0,0.0,0.0,0.0,0.0,0.0,0.0,0.0,0.0,0.0,0.0,0.0,0.0,0.0,0.0,0.0,0.0,0.0,0.0,0.0,0.0,0.0,0.0,0.0,0.0,0.0,0.0,0.0,0.0,0.0,0.0,0.0,0.0,0.0,0.0,0.0,0.0,0.0,0.0,0.0,0.0,0.0,0.0,0.0,0.0,0.0,0.0,0.0,0.0,0.0,0.0,0.0,0.0,0.0,0.0,0.0,0.0,0.0,0.0,0.0,0.0,0.0,0.0,0.0,0.0,0.0,0.0,0.0,0.0,0.0,0.0,0.0,0.0,0.0,0.0,0.0,0.0,0.0,0.0,0.0,0.0,0.0,0.0,0.0,0.0,0.0,0.0,0.0,0.0,0.0,0.0,0.0,0.0,0.0,0.0,0.0,0.0,0.0,0.0,0.0,0.0,0.0,0.0,0.0,0.0,0.0,0.0,0.0,0.0,0.0,0.0,0.0,0.0,0.0,0.0,0.0,0.0,0.0,0.0,0.0,0.0,0.0,0.0,0.0,0.0,0.0,0.0,0.0,0.0,0.0,0.0,0.0,0.0,0.0,0.0,0.0,0.0,0.0,0.0,0.0,0.0,0.0,0.0,0.0,0.0,0.0,0.0,0.0,0.0,0.0,0.0,0.0,0.0,0.0,0.0,0.0,0.0,0.0,0.0,0.0,0.0,0.0,0.0,0.0,0.0,0.0,0.0,0.0,0.0,0.0,0.0,0.0,0.0,0.0,0.0,0.0,0.0,0.0,0.0,0.0,0.0,0.0,0.0,0.0,0.0,0.0,0.0,0.0,0.0,0.0,0.0,0.0,0.0,0.0,0.0,0.0,0.0,0.0,0.0,0.0,0.0,0.0,0.0,0.0,0.0,0.0,0.0,0.0,0.0,0.0,0.0,0.0,0.0,0.0,0.0,0.0,0.0,0.0,0.0,0.0,0.0,0.0,0.0,0.0,0.0,0.0,0.0,0.0,0.0,0.0,0.0,0.0,0.0,0.0,0.0,0.0,0.0,0.0,0.0,0.0,0.0,0.0,0.0,0.0,0.0,0.0,0.0,0.0,0.0,0.0,0.0,0.0,0.0,0.0,0.0,0.0,0.0,0.0,0.0,0.0,0.0,0.0,0.0,0.0,0.0,0.0,0.0,0.0,0.0,0.0,0.0,0.0,0.0,0.0,0.0,0.0,0.0,0.0,0.0,0.0,0.0,0.0,0.0,0.0,0.0,0.0,0.0,0.0,0.0,0.0,0.0,0.0,0.0,0.0,0.0,0.0,0.0,0.0,0.0,0.0,0.0,0.0,0.0,0.0,0.0,0.0,0.0,0.0,0.0,0.0,0.0,0.0,0.0,0.0,0.0,0.0,0.0,0.0,0.0,0.0,0.0,0.0,0.0,0.0,0.0,0.0,0.0,0.0,0.0,0.0,0.0,0.0,0.0,0.0,0.0,0.0,0.0,0.0,0.0,0.0,0.0,0.0,0.0,0.0,0.0,0.0,0.0,0.0,0.0,0.0,0.0,0.0,0.0,0.0,0.0,0.0,0.0,0.0,0.0,0.0,0.0,0.0,0.0,0.0,0.0,0.0,0.0,0.0,0.0,0.0,0.0,0.0,0.0,0.0,0.0,0.0,0.0,0.0,0.0,0.0,0.0,0.0,0.0,0.0,0.0,0.0,0.0,0.0,0.0,0.0,0.0,0.0,0.0,0.0,0.0,0.0,0.0,0.0,0.0,0.0,0.0,0.0,0.0,0.0,0.0,0.0,0.0,0.0,0.0,0.0,0.0,0.0,0.0,0.0,0.0,0.0,0.0,0.0,0.0,0.0,0.0,0.0,0.0,0.0,0.0,0.0,0.0,0.0,0.0,0.0,0.0,0.0,0.0,0.0,0.0,0.0,0.0,0.0,0.0,0.0,0.0,0.0,0.0,0.0,0.0,0.0,0.0,0.0,0.0,0.0,0.0,0.0,0.0,0.0,0.0,0.0,0.0,0.0,0.0,0.0,0.0,0.0,0.0,0.0,0.0,0.0,0.0,0.0,0.0,0.0,0.0,0.0,0.0,0.0,0.0,0.0,0.0,0.0,0.0,0.0,0.0,0.0,0.0,0.0,0.0,0.0,0.0,0.0,0.0,0.0,0.0,0.0,0.0,0.0,0.0,0.0,0.0,0.0,0.0,0.0,0.0,0.0,0.0,0.0,0.0,0.0,0.0,0.0,0.0,0.0,0.0,0.0,0.0,0.0,0.0,0.0,0.0,0.0,0.0,0.0,0.0,0.0,0.0,0.0,0.0,0.0,0.0,0.0,0.0,0.0,0.0,0.0,0.0,0.0,0.0,0.0,0.0,0.0,0.0,0.0,0.0,0.0,0.0,0.0,0.0,0.0,0.0,0.0,0.0,0.0,0.0,0.0,0.0,0.0,0.0,0.0,0.0,0.0,0.0,0.0,0.0,0.0,0.0,0.0,0.0,0.0,0.0,0.0,0.0,0.0,0.0,0.0,0.0,0.0,0.0,0.0,0.0,0.0,0.0,0.0,0.0,0.0,0.0,0.0,0.0,0.0,0.0,0.0,0.0,0.0,0.0,0.0,0.0,0.0,0.0,0.0,0.0,0.0,0.0,0.0,0.0,0.0,0.0,0.0,0.0,0.0,0.0,0.0,0.0,0.0,0.0,0.0,0.0,0.0,0.0,0.0,0.0,0.0,0.0,0.0,0.0,0.0,0.0,0.0,0.0,0.0,0.0,0.0,0.0,0.0,0.0,0.0,0.0,0.0,0.0,0.0,0.0,0.0,0.0,0.0,0.0,0.0,0.0,0.0,0.0,0.0,0.0,0.0,0.0,0.0,0.0,0.0,0.0,0.0,0.0,0.0,0.0,0.0,0.0,0.0,0.0,0.0,0.0,0.0,0.0,0.0,0.0,0.0,0.0,0.0,0.0,0.0,0.0,0.0,0.0,0.0,0.0,0.0,0.0,0.0,0.0,0.0,0.0,0.0,0.0,0.0,0.0,0.0,0.0,0.0,0.0,0.0,0.0,0.0,0.0,0.0,0.0,0.0,0.0,0.0,0.0,0.0,0.0,0.0,0.0,0.0,0.0,0.0,0.0,0.0,0.0,0.0,0.0,0.0,0.0,0.0,0.0,0.0,0.0,0.0,0.0,0.0,0.0,0.0,0.0,0.0,0.0,0.0,0.0,0.0,0.0,0.0,0.0,0.0,0.0,0.0,0.0,0.0,0.0,0.0,0.0,0.0,0.0,0.0,0.0,0.0,0.0,0.0,0.0,0.0,0.0,0.0,0.0,0.0,0.0,0.0,0.0,0.0,0.0,0.0,0.0,0.0,0.0,0.0,0.0,0.0,0.0,0.0,0.0,0.0,0.0,0.0,0.0,0.0,0.0,0.0,0.0,0.0,0.0,0.0,0.0,0.0,0.0,0.0,0.0,0.0,0.0,0.0,0.0,0.0,0.0,0.0,0.0,0.0,0.0,0.0,0.0,0.0,0.0,0.0,0.0,0.0,0.0,0.0,0.0,0.0,0.0,0.0,0.0,0.0,0.0,0.0,0.0,0.0,0.0,0.0,0.0,0.0,0.0,0.0,0.0,0.0,0.0,0.0,0.0,0.0,0.0,0.0,0.0,0.0,0.0,0.0,0.0,0.0,0.0,0.0,0.0,0.0,0.0,0.0,0.0,0.0,0.0,0.0,0.0,0.0,0.0,0.0,0.0,0.0,0.0,0.0,0.0,0.0,0.0,0.0,0.0,0.0,0.0,0.0,0.0,0.0,0.0,0.0,0.0,0.0,0.0,0.0,0.0,0.0,0.0,0.0,0.0,0.0,0.0,0.0,0.0,0.0,0.0,0.0,0.0,0.0,0.0,0.0,0.0,0.0,0.0,0.0,0.0,0.0,0.0,0.0,0.0,0.0,0.0,0.0,0.0,0.0,0.0,0.0,0.0,0.0,0.0,0.0,0.0,0.0,0.0,0.0,0.0,0.0,0.0,0.0,0.0,0.0,0.0,0.0,0.0,0.0,0.0,0.0,0.0,0.0,0.0,0.0,0.0,0.0,0.0,0.0,0.0,0.0,0.0,0.0,0.0,0.0,0.0,0.0,0.0,0.0,0.0,0.0,0.0,0.0,0.0,0.0,0.0,0.0,0.0,0.0,0.0,0.0]}],[{"header":{"parameterUnit":"kt","parameterCategory":2,"dx":1,"dy":1,"la1":29.587661999999998,"la2":31.0,"lo1":-88.76705300000003,"lo2":-86.6583820000003,"nx":115,"ny":88,"refTime":"2022-09-25T06:00:00:Z","depth":0,"parameterNumber":2,"parameterNumberName":"V-component_of_WINDS"},"data":[9.5042,9.5042,9.5042,9.5042,9.5042,9.5042,9.5042,9.5042,9.5042,9.5042,9.5042,9.5042,9.5042,9.5042,9.5042,9.5042,9.5042,9.5042,9.5042,9.5042,9.5042,9.5042,9.5042,9.5042,9.5042,9.5042,9.5042,9.5042,9.5042,9.5042,9.5042,9.5042,9.5042,9.5042,9.5042,9.5042,9.5042,9.5042,9.5042,9.5042,9.5042,9.5042,9.5042,9.5042,9.5042,9.5042,9.5042,9.5042,9.5042,9.5042,9.5042,9.5042,9.5042,9.5042,9.5042,9.5042,9.5042,9.5042,9.5042,9.5042,9.5042,9.5042,9.5042,9.5042,9.5042,9.5042,9.5042,9.5042,9.5042,9.5042,9.5042,9.5042,9.4952,9.4316,9.3506,9.2149,9.0696,8.9921,8.9419,8.9282,8.919,8.919,8.919,8.919,8.919,8.919,8.919,8.919,8.919,8.919,8.919,8.919,8.919,8.919,8.919,8.919,8.919,8.919,8.8941,8.8309,8.7488,8.649,8.5741,8.5162,8.4877,8.4592,8.452,8.452,8.452,8.452,8.452,8.452,8.452,8.452,8.452,9.5042,9.5042,9.5042,9.5042,9.5042,9.5042,9.5042,9.5042,9.5042,9.5042,9.5042,9.5042,9.5042,9.5042,9.5042,9.5042,9.5042,9.5042,9.5042,9.5042,9.5042,9.5042,9.5042,9.5042,9.5042,9.5042,9.5042,9.5042,9.5042,9.5042,9.5042,9.5042,9.5042,9.5042,9.5042,9.5042,9.5042,9.5042,9.5042,9.5042,9.5042,9.5042,9.5042,9.5042,9.5042,9.5042,9.5042,9.5042,9.5042,9.5042,9.5042,9.5042,9.5042,9.5042,9.5042,9.5042,9.5042,9.5042,9.5042,9.5042,9.5042,9.5042,9.5042,9.5042,9.5042,9.5042,9.5042,9.5042,9.5042,9.5042,9.5042,9.5042,9.5042,9.4766,9.3821,9.2738,9.1242,8.983,8.951,8.9236,8.919,8.919,8.919,8.919,8.919,8.919,8.919,8.919,8.919,8.919,8.919,8.919,8.919,8.919,8.919,8.919,8.919,8.919,8.9155,8.8701,8.8059,8.706,8.624,8.5598,8.4984,8.4627,8.452,8.452,8.452,8.452,8.452,8.452,8.452,8.452,8.452,9.5042,9.5042,9.5042,9.5042,9.5042,9.5042,9.5042,9.5042,9.5042,9.5042,9.5042,9.5042,9.5042,9.5042,9.5042,9.5042,9.5042,9.5042,9.5042,9.5042,9.5042,9.5042,9.5042,9.5042,9.5042,9.5042,9.5042,9.5042,9.5042,9.5042,9.5042,9.5042,9.5042,9.5042,9.5042,9.5042,9.5042,9.5042,9.5042,9.5042,9.5042,9.5042,9.5042,9.5042,9.5042,9.5042,9.5042,9.5042,9.5042,9.5042,9.5042,9.5042,9.5042,9.5042,9.5042,9.5042,9.5042,9.5042,9.5042,9.5042,9.5042,9.5042,9.5042,9.5042,9.5042,9.5042,9.5042,9.5042,9.5042,9.5042,9.5042,9.5042,9.5042,9.4952,9.4226,9.3145,9.1741,9.0286,8.9556,8.9282,8.919,8.919,8.919,8.919,8.919,8.919,8.919,8.919,8.919,8.919,8.919,8.919,8.919,8.919,8.919,8.919,8.919,8.919,8.919,8.8905,8.8665,8.7631,8.6632,8.5812,8.5126,8.4734,8.4556,8.452,8.452,8.452,8.452,8.452,8.452,8.452,8.452,9.5042,9.5042,9.5042,9.5042,9.5042,9.5042,9.5042,9.5042,9.5042,9.5042,9.5042,9.5042,9.5042,9.5042,9.5042,9.5042,9.5042,9.5042,9.5042,9.5042,9.5042,9.5042,9.5042,9.5042,9.5042,9.5042,9.5042,9.5042,9.5042,9.5042,9.5042,9.5042,9.5042,9.5042,9.5042,9.5042,9.5042,9.5042,9.5042,9.5042,9.5042,9.5042,9.5042,9.5042,9.5042,9.5042,9.5042,9.5042,9.5042,9.5042,9.5042,9.5042,9.5042,9.5042,9.5042,9.5042,9.5042,9.5042,9.5042,9.5042,9.5042,9.5042,9.5042,9.5042,9.5042,9.5042,9.5042,9.5042,9.5042,9.5042,9.5042,9.5042,9.4997,9.4945,9.4676,9.346,9.224,9.0924,8.9647,8.9373,8.9236,8.919,8.919,8.919,8.919,8.919,8.919,8.919,8.919,8.919,8.919,8.919,8.919,8.919,8.919,8.919,8.919,8.919,8.919,8.919,8.9155,8.8416,8.7595,8.641,8.534,8.4948,8.4663,8.4592,8.452,8.452,8.452,8.452,8.452,8.452,8.452,9.5042,9.5042,9.5042,9.5042,9.5042,9.5042,9.5042,9.5042,9.5042,9.5042,9.5042,9.5042,9.5042,9.5042,9.5042,9.5042,9.5042,9.5042,9.5042,9.5042,9.5042,9.5042,9.5042,9.5042,9.5042,9.5042,9.5042,9.5042,9.5042,9.5042,9.5042,9.5042,9.5042,9.5042,9.5042,9.5042,9.5042,9.5042,9.5042,9.5042,9.5042,9.5042,9.5042,9.5042,9.5042,9.5042,9.5042,9.5042,9.5042,9.5042,9.5042,9.5042,9.5042,9.5042,9.5042,9.5042,9.5042,9.5042,9.5042,9.5042,9.5042,9.5042,9.5042,9.5042,9.5042,9.5042,9.5042,9.5042,9.4683,9.4676,9.481,9.4855,9.4721,9.4586,9.4136,9.319,9.2104,9.1015,8.9921,8.9327,8.919,8.919,8.919,8.919,8.919,8.919,8.919,8.919,8.919,8.919,8.919,8.919,8.919,8.919,8.919,8.919,8.919,8.919,8.919,8.919,8.919,8.8834,8.8451,8.7239,8.599,8.5376,8.4841,8.4627,8.452,8.452,8.452,8.452,8.452,8.452,8.452,9.5042,9.5042,9.5042,9.5042,9.5042,9.5042,9.5042,9.5042,9.5042,9.5042,9.5042,9.5042,9.5042,9.5042,9.5042,9.5042,9.5042,9.5042,9.5042,9.5042,9.5042,9.5042,9.5042,9.5042,9.5042,9.5042,9.5042,9.5042,9.5042,9.5042,9.5042,9.5042,9.5042,9.5042,9.5042,9.5042,9.5042,9.5042,9.5042,9.5042,9.5042,9.5042,9.5042,9.5042,9.5042,9.5042,9.5042,9.5042,9.5042,9.5042,9.5042,9.5042,9.5042,9.5042,9.5042,9.5042,9.5042,9.5042,9.5042,9.5042,9.5042,9.5042,9.5042,9.5042,9.5042,9.4997,9.4997,9.4862,9.4541,9.4316,9.4451,9.4586,9.4361,9.4136,9.346,9.2783,9.1923,9.0969,9.0149,8.9419,8.919,8.919,8.919,8.919,8.919,8.919,8.919,8.919,8.919,8.919,8.919,8.919,8.919,8.919,8.919,8.919,8.919,8.919,8.919,8.919,8.919,8.8976,8.8655,8.7774,8.6668,8.599,8.5376,8.4984,8.4627,8.452,8.452,8.452,8.452,8.452,8.452,9.5042,9.5042,9.5042,9.5042,9.5042,9.5042,9.5042,9.5042,9.5042,9.5042,9.5042,9.5042,9.5042,9.5042,9.5042,9.5042,9.5042,9.5042,9.5042,9.5042,9.5042,9.5042,9.5042,9.5042,9.5042,9.5042,9.5042,9.5042,9.5042,9.5042,9.5042,9.5042,9.5042,9.5042,9.5042,9.5042,9.5042,9.5042,9.5042,9.5042,9.5042,9.5042,9.5042,9.5042,9.5042,9.5042,9.5042,9.5042,9.5042,9.5042,9.5042,9.5042,9.5042,9.5042,9.5042,9.5042,9.5042,9.5042,9.5042,9.5042,9.5042,9.5042,9.5042,9.5042,9.5042,9.4997,9.49,9.4676,9.4316,9.4136,9.4181,9.4181,9.4091,9.3551,9.2783,9.224,9.1832,9.0878,8.9876,8.9282,8.919,8.919,8.919,8.919,8.919,8.919,8.919,8.919,8.919,8.919,8.919,8.919,8.919,8.919,8.919,8.919,8.919,8.919,8.919,8.919,8.919,8.9119,8.8905,8.8335,8.755,8.6766,8.5982,8.5455,8.4992,8.4806,8.4556,8.4556,8.452,8.452,8.452,9.5042,9.5042,9.5042,9.5042,9.5042,9.5042,9.5042,9.5042,9.5042,9.5042,9.5042,9.5042,9.5042,9.5042,9.5042,9.5042,9.5042,9.5042,9.5042,9.5042,9.5042,9.5042,9.5042,9.5042,9.5042,9.5042,9.5042,9.5042,9.5042,9.5042,9.5042,9.5042,9.5042,9.5042,9.5042,9.5042,9.5042,9.5042,9.5042,9.5042,9.5042,9.5042,9.5042,9.5042,9.5042,9.5042,9.5042,9.5042,9.5042,9.5042,9.5042,9.5042,9.5042,9.5042,9.5042,9.5042,9.5042,9.5042,9.5042,9.5042,9.5042,9.5042,9.5042,9.5042,9.5042,9.4997,9.481,9.4496,9.3956,9.3866,9.3641,9.3506,9.3415,9.2783,9.1968,9.1605,9.1333,9.0696,8.9647,8.9282,8.9236,8.919,8.919,8.919,8.919,8.919,8.919,8.919,8.919,8.919,8.919,8.919,8.919,8.919,8.919,8.919,8.919,8.919,8.919,8.919,8.919,8.9155,8.9048,8.8798,8.8263,8.7586,8.6624,8.599,8.5455,8.4992,8.4706,8.4635,8.452,8.452,8.452,9.5042,9.5042,9.5042,9.5042,9.5042,9.5042,9.5042,9.5042,9.5042,9.5042,9.5042,9.5042,9.5042,9.5042,9.5042,9.5042,9.5042,9.5042,9.5042,9.5042,9.5042,9.5042,9.5042,9.5042,9.5042,9.5042,9.5042,9.5042,9.5042,9.5042,9.5042,9.5042,9.5042,9.5042,9.5042,9.5042,9.5042,9.5042,9.5042,9.5042,9.5042,9.5042,9.5042,9.5042,9.5042,9.5042,9.5042,9.5042,9.5042,9.5042,9.5042,9.5042,9.5042,9.5042,9.5042,9.5042,9.5042,9.5042,9.5042,9.5042,9.5042,9.5042,9.5042,9.5042,9.5042,9.5042,9.4721,9.4226,9.3506,9.337,9.319,9.1787,9.1696,9.156,9.0924,9.056,9.0286,9.0058,8.9236,8.9236,8.919,8.919,8.919,8.919,8.919,8.919,8.919,8.919,8.919,8.919,8.919,8.919,8.919,8.919,8.919,8.919,8.919,8.919,8.919,8.919,8.919,8.919,8.919,8.9119,8.8798,8.8299,8.7301,8.6561,8.6062,8.5562,8.5063,8.4778,8.4556,8.452,8.452,9.5042,9.5042,9.5042,9.5042,9.5042,9.5042,9.5042,9.5042,9.5042,9.5042,9.5042,9.5042,9.5042,9.5042,9.5042,9.5042,9.5042,9.5042,9.5042,9.5042,9.5042,9.5042,9.5042,9.5042,9.5042,9.5042,9.5042,9.5042,9.5042,9.5042,9.5042,9.5042,9.5042,9.5042,9.5042,9.5042,9.5042,9.5042,9.5042,9.5042,9.5042,9.5042,9.5042,9.5042,9.5042,9.5042,9.5042,9.5042,9.5042,9.5042,9.5042,9.5042,9.5042,9.5042,9.5042,9.5042,9.5042,9.5042,9.5042,9.5042,9.5042,9.5042,9.5042,9.5042,9.5042,9.5042,9.481,9.4316,9.3821,9.3415,9.2964,9.1605,9.106,9.0878,9.0149,8.9739,8.9693,8.9419,8.919,8.919,8.919,8.919,8.919,8.919,8.919,8.919,8.919,8.919,8.919,8.919,8.919,8.919,8.919,8.919,8.919,8.919,8.919,8.919,8.919,8.919,8.919,8.919,8.919,8.919,8.9155,8.9048,8.8299,8.755,8.6882,8.6133,8.5562,8.517,8.477,8.4592,8.4556,9.5042,9.5042,9.5042,9.5042,9.5042,9.5042,9.5042,9.5042,9.5042,9.5042,9.5042,9.5042,9.5042,9.5042,9.5042,9.5042,9.5042,9.5042,9.5042,9.5042,9.5042,9.5042,9.5042,9.5042,9.5042,9.5042,9.5042,9.5042,9.5042,9.5042,9.5042,9.5042,9.5042,9.5042,9.5042,9.5042,9.5042,9.5042,9.5042,9.5042,9.5042,9.5042,9.5042,9.5042,9.5042,9.5042,9.5042,9.5042,9.5042,9.5042,9.5042,9.5042,9.5042,9.5042,9.5042,9.5042,9.5042,9.5042,9.5042,9.5042,9.5042,9.5042,9.5042,9.5042,9.5042,9.4952,9.481,9.3956,9.3866,9.3551,9.2738,9.1832,9.1642,9.1142,8.9921,8.9373,8.9647,8.9602,8.9327,8.919,8.919,8.919,8.919,8.919,8.919,8.919,8.919,8.919,8.919,8.919,8.919,8.919,8.919,8.919,8.919,8.919,8.919,8.919,8.919,8.919,8.919,8.919,8.919,8.919,8.919,8.9155,8.8869,8.8549,8.7907,8.723,8.641,8.5705,8.4992,8.4627,8.4556,9.5042,9.5042,9.5042,9.5042,9.5042,9.5042,9.5042,9.5042,9.5042,9.5042,9.5042,9.5042,9.5042,9.5042,9.5042,9.5042,9.5042,9.5042,9.5042,9.5042,9.5042,9.5042,9.5042,9.5042,9.5042,9.5042,9.5042,9.5042,9.5042,9.5042,9.5042,9.5042,9.5042,9.5042,9.5042,9.5042,9.5042,9.5042,9.5042,9.5042,9.5042,9.5042,9.5042,9.5042,9.5042,9.5042,9.5042,9.5042,9.5042,9.5042,9.5042,9.5042,9.5042,9.5042,9.5042,9.5042,9.5042,9.5042,9.5042,9.5042,9.5042,9.5042,9.5042,9.4997,9.5042,9.4997,9.4451,9.3596,9.3054,9.2466,9.1251,9.0696,9.0514,9.055,8.9419,8.9236,8.951,8.9602,8.9373,8.919,8.919,8.919,8.919,8.919,8.919,8.919,8.919,8.919,8.919,8.919,8.919,8.919,8.919,8.919,8.919,8.919,8.919,8.919,8.919,8.919,8.919,8.919,8.919,8.919,8.919,8.919,8.9083,8.8905,8.8584,8.8182,8.755,8.6811,8.6018,8.5126,8.4913,9.5042,9.5042,9.5042,9.5042,9.5042,9.5042,9.5042,9.5042,9.5042,9.5042,9.5042,9.5042,9.5042,9.5042,9.5042,9.5042,9.5042,9.5042,9.5042,9.5042,9.5042,9.5042,9.5042,9.5042,9.5042,9.5042,9.5042,9.5042,9.5042,9.5042,9.5042,9.5042,9.5042,9.5042,9.5042,9.5042,9.5042,9.5042,9.5042,9.5042,9.5042,9.5042,9.5042,9.5042,9.5042,9.5042,9.5042,9.5042,9.5042,9.5042,9.5042,9.5042,9.5042,9.5042,9.5042,9.5042,9.5042,9.5042,9.5042,9.5042,9.5042,9.5042,9.5035,9.4855,9.4316,9.4406,9.3911,9.319,9.2503,9.1923,9.0833,9.0104,8.9465,8.9282,8.919,8.919,8.9282,8.9327,8.919,8.919,8.919,8.919,8.919,8.919,8.919,8.919,8.919,8.919,8.919,8.919,8.919,8.919,8.919,8.919,8.919,8.919,8.919,8.919,8.919,8.919,8.919,8.919,8.919,8.919,8.919,8.919,8.919,8.919,8.9048,8.8691,8.8228,8.7738,8.6802,8.5804,8.5198,9.5042,9.5042,9.5042,9.5042,9.5042,9.5042,9.5042,9.5042,9.5042,9.5042,9.5042,9.5042,9.5042,9.5042,9.5042,9.5042,9.5042,9.5042,9.5042,9.5042,9.5042,9.5042,9.5042,9.5042,9.5042,9.5042,9.5042,9.5042,9.5042,9.5042,9.5042,9.5042,9.5042,9.5042,9.5042,9.5042,9.5042,9.5042,9.5042,9.5042,9.5042,9.5042,9.5042,9.5042,9.5042,9.5042,9.5042,9.5042,9.5042,9.5042,9.5042,9.5042,9.5042,9.5042,9.5042,9.5042,9.5042,9.5042,9.5042,9.5042,9.4997,9.4945,9.4766,9.4361,9.3551,9.3415,9.2919,9.2104,9.1832,9.1287,9.0742,9.0377,8.9739,8.9419,8.919,8.919,8.919,8.919,8.919,8.919,8.919,8.919,8.919,8.919,8.919,8.919,8.919,8.919,8.919,8.919,8.919,8.919,8.919,8.919,8.919,8.919,8.919,8.919,8.919,8.919,8.919,8.919,8.919,8.919,8.919,8.919,8.919,8.919,8.9155,8.9093,8.8808,8.8228,8.7443,8.6766,8.6018,9.5042,9.5042,9.5042,9.5042,9.5042,9.5042,9.5042,9.5042,9.5042,9.5042,9.5042,9.5042,9.5042,9.5042,9.5042,9.5042,9.5042,9.5042,9.5042,9.5042,9.5042,9.5042,9.5042,9.5042,9.5042,9.5042,9.5042,9.5042,9.5042,9.5042,9.5042,9.5042,9.5042,9.5042,9.5042,9.5042,9.5042,9.5042,9.5042,9.5042,9.5042,9.5042,9.5042,9.5042,9.5042,9.5042,9.5042,9.5042,9.5004,9.4966,9.4928,9.4814,9.489,9.489,9.4883,9.4883,9.4862,9.4862,9.4773,9.4683,9.4586,9.4181,9.3776,9.3551,9.273,9.2458,9.2096,9.106,9.0969,9.0468,8.983,8.9602,8.9465,8.9373,8.919,8.919,8.919,8.919,8.919,8.919,8.919,8.919,8.919,8.919,8.919,8.919,8.919,8.919,8.919,8.919,8.919,8.919,8.919,8.919,8.919,8.919,8.919,8.919,8.919,8.919,8.919,8.919,8.919,8.919,8.919,8.919,8.919,8.919,8.919,8.9155,8.9012,8.862,8.8299,8.7907,8.7194,9.5042,9.5042,9.5042,9.5042,9.5042,9.5042,9.5042,9.5042,9.5042,9.5042,9.5042,9.5042,9.5042,9.5042,9.5042,9.5042,9.5042,9.5042,9.5042,9.5042,9.5042,9.5042,9.5042,9.5042,9.5042,9.5042,9.5042,9.5042,9.5042,9.5042,9.5042,9.5042,9.5042,9.5042,9.5042,9.5042,9.5042,9.5042,9.5042,9.5042,9.5042,9.5042,9.5042,9.5042,9.5042,9.5042,9.4966,9.4776,9.4465,9.4389,9.4047,9.3971,9.4054,9.4275,9.4465,9.4458,9.4411,9.4151,9.3874,9.3731,9.3415,9.3009,9.2865,9.261,9.2232,9.1778,9.1015,9.0104,9.0013,8.9784,8.9373,8.9236,8.919,8.919,8.919,8.919,8.919,8.919,8.919,8.919,8.919,8.919,8.919,8.919,8.919,8.919,8.919,8.919,8.919,8.919,8.919,8.919,8.919,8.919,8.919,8.919,8.919,8.919,8.919,8.919,8.919,8.919,8.919,8.919,8.919,8.919,8.919,8.919,8.919,8.919,8.919,8.9012,8.8834,8.8442,8.7871,9.489,9.4928,9.5004,9.5042,9.5042,9.5042,9.5042,9.5042,9.5042,9.5042,9.5042,9.5042,9.5042,9.5042,9.5042,9.5042,9.5042,9.5042,9.5042,9.5042,9.5042,9.5042,9.5042,9.5042,9.5042,9.5042,9.5042,9.5042,9.5042,9.5042,9.5042,9.5042,9.5042,9.5042,9.4959,9.4769,9.4966,9.5004,9.4928,9.4852,9.4814,9.4662,9.4579,9.4624,9.4586,9.4548,9.4358,9.3933,9.3585,9.3553,9.2902,9.2604,9.268,9.3282,9.3541,9.3168,9.3041,9.2712,9.2068,9.1912,9.1777,9.1433,9.1408,9.162,9.1013,9.0379,8.9681,8.9058,8.9282,8.9236,8.9236,8.919,8.919,8.919,8.919,8.919,8.919,8.919,8.919,8.919,8.919,8.919,8.9083,8.9155,8.9155,8.919,8.919,8.919,8.919,8.919,8.919,8.919,8.919,8.919,8.919,8.919,8.919,8.919,8.919,8.919,8.919,8.919,8.919,8.9155,8.919,8.919,8.919,8.919,8.919,8.919,8.919,8.919,8.919,8.8834,8.8416,9.3965,9.4003,9.4731,9.5042,9.5042,9.5042,9.4997,9.5042,9.5042,9.5042,9.5042,9.5042,9.5042,9.5042,9.5042,9.5042,9.5042,9.5042,9.5042,9.5042,9.5042,9.5042,9.5042,9.5042,9.5042,9.5042,9.5042,9.5042,9.5042,9.5042,9.5042,9.4921,9.5004,9.5042,9.4769,9.4193,9.4579,9.4624,9.4427,9.3965,9.3775,9.3402,9.3022,9.3022,9.3022,9.3136,9.3212,9.2864,9.275,9.2674,9.2522,9.2408,9.2598,9.3244,9.235,9.0221,9.0233,9.039,9.0271,9.0219,8.9877,8.9378,8.9115,8.9031,8.8798,8.8582,8.8008,8.8354,8.8737,8.9048,8.8941,8.9155,8.92,8.9155,8.9155,8.919,8.9155,8.919,8.92,8.8976,8.919,8.9083,8.8834,8.8834,8.8701,8.8701,8.8584,8.8655,8.8665,8.8772,8.8905,8.8976,8.9012,8.8976,8.8869,8.8762,8.8655,8.8701,8.8737,8.8869,8.9012,8.9155,8.9119,8.9048,8.9083,8.9048,8.919,8.919,8.919,8.919,8.919,8.919,8.919,8.8941,8.8772,9.313,9.3212,9.3629,9.4047,9.4351,9.4389,9.4617,9.5004,9.5042,9.5042,9.5042,9.5042,9.5042,9.5042,9.5042,9.5042,9.5042,9.5042,9.5042,9.5042,9.5042,9.5042,9.5042,9.5042,9.5042,9.5042,9.5042,9.5042,9.5042,9.5004,9.4769,9.4541,9.4389,9.4199,9.3781,9.3357,9.3478,9.3553,9.3402,9.313,9.3054,9.2788,9.2566,9.2566,9.2566,9.2528,9.2452,9.2181,9.1877,9.1714,9.1065,9.0703,9.0637,9.0665,9.014,8.8522,8.861,8.8916,8.8481,8.8348,8.8179,8.7647,8.7638,8.7578,8.7408,8.7203,8.7176,8.7488,8.7988,8.8095,8.8166,8.8451,8.863,8.8691,8.8976,8.9022,8.8879,8.9058,8.863,8.8095,8.8202,8.8237,8.8237,8.8273,8.8166,8.8095,8.8059,8.7988,8.7916,8.8095,8.8263,8.8263,8.8192,8.8085,8.78,8.7774,8.7702,8.7916,8.8059,8.8416,8.8665,8.8976,8.9012,8.8762,8.8762,8.8727,8.8869,8.9048,8.9155,8.919,8.919,8.919,8.919,8.919,8.9119,9.2256,9.2338,9.2446,9.2864,9.3471,9.3509,9.3933,9.4541,9.451,9.4624,9.4586,9.4624,9.451,9.4548,9.4624,9.4579,9.4427,9.4579,9.4693,9.4693,9.4693,9.4548,9.451,9.4465,9.4579,9.47,9.451,9.4389,9.4472,9.4624,9.4047,9.3623,9.3509,9.3326,9.2832,9.2332,9.237,9.2756,9.249,9.2256,9.2256,9.2181,9.2105,9.1882,9.1844,9.1882,9.1763,9.1302,9.0875,9.0665,8.9375,8.8679,8.8351,8.8018,8.7493,8.6875,8.7098,8.7175,8.6682,8.656,8.6498,8.649,8.6436,8.6463,8.6641,8.657,8.6525,8.6739,8.6918,8.6811,8.6882,8.7524,8.78,8.7978,8.8228,8.8451,8.8121,8.8156,8.8095,8.7132,8.7025,8.7105,8.7274,8.7417,8.7453,8.7488,8.7453,8.7453,8.7462,8.7524,8.7586,8.7479,8.7443,8.7158,8.6918,8.6918,8.6989,8.7274,8.7488,8.7845,8.8059,8.8594,8.863,8.8095,8.7952,8.8237,8.8549,8.8798,8.8976,8.919,8.919,8.919,8.919,8.919,8.919,9.1378,9.1416,9.2181,9.2604,9.2718,9.2674,9.2832,9.2946,9.2908,9.3136,9.2946,9.2908,9.3174,9.2984,9.3022,9.2946,9.3136,9.3509,9.3889,9.3927,9.3971,9.3667,9.3364,9.3516,9.3509,9.2946,9.306,9.306,9.306,9.2908,9.306,9.275,9.2674,9.2446,9.2338,9.1877,9.1649,9.2067,9.1687,9.1378,9.1378,9.1378,9.1074,9.0738,9.0624,9.0624,9.0458,9.0263,8.9818,8.9059,8.8775,8.7797,8.663,8.5617,8.5038,8.5074,8.5296,8.5388,8.5206,8.5055,8.5055,8.492,8.4948,8.5233,8.5634,8.5562,8.5741,8.6097,8.6311,8.6097,8.6775,8.6944,8.7025,8.7132,8.7167,8.7203,8.7096,8.7132,8.6882,8.6133,8.6169,8.6383,8.6525,8.649,8.6748,8.6927,8.6962,8.6962,8.6998,8.6989,8.6918,8.6766,8.6802,8.6704,8.6454,8.6383,8.649,8.6704,8.6882,8.7025,8.7132,8.731,8.7194,8.6989,8.7239,8.7667,8.7978,8.837,8.8762,8.9119,8.919,8.919,8.919,8.919,8.919,9.0586,9.0581,9.1004,9.1421,9.1763,9.1839,9.2067,9.249,9.2528,9.2528,9.2528,9.2528,9.2528,9.2528,9.2528,9.2528,9.2642,9.2902,9.3054,9.3054,9.3098,9.2826,9.2642,9.2408,9.2213,9.1991,9.2219,9.2528,9.2528,9.2566,9.2224,9.1795,9.1758,9.1649,9.1117,9.0776,9.089,9.108,9.0695,9.0543,9.0586,9.0505,9.0278,9.005,8.9974,8.9681,8.9378,8.9293,8.8781,8.8054,8.7411,8.6551,8.5336,8.4816,8.4599,8.452,8.452,8.452,8.452,8.452,8.452,8.4556,8.4556,8.477,8.4841,8.4806,8.4984,8.5305,8.5376,8.5198,8.5634,8.5955,8.624,8.6311,8.6632,8.6668,8.6311,8.5875,8.5491,8.5348,8.5491,8.5669,8.5669,8.5455,8.5562,8.5776,8.5812,8.5812,8.5883,8.6169,8.6097,8.6062,8.6169,8.6169,8.5919,8.5883,8.5911,8.6026,8.6169,8.624,8.624,8.6053,8.5875,8.6097,8.6311,8.6811,8.7443,8.7943,8.8335,8.8762,8.9083,8.9155,8.9155,8.9048,8.9048,9.0016,9.0016,9.0016,9.0358,9.0847,9.0923,9.1345,9.192,9.1958,9.1844,9.1958,9.1915,9.192,9.192,9.1801,9.1953,9.1882,9.2105,9.2219,9.2219,9.2262,9.2186,9.1806,9.1307,9.0961,9.1037,9.1649,9.1958,9.192,9.173,9.1573,9.0961,9.0928,9.0662,9.0168,9.0168,9.0016,9.0016,9.0054,9.0092,9.0092,9.0092,9.0012,8.9974,9.0016,8.9634,8.8999,8.8567,8.7797,8.6809,8.6034,8.5364,8.4537,8.4322,8.4136,8.4029,8.41,8.4235,8.4306,8.4378,8.452,8.452,8.452,8.452,8.452,8.4556,8.4556,8.4556,8.452,8.4627,8.477,8.5206,8.542,8.5562,8.5919,8.6062,8.5562,8.4948,8.4734,8.4592,8.4627,8.4556,8.4592,8.4699,8.4663,8.4592,8.4592,8.4556,8.4841,8.5241,8.5162,8.5055,8.5198,8.542,8.5206,8.5126,8.5126,8.5126,8.5305,8.5447,8.542,8.5269,8.5233,8.5384,8.5527,8.6133,8.6837,8.7337,8.7657,8.838,8.8915,8.9012,8.9048,8.8869,8.8798,9.0016,9.0016,9.0016,9.0054,9.0168,9.0088,9.032,9.032,9.0434,9.0396,9.0396,9.032,9.051,9.0244,9.0586,9.0358,9.0396,9.1037,9.1226,9.1302,9.1264,9.1037,9.0586,9.0358,9.024,9.024,9.0206,9.0396,9.0548,9.0434,9.0244,9.0282,9.0206,9.0092,9.0054,9.0016,9.0016,9.0016,9.0016,9.0016,9.0016,9.0016,9.0016,9.0016,9.0016,8.9846,8.9335,8.8225,8.665,8.4954,8.4737,8.4308,8.3651,8.3494,8.3244,8.2852,8.3208,8.3494,8.3608,8.4064,8.4413,8.4413,8.4413,8.452,8.452,8.4413,8.4449,8.452,8.452,8.452,8.4556,8.4592,8.477,8.4841,8.477,8.4806,8.4663,8.4592,8.452,8.452,8.452,8.452,8.452,8.452,8.452,8.452,8.452,8.452,8.4663,8.4806,8.4699,8.452,8.4592,8.4699,8.4627,8.452,8.452,8.4556,8.4841,8.4913,8.4877,8.4841,8.4734,8.4734,8.4948,8.5447,8.6196,8.6588,8.6873,8.7443,8.8095,8.8558,8.8798,8.8335,8.8156,9.0016,9.0016,9.0016,9.0016,9.0016,9.0016,9.0016,9.0016,9.0016,9.0016,9.0016,9.0016,9.0016,9.0016,9.0016,9.0016,9.0054,9.0316,9.0467,9.0505,9.0505,9.0358,9.0092,9.0016,9.0016,9.0016,9.0016,9.0016,9.0016,9.0016,9.0016,9.0016,9.0016,9.0016,9.0016,9.0016,9.0016,9.0016,9.0016,9.0016,9.0016,9.0016,9.0016,9.0016,9.0016,8.9719,8.9037,8.7496,8.5734,8.4283,8.3507,8.3066,8.2745,8.2709,8.2566,8.2317,8.2495,8.2709,8.278,8.2994,8.3422,8.3743,8.3422,8.3665,8.4235,8.4057,8.4128,8.4457,8.452,8.452,8.452,8.452,8.452,8.452,8.452,8.4556,8.4556,8.4485,8.452,8.452,8.452,8.452,8.452,8.452,8.452,8.452,8.452,8.452,8.452,8.4556,8.452,8.452,8.4592,8.4592,8.4556,8.452,8.452,8.452,8.4699,8.4663,8.4627,8.4627,8.4592,8.4592,8.4556,8.4806,8.5527,8.6062,8.6338,8.6695,8.7096,8.7524,8.7631,8.7417,8.7381,9.0016,9.0016,9.0016,9.0016,9.0016,9.0016,9.0016,9.0016,9.0016,9.0016,9.0016,9.0016,9.0016,9.0016,9.0016,9.0016,9.0016,9.0016,9.0016,9.0016,9.0016,9.0016,9.0016,9.0016,9.0016,9.0016,9.0016,9.0016,9.0016,9.0016,9.0016,9.0016,9.0016,9.0016,9.0016,9.0016,9.0016,9.0016,9.0016,9.0016,9.0016,9.0016,9.0016,8.9974,8.9761,8.9014,8.7933,8.6651,8.5188,8.337,8.2547,8.2174,8.196,8.1882,8.1782,8.1603,8.171,8.1882,8.196,8.2138,8.2537,8.2966,8.2638,8.2745,8.3886,8.3387,8.3529,8.4064,8.4235,8.4271,8.4485,8.452,8.452,8.452,8.4021,8.3772,8.3886,8.41,8.4278,8.4314,8.4413,8.452,8.452,8.452,8.452,8.452,8.452,8.452,8.452,8.452,8.452,8.452,8.4449,8.4485,8.4485,8.4485,8.4485,8.4449,8.4342,8.4235,8.4128,8.4271,8.4413,8.4485,8.4413,8.4485,8.5063,8.5384,8.5955,8.6347,8.6632,8.6846,8.6775,8.6632,8.6597,9.0016,9.0016,9.0016,9.0016,9.0016,9.0016,8.9979,8.9979,8.9941,8.9865,8.9865,8.9751,8.9865,8.9941,8.9751,8.9751,8.9979,8.9865,8.9865,8.9903,8.9789,8.9827,8.9827,8.9751,8.9751,8.9903,8.9979,9.0016,9.0016,9.0016,9.0016,9.0016,9.0016,9.0016,9.0016,9.0016,9.0016,9.0016,9.0016,9.0016,9.0016,9.0016,8.9936,8.9813,8.9095,8.7949,8.6511,8.5739,8.4612,8.2654,8.2116,8.171,8.1241,8.1098,8.0819,8.0289,8.0783,8.1068,8.1241,8.1603,8.2103,8.221,8.2103,8.2317,8.2459,8.2459,8.2602,8.3351,8.3422,8.3708,8.4235,8.4342,8.4342,8.435,8.3308,8.2673,8.2459,8.3108,8.3387,8.3565,8.4064,8.4485,8.4306,8.435,8.4342,8.4342,8.4306,8.4235,8.4235,8.4128,8.4413,8.4413,8.4235,8.4235,8.4164,8.4164,8.4164,8.4021,8.3779,8.3601,8.3422,8.385,8.4128,8.42,8.4235,8.4421,8.4635,8.4635,8.492,8.5527,8.5919,8.624,8.6204,8.5955,8.5812,9.0016,9.0016,9.0016,9.0016,9.0016,9.0016,8.9713,8.9337,8.9299,8.8915,8.8536,8.8418,8.8418,8.8418,8.8418,8.8418,8.8498,8.8991,8.9219,8.9223,8.8726,8.8764,8.9143,8.8726,8.8646,8.9219,8.9751,9.0016,9.0016,9.0016,9.0016,8.9979,9.0016,8.9979,9.0016,9.0016,9.0016,9.0016,8.9979,9.0016,9.0016,9.0016,8.9496,8.8493,8.8079,8.6781,8.4658,8.3441,8.2242,8.1056,8.0753,8.0605,8.0396,8.0319,8.0177,7.9963,8.0141,8.0325,8.0319,8.0646,8.0967,8.1318,8.1074,8.1181,8.196,8.1669,8.1811,8.2495,8.268,8.278,8.3023,8.3101,8.3101,8.3101,8.2495,8.2281,8.2245,8.2537,8.2638,8.2709,8.2959,8.3066,8.3101,8.3101,8.3059,8.3101,8.3101,8.3101,8.3101,8.3173,8.3066,8.3101,8.3487,8.3779,8.3815,8.3815,8.385,8.3458,8.3101,8.2816,8.2673,8.3173,8.3458,8.3494,8.3494,8.3565,8.3815,8.3815,8.3957,8.4492,8.5027,8.5206,8.5277,8.5063,8.5134,8.9257,8.9219,8.9219,8.9177,8.9219,8.9219,8.8915,8.8422,8.8384,8.808,8.7545,8.7507,8.7507,8.7507,8.7507,8.7507,8.7507,8.7814,8.8046,8.8008,8.7701,8.7849,8.8232,8.7773,8.7773,8.8422,8.8991,8.9333,8.9523,8.9333,8.9409,8.9523,8.9333,8.9257,8.9181,8.9219,8.9177,8.9215,8.9177,8.9215,8.9177,8.9177,8.8533,8.7166,8.6793,8.5309,8.2617,8.1371,8.0468,8.0004,7.9897,7.979,7.9576,7.954,7.9357,7.9219,7.9147,7.9147,7.9183,7.9397,7.9825,8.0105,8.007,8.0462,8.1247,8.0961,8.1068,8.1746,8.1853,8.1996,8.2174,8.221,8.2031,8.1532,8.1538,8.1389,8.1354,8.1425,8.1568,8.1782,8.2067,8.221,8.2245,8.2281,8.2352,8.2352,8.2317,8.2317,8.2281,8.2388,8.221,8.221,8.2566,8.2994,8.303,8.303,8.2816,8.2388,8.2138,8.1889,8.196,8.2245,8.2424,8.2495,8.2459,8.2566,8.293,8.3108,8.3208,8.3601,8.385,8.4029,8.4128,8.4271,8.4485,8.7583,8.7621,8.7507,8.7697,8.7735,8.7735,8.7542,8.7507,8.7469,8.7394,8.7166,8.7318,8.7204,8.7356,8.7166,8.7356,8.7128,8.6676,8.6486,8.66,8.7093,8.7356,8.7469,8.7318,8.7318,8.7507,8.7507,8.7963,8.8768,8.8115,8.8077,8.8536,8.8039,8.7811,8.7583,8.7773,8.7659,8.7697,8.7773,8.7659,8.7545,8.7614,8.7082,8.6064,8.5158,8.3256,8.0275,7.9968,7.9897,7.9825,7.979,7.9504,7.8862,7.8755,7.8434,7.7903,7.7688,7.7653,7.776,7.8362,7.875,7.9036,7.9464,7.982,8.0147,8.0111,8.0325,8.0926,8.1104,8.1318,8.1889,8.1924,8.1425,8.0254,8.0182,8.0182,8.0111,8.0004,8.0254,8.0961,8.1568,8.2138,8.2174,8.196,8.1889,8.1889,8.1924,8.1889,8.1817,8.1817,8.2067,8.2067,8.2103,8.221,8.2245,8.2132,8.1746,8.1354,8.1211,8.1068,8.1175,8.1247,8.1461,8.1532,8.1496,8.1532,8.1859,8.2138,8.2317,8.2709,8.2566,8.2745,8.3101,8.3458,8.3708,8.7507,8.7507,8.7507,8.7507,8.7507,8.7507,8.7166,8.6673,8.6676,8.6293,8.58,8.5724,8.5724,8.5802,8.5764,8.5724,8.5764,8.5537,8.5726,8.622,8.5954,8.6065,8.6486,8.6068,8.6065,8.6638,8.6673,8.7131,8.7814,8.7621,8.7621,8.7928,8.7621,8.7507,8.7507,8.7507,8.7507,8.7507,8.7507,8.7469,8.7387,8.6852,8.5886,8.4418,8.2965,8.1434,8.0014,7.9357,7.9112,7.904,7.8576,7.8224,7.7934,7.7938,7.7831,7.7577,7.7546,7.7546,7.7542,7.7796,7.8148,7.8643,7.8964,7.9361,7.9861,7.9897,7.9963,8.0177,8.0289,8.0325,8.0462,8.0141,7.9856,7.9968,7.9897,7.9897,7.9897,7.9897,8.0004,8.0289,8.061,8.0682,8.0646,8.0682,8.0717,8.064,8.0605,8.0605,8.0646,8.0646,8.0646,8.0682,8.1104,8.1389,8.1419,8.1104,8.064,8.0533,8.0426,8.0325,8.0325,8.0432,8.0539,8.061,8.0646,8.0646,8.0825,8.114,8.1603,8.2174,8.2067,8.1889,8.2281,8.2602,8.278,8.5952,8.5686,8.5648,8.5878,8.6144,8.6144,8.5989,8.584,8.5843,8.5499,8.5005,8.4967,8.4929,8.4929,8.4663,8.4663,8.4929,8.4929,8.5271,8.5688,8.5233,8.5271,8.5726,8.5233,8.5268,8.5724,8.584,8.6258,8.6938,8.671,8.6751,8.6938,8.671,8.6559,8.6559,8.6559,8.66,8.6559,8.66,8.6395,8.603,8.5578,8.4451,8.2749,8.1086,7.9997,7.9469,7.8719,7.8327,7.8327,7.7867,7.7546,7.7506,7.7256,7.6967,7.6682,7.6646,7.6646,7.6682,7.6896,7.7324,7.7747,7.8108,7.8541,7.8933,7.904,7.904,7.904,7.904,7.904,7.8933,7.8612,7.8465,7.8933,7.904,7.9076,7.9397,7.9469,7.9571,7.9825,7.9897,7.9897,8.0004,7.9932,7.9897,7.9897,7.9932,7.9968,7.9932,7.9932,8.0004,8.0039,8.0284,8.064,8.064,8.0105,7.9897,7.9897,7.9861,7.9825,7.9932,8.0075,7.9754,7.979,8.0039,8.0075,7.979,8.0105,8.0605,8.1068,8.1181,8.114,8.1704,8.1817,8.1924,8.3221,8.2536,8.2421,8.3107,8.3754,8.3792,8.4172,8.4777,8.4775,8.4815,8.4701,8.4739,8.4815,8.4701,8.398,8.4094,8.4701,8.4701,8.4777,8.4851,8.4737,8.4815,8.4891,8.4853,8.4815,8.4739,8.4699,8.5233,8.603,8.5385,8.5385,8.6185,8.5499,8.5005,8.5081,8.5119,8.5005,8.5079,8.5036,8.4639,8.3994,8.3639,8.2599,8.0913,7.9485,7.8724,7.8572,7.7898,7.747,7.751,7.7363,7.7363,7.7292,7.6607,7.5816,7.5246,7.5142,7.5104,7.521,7.5783,7.6247,7.6389,7.7074,7.7506,7.772,7.7796,7.7796,7.7617,7.7577,7.747,7.7542,7.7506,7.7581,7.7688,7.7613,7.797,7.8612,7.8683,7.904,7.9504,7.9576,7.9504,7.9647,7.979,7.9647,7.9754,7.9754,7.9754,7.979,7.9825,7.9825,7.9861,7.9932,7.9861,7.9713,7.9392,7.9504,7.9469,7.9254,7.9576,7.9754,7.9718,7.929,7.9076,7.9219,7.9183,7.8969,7.9147,7.9611,7.9968,8.0075,8.0432,8.0926,8.0997,8.114,8.2612,8.246,8.2422,8.2574,8.2764,8.2764,8.2916,8.3105,8.3105,8.3105,8.3105,8.3105,8.3105,8.3105,8.2878,8.2917,8.3105,8.3105,8.3447,8.402,8.341,8.3447,8.402,8.3409,8.3105,8.3066,8.3143,8.3561,8.4398,8.4701,8.5081,8.5233,8.5081,8.4929,8.4929,8.4929,8.4929,8.4889,8.4364,8.3962,8.3449,8.1401,7.9622,7.8588,7.813,7.7863,7.7867,7.7074,7.6571,7.6571,7.6036,7.5712,7.5712,7.546,7.5282,7.5068,7.5032,7.5032,7.5032,7.521,7.5602,7.614,7.6389,7.686,7.7363,7.7546,7.7546,7.7399,7.6432,7.6033,7.6464,7.6532,7.6896,7.7474,7.7466,7.7538,7.7827,7.7903,7.797,7.8113,7.8367,7.8224,7.8184,7.8255,7.8545,7.8898,7.8612,7.8469,7.954,7.9397,7.9254,7.979,7.9861,7.9433,7.8318,7.8251,7.8224,7.8224,7.8291,7.8327,7.8184,7.8184,7.797,7.8041,7.8117,7.8081,7.797,7.8005,7.8327,7.8898,7.9504,8.0004,8.0111,8.0182,8.0325,8.1739,8.1474,8.1474,8.1625,8.1929,8.1968,8.2119,8.2422,8.2422,8.2422,8.2308,8.1701,8.1664,8.1968,8.1929,8.2119,8.2422,8.2422,8.2688,8.3145,8.2688,8.2688,8.3145,8.265,8.2422,8.2422,8.2422,8.2727,8.3221,8.3675,8.4132,8.4475,8.4474,8.4625,8.4929,8.4929,8.4777,8.4474,8.3674,8.2764,8.1595,7.944,7.8057,7.755,7.722,7.7003,7.6931,7.6175,7.5709,7.5673,7.5243,7.5032,7.5032,7.5032,7.5032,7.5032,7.5032,7.5032,7.5032,7.5032,7.5246,7.5712,7.5709,7.5926,7.6468,7.6539,7.6539,7.6432,7.5641,7.521,7.5638,7.5709,7.5887,7.6357,7.65,7.6567,7.6931,7.7042,7.7185,7.751,7.7546,7.7581,7.7546,7.7546,7.772,7.8005,7.7898,7.7863,7.8648,7.8541,7.8469,7.8826,7.8933,7.8469,7.7787,7.7506,7.7581,7.7581,7.7546,7.7546,7.7577,7.7546,7.7363,7.7038,7.7435,7.7581,7.7074,7.7217,7.7653,7.8005,7.8719,7.8933,7.8933,7.8933,7.8933,8.0753,8.0107,8.0145,8.0487,8.1133,8.1133,8.155,8.2119,8.2195,8.2195,8.1967,8.0715,8.0525,8.1133,8.1133,8.1474,8.2119,8.2195,8.2195,8.2309,8.2233,8.2233,8.2309,8.2233,8.2195,8.2157,8.2119,8.2157,8.2309,8.2346,8.2803,8.3564,8.3678,8.394,8.4428,8.4503,8.42,8.3441,8.2611,8.0975,7.8665,7.7723,7.7367,7.7331,7.6535,7.6065,7.6104,7.5424,7.5032,7.5032,7.5032,7.4997,7.489,7.4926,7.489,7.4783,7.4783,7.4819,7.4783,7.478,7.4819,7.4926,7.4926,7.4961,7.5104,7.4961,7.4819,7.4819,7.4819,7.4747,7.4926,7.4926,7.4997,7.521,7.521,7.5317,7.5923,7.6065,7.6389,7.7256,7.7074,7.7292,7.7113,7.7113,7.722,7.7145,7.7078,7.722,7.7684,7.7617,7.747,7.7327,7.7292,7.7256,7.7185,7.7292,7.7113,7.7149,7.7256,7.7113,7.7042,7.7042,7.7113,7.6321,7.6682,7.6789,7.6535,7.6678,7.722,7.7324,7.747,7.7506,7.7581,7.7688,7.7542,8.0221,8.0107,8.0107,8.0183,8.0335,8.0335,8.0449,8.0639,8.0563,8.0639,8.0563,8.0259,8.0183,8.0335,8.0335,8.0449,8.0601,8.0639,8.0981,8.1436,8.0905,8.0943,8.1436,8.0905,8.0601,8.0601,8.0639,8.0905,8.1474,8.1512,8.193,8.2612,8.2726,8.2526,8.2086,8.2086,8.1698,8.0882,7.9468,7.8111,7.6921,7.6032,7.5605,7.5605,7.5427,7.5282,7.5282,7.5139,7.5032,7.5032,7.5032,7.4747,7.4142,7.4145,7.3859,7.3287,7.3254,7.3254,7.3254,7.3254,7.3503,7.4073,7.4145,7.4394,7.4854,7.3966,7.3254,7.3254,7.3177,7.3463,7.3964,7.4109,7.4356,7.4961,7.5032,7.484,7.5207,7.5282,7.5427,7.5534,7.5567,7.5563,7.5567,7.5605,7.5638,7.5634,7.5605,7.6179,7.7185,7.6931,7.6247,7.5819,7.5605,7.5677,7.5605,7.5677,7.5677,7.5567,7.5677,7.5748,7.5751,7.5641,7.546,7.5534,7.557,7.5605,7.5424,7.557,7.589,7.6389,7.6535,7.6714,7.7256,7.7363,7.7149,8.0107,8.0107,8.0107,8.0107,8.0107,8.0107,8.0107,7.9993,7.9272,7.8743,7.8407,7.8408,7.8183,7.7922,7.8597,7.8898,7.8936,7.9313,7.9918,8.0601,7.988,7.9652,8.0067,8.0108,7.988,7.9502,7.988,8.0108,8.0143,8.0524,8.0714,8.0784,8.1547,8.1654,8.1251,8.1249,8.0708,7.9443,7.7107,7.5696,7.5262,7.4768,7.4501,7.4463,7.4854,7.5032,7.5032,7.5032,7.4854,7.4536,7.4536,7.4106,7.3396,7.3325,7.2969,7.2219,7.2148,7.2005,7.165,7.1615,7.1971,7.2755,7.3111,7.3254,7.2969,7.1132,7.0627,7.2,7.1128,7.1324,7.3139,7.3325,7.2901,7.1992,7.187,7.1836,7.187,7.2113,7.2894,7.4154,7.3478,7.3339,7.4801,7.3649,7.3107,7.484,7.5032,7.5317,7.6179,7.6001,7.5495,7.5139,7.5032,7.5032,7.5068,7.5032,7.5032,7.5032,7.5032,7.5032,7.5032,7.5068,7.5068,7.5032,7.5032,7.5032,7.5068,7.5032,7.521,7.5638,7.5673,7.5819,7.6214,7.6432,7.6072,7.9727,7.9765,7.9765,7.9727,7.9727,7.9727,7.9765,7.9576,7.7942,7.6856,7.6234,7.6087,7.5685,7.5245,7.6504,7.7211,7.7435,7.7995,7.8709,7.9539,7.886,7.8481,7.8481,7.9426,7.9464,7.8858,7.954,7.9502,7.8896,7.9502,7.9502,7.9046,8.0143,8.0897,8.0877,8.0679,7.9761,7.8207,7.5442,7.4038,7.4038,7.4038,7.3895,7.361,7.4498,7.4854,7.4427,7.4676,7.4356,7.3254,7.3183,7.2791,7.1936,7.1829,7.1614,7.108,7.108,7.0723,7.0083,7.0012,7.0332,7.1008,7.1756,7.1544,7.0011,6.8005,6.7864,6.9949,6.8521,6.8472,7.0478,7.0703,6.9734,6.8107,6.7491,6.7481,6.804,6.8265,6.9268,7.1521,7.038,7.014,7.2077,7.1212,7.1164,7.347,7.4463,7.5068,7.5062,7.4579,7.4428,7.4881,7.5032,7.5032,7.5032,7.5032,7.5032,7.5032,7.5032,7.5032,7.5032,7.5032,7.5032,7.5032,7.5032,7.5032,7.5032,7.5032,7.5068,7.5104,7.5139,7.5104,7.5175,7.5032,7.5,7.7981,7.8018,7.7981,7.7981,7.7981,7.7981,7.7981,7.7904,0.0,0.0,0.0,7.4617,7.4595,7.505,7.4799,7.539,7.6538,7.6095,7.6281,7.7059,7.751,7.7397,7.6908,7.8331,7.8896,7.8744,7.8896,7.8858,7.8744,7.8858,7.8858,7.8744,7.9008,7.9196,7.9079,7.7892,7.674,7.5674,7.5115,7.4819,7.4819,7.4819,7.3893,7.197,7.3964,7.3786,7.133,7.3078,7.2826,7.0225,7.0047,6.9406,6.8016,6.7909,6.8158,6.8587,6.8658,6.8587,6.8479,6.8479,6.848,6.8622,6.9406,6.9156,6.7623,6.7102,6.6336,6.5081,6.4608,6.3756,6.2598,6.2484,6.3439,6.6047,6.4523,6.4425,6.6522,6.5491,6.4466,6.4875,6.481,6.4681,6.5553,6.7542,6.9642,7.0514,7.2659,7.5032,7.4692,7.2166,7.119,7.3674,7.4245,7.4769,7.492,7.4772,7.5032,7.4698,7.4846,7.5032,7.5032,7.5032,7.5032,7.489,7.5032,7.4961,7.4997,7.4926,7.5032,7.5032,7.5032,7.5032,7.4997,7.4536,7.4287,7.6271,7.6271,7.6271,7.6271,0.0,7.6271,7.5108,7.3169,7.2026,7.1496,7.1455,7.1073,7.113,7.1511,7.2057,7.271,7.3475,7.3444,7.4103,7.5167,7.5171,7.517,7.5237,7.6427,7.6949,7.6949,7.6949,7.6949,7.6986,7.7357,7.7543,7.7543,7.7951,7.814,7.807,7.7,7.5956,7.5032,7.4641,7.4465,7.4465,7.4465,7.3717,7.2219,7.3646,0.0,0.0,0.0,0.0,0.0,0.0,0.0,0.0,0.0,0.0,6.25,6.1874,6.0642,5.8731,5.9337,6.0743,6.2753,6.3308,6.2856,6.1354,6.1189,6.0436,5.8729,5.8263,5.8324,5.8782,5.8916,5.9089,5.9417,5.8576,5.8534,6.0126,5.9812,6.0093,6.164,6.1025,6.1043,6.2887,6.3723,6.4768,6.8064,6.8971,6.958,7.1074,6.8605,6.6709,6.8643,7.0243,7.0929,6.9672,7.1315,7.3445,7.2075,7.2834,7.3708,7.3822,7.3857,7.3857,7.3895,7.3822,7.3822,7.3857,7.3895,7.3857,7.3895,7.3859,7.3822,7.3822,7.3574,7.3396,7.4068,7.4103,7.4033,7.4068,7.3995,7.3331,7.1148,6.8077,6.7727,6.7571,6.7552,6.7383,6.7482,6.7688,6.889,6.9565,6.9887,7.0507,7.1589,7.2892,7.2571,7.268,7.3185,7.4104,7.4655,7.4765,7.4765,7.4839,7.506,7.5684,7.5941,7.5978,7.6601,7.6977,7.7061,0.0,0.0,0.0,7.3857,7.3646,7.3646,7.3646,7.3111,7.2114,7.3113,0.0,7.1649,7.1437,7.0581,6.9121,6.8479,0.0,0.0,0.0,0.0,0.0,0.0,0.0,0.0,0.0,0.0,0.0,5.5091,5.4567,5.4295,5.4361,5.3804,5.2289,5.2037,5.2844,5.485,5.5178,5.4573,5.3041,5.2521,5.2703,5.3755,5.3987,5.5313,5.8448,5.7026,5.6929,5.9677,5.9121,5.9934,6.4462,6.4297,6.4197,6.6137,6.3622,6.1912,6.2395,6.5112,6.5963,6.3541,6.7529,6.9566,6.8053,6.9221,7.0384,7.0283,7.0286,7.0473,7.1574,7.1128,7.0901,7.2533,7.2161,7.193,7.2607,7.2718,7.2206,7.0668,7.0815,7.1437,7.0621,7.0621,7.0621,7.0621,7.0364,6.7103,6.5441,6.4976,6.5581,6.5853,6.5764,6.5212,6.5358,6.5989,6.5495,6.606,6.7354,6.7462,6.7961,6.8901,7.0247,7.0475,6.9905,7.1449,7.2535,7.3153,7.319,7.3517,7.4207,7.4316,7.4352,7.4389,7.4498,7.4862,7.5447,7.3964,7.2796,7.2005,7.2577,7.2862,7.2862,7.2862,7.1829,6.9833,7.1722,7.1223,6.7873,6.9477,6.8622,6.4558,6.4166,6.3381,6.188,6.0775,5.8692,0.0,5.4463,0.0,0.0,0.0,0.0,0.0,0.0,0.0,0.0,4.9683,4.9264,4.6744,4.8322,4.8564,4.6359,4.6598,4.796,5.0471,4.9109,4.8934,5.1454,5.006,4.9232,5.0225,5.0065,5.0171,5.1599,5.4537,5.6671,5.8207,6.0546,6.1239,5.8661,5.7203,5.7133,5.8627,6.1229,6.2653,6.2815,6.3754,6.4291,6.3398,6.37,6.3529,6.3267,6.3166,6.4066,6.6709,6.5692,6.5916,7.1719,7.026,6.9508,7.1503,7.1878,6.9835,6.4443,6.4598,6.6734,6.7728,6.7369,6.6917,6.6011,6.4666,6.2599,6.1753,6.1759,6.1753,6.1743,6.1712,6.1901,6.2387,6.311,6.2758,6.3219,6.4231,6.4261,6.4938,6.6098,6.6884,6.7253,6.7338,6.8471,6.9431,7.0143,7.0224,7.062,7.1303,7.1377,7.163,7.21,7.2494,7.1735,7.0047,7.0906,7.165,7.2148,7.2541,7.2682,7.2682,7.2682,7.1793,6.994,7.0867,7.0154,6.7624,6.7696,6.6839,6.4772,6.3417,6.2205,6.1029,5.7059,5.4164,0.0,0.0,0.0,0.0,0.0,0.0,0.0,0.0,0.0,0.0,0.0,4.2295,4.4221,4.5111,4.4463,4.1859,4.2123,4.337,4.5547,4.4293,4.4422,4.7329,4.6642,4.6331,4.731,4.7639,4.8122,4.9042,5.0858,5.2894,5.5048,5.5239,5.4436,5.2486,5.2189,5.2498,5.3248,5.4423,5.5918,5.8098,5.9733,6.0273,5.8589,5.9418,6.0468,6.0157,6.0132,6.0627,6.2118,6.1554,6.1686,6.4323,6.3908,6.3467,6.4759,6.4929,6.3359,6.0008,6.0683,6.2126,6.4628,6.3951,6.1107,5.9268,5.8242,5.795,5.8361,5.9108,5.8815,5.8742,5.8777,5.9318,5.9353,5.8925,5.8049,5.8464,5.9877,6.0167,6.1478,6.3384,6.3634,6.399,6.4632,6.5413,6.6181,6.6903,6.69,6.7435,6.8346,6.8188,6.8258,6.856,6.8867,6.7624,6.5059,6.741,6.9727,7.1827,7.1864,7.1971,7.2149,7.1971,7.1223,6.9833,6.9655,6.8907,6.7553,6.6164,6.5199,6.4593,6.1931,5.9912,5.8743,5.2397,0.0,0.0,0.0,0.0,0.0,0.0,0.0,0.0,0.0,3.4563,3.4254,0.0,3.6324,0.0,4.1604,4.1188,3.9834,3.986,0.0,0.0,4.0418,4.0548,4.2811,4.3331,4.3922,4.5125,4.5984,4.6833,4.7873,4.8174,4.936,5.1749,4.9929,4.8236,4.8366,4.8652,4.8938,4.9391,4.9408,4.9938,5.2746,5.5035,5.5504,5.3082,5.4578,5.6141,5.6057,5.6027,5.6408,5.7202,5.6845,5.7007,5.859,5.7982,5.7384,5.6271,5.6311,5.6334,5.5592,5.6392,5.7309,6.103,6.0244,5.143,4.9197,5.1521,5.2254,5.4473,5.7695,5.8355,5.8742,5.8742,5.8783,5.6624,5.277,4.9496,0.0,5.3124,5.434,5.6767,6.0244,6.0989,6.1349,6.1429,6.2241,6.2986,6.3729,6.3735,6.452,6.5907,6.5237,6.4201,6.2908,6.2233,6.2062,6.2526,6.342,6.577,6.9406,6.9477,6.9833,7.051,6.9833,6.9085,6.8231,6.7552,6.6768,6.5914,6.5059,6.3667,6.1456,5.7456,5.4325,5.2262,0.0,0.0,0.0,0.0,0.0,0.0,0.0,0.0,0.0,0.0,0.0,0.0,0.0,0.0,3.4798,3.733,0.0,4.0742,3.9964,0.0,0.0,0.0,3.8181,3.8877,3.989,4.1042,4.2192,0.0,0.0,4.5517,4.6538,4.6868,4.612,4.6269,4.6625,4.711,4.6833,4.7102,4.8574,4.7941,4.7762,4.9202,4.9263,4.8938,4.8176,4.7805,4.8211,4.7837,4.7695,4.8899,5.1848,5.0005,4.9888,5.6474,5.4866,5.1991,4.8254,4.9475,5.0414,4.8392,5.005,5.2218,5.3889,4.9486,4.5737,4.5054,4.6377,4.6381,4.7999,5.0728,5.2131,5.1706,5.009,5.1609,4.9961,4.5869,4.4431,0.0,0.0,0.0,5.0951,5.5322,5.5934,5.7434,5.9613,6.0423,6.0989,6.131,6.1738,6.2276,6.2886,6.2996,5.8818,5.0576,0.0,0.0,5.2792,5.7681,6.1586,6.4255,6.7035,6.8658,6.8943,6.8658,6.7875,6.6698,6.6306,6.5344,6.3667,6.285,6.1136,5.8314,5.5241,5.1901,0.0,0.0,0.0,0.0,0.0,0.0,0.0,0.0,0.0,0.0,0.0,2.8437,2.6705,0.0,0.0,0.0,3.2199,3.3656,3.5656,3.6355,0.0,0.0,0.0,0.0,0.0,0.0,0.0,3.9221,4.0917,4.2389,4.3604,4.4208,4.4312,4.3837,4.4253,4.4824,4.543,0.0,4.6045,4.7128,4.6859,4.6764,4.7171,4.6469,4.6027,4.6495,4.6218,4.5811,4.5334,4.5204,4.5722,4.6896,4.64,4.6483,4.9583,4.8302,4.603,4.4565,4.5359,4.5964,4.4891,4.5975,4.7396,4.566,0.0,0.0,0.0,0.0,4.0581,4.1903,4.4425,4.5739,4.5085,4.3213,4.5011,0.0,0.0,0.0,0.0,0.0,0.0,4.6413,5.1092,5.2882,5.5111,5.7719,5.8712,5.9205,5.9241,5.9776,5.95,5.8495,5.7329,5.1549,4.179,0.0,0.0,0.0,0.0,5.756,6.0578,6.504,6.7554,6.8052,6.7624,6.6841,6.577,6.4879,6.3563,6.1924,5.9718,5.7329,5.4685,5.0548,0.0,0.0,0.0,0.0,0.0,0.0,0.0,0.0,0.0,0.0,0.0,0.0,0.0,0.0,0.0,0.0,0.0,0.0,0.0,3.2047,3.3607,3.4203,0.0,0.0,0.0,0.0,0.0,0.0,0.0,0.0,0.0,4.0929,4.1448,4.1973,0.0,0.0,4.35,4.3922,4.4331,4.4765,4.5404,4.5352,0.0,4.5248,4.4579,4.4241,4.4917,4.4772,4.4298,4.3636,4.3799,4.3903,4.3565,4.3766,4.4052,4.4227,4.2954,4.1999,4.2233,4.2435,4.2643,4.2818,4.3448,4.417,0.0,0.0,0.0,0.0,0.0,0.0,0.0,0.0,4.0249,4.0162,0.0,4.0271,0.0,0.0,0.0,0.0,3.5213,3.9449,0.0,0.0,5.2629,5.5161,5.5304,5.6728,5.7565,5.7594,5.747,5.5718,5.2244,4.6472,0.0,0.0,0.0,0.0,0.0,0.0,5.3942,5.8886,6.3294,6.645,6.7804,6.6452,6.5702,6.5594,6.2775,6.1167,6.0828,5.5604,5.1973,5.0526,4.2056,0.0,0.0,0.0,0.0,0.0,0.0,0.0,0.0,0.0,0.0,0.0,0.0,0.0,0.0,0.0,0.0,0.0,0.0,0.0,0.0,3.2794,0.0,0.0,0.0,0.0,0.0,0.0,0.0,0.0,0.0,0.0,3.7081,3.8378,4.0046,4.1744,0.0,0.0,0.0,0.0,4.3,4.3538,4.3214,4.2909,4.2909,4.2857,4.2655,4.2212,0.0,0.0,4.1318,4.2077,4.2415,4.1344,4.2071,4.2681,4.2108,4.0461,3.9675,4.069,4.0513,4.0518,4.1007,4.1765,4.2571,0.0,0.0,0.0,0.0,0.0,0.0,0.0,0.0,0.0,3.2992,3.1394,3.2836,0.0,0.0,0.0,0.0,0.0,0.0,0.0,0.0,4.2553,4.5154,4.7154,4.8767,4.9169,0.0,4.8045,4.5432,0.0,0.0,0.0,0.0,0.0,0.0,0.0,0.0,4.6677,4.9816,5.5644,5.9913,6.2168,6.179,6.2347,6.4031,6.213,5.9348,5.5817,5.2303,4.9935,0.0,0.0,0.0,0.0,0.0,0.0,0.0,0.0,0.0,0.0,0.0,0.0,0.0,0.0,0.0,0.0,0.0,0.0,0.0,0.0,0.0,0.0,0.0,3.1265,0.0,0.0,0.0,0.0,0.0,0.0,0.0,0.0,0.0,3.3178,3.5501,3.7721,3.9001,4.0305,4.1375,4.2134,0.0,0.0,0.0,0.0,0.0,0.0,0.0,4.0565,4.0777,3.9456,3.8306,3.8251,3.9189,3.9838,3.9478,0.0,0.0,3.7479,3.6411,3.6175,3.698,3.6954,3.7035,3.7605,3.8075,3.841,0.0,0.0,0.0,0.0,0.0,0.0,0.0,0.0,0.0,2.6328,2.4707,0.0,0.0,0.0,0.0,0.0,0.0,0.0,0.0,0.0,0.0,0.0,4.1453,4.2871,0.0,0.0,0.0,0.0,0.0,0.0,0.0,0.0,0.0,0.0,0.0,0.0,4.2312,4.4573,5.0966,5.5951,5.9149,5.8748,5.9816,6.2497,6.106,5.7766,5.2451,0.0,0.0,0.0,0.0,0.0,0.0,0.0,0.0,0.0,0.0,0.0,0.0,0.0,0.0,0.0,0.0,0.0,0.0,0.0,0.0,0.0,0.0,0.0,0.0,0.0,2.8878,0.0,0.0,0.0,0.0,0.0,0.0,0.0,0.0,0.0,0.0,0.0,3.5171,3.695,3.846,3.982,4.0938,4.125,4.151,0.0,0.0,0.0,0.0,0.0,0.0,0.0,0.0,0.0,0.0,0.0,0.0,0.0,0.0,3.7708,3.454,3.3448,3.3114,3.3352,0.0,0.0,0.0,0.0,0.0,0.0,0.0,0.0,0.0,0.0,0.0,0.0,0.0,0.0,0.0,2.0619,0.0,0.0,2.1405,0.0,0.0,0.0,0.0,0.0,0.0,0.0,0.0,0.0,0.0,0.0,0.0,0.0,0.0,0.0,0.0,0.0,0.0,0.0,0.0,0.0,0.0,4.1046,4.3588,4.9531,5.4737,5.8652,5.7488,5.7899,6.0546,5.9374,5.6238,5.1126,0.0,0.0,0.0,0.0,0.0,0.0,0.0,0.0,0.0,0.0,0.0,0.0,0.0,0.0,0.0,0.0,0.0,0.0,0.0,0.0,0.0,0.0,0.0,0.0,0.0,0.0,2.6431,2.7579,2.8022,0.0,0.0,0.0,0.0,0.0,0.0,0.0,0.0,0.0,3.5574,3.699,3.8046,3.9156,3.9782,4.0236,4.0232,4.0643,4.0799,4.0336,4.0622,4.0202,0.0,0.0,0.0,0.0,0.0,0.0,0.0,0.0,0.0,0.0,0.0,0.0,0.0,0.0,0.0,0.0,0.0,0.0,0.0,0.0,0.0,0.0,0.0,0.0,0.0,0.0,0.0,0.0,0.0,0.0,0.0,0.0,0.0,0.0,0.0,0.0,0.0,0.0,0.0,0.0,0.0,0.0,0.0,0.0,0.0,0.0,0.0,0.0,0.0,0.0,0.0,0.0,0.0,0.0,3.6909,3.8817,4.3454,4.7406,5.0511,5.0121,5.1203,5.3986,5.4788,5.3028,0.0,0.0,0.0,0.0,0.0,0.0,0.0,0.0,0.0,0.0,0.0,0.0,0.0,0.0,0.0,0.0,0.0,0.0,0.0,0.0,0.0,0.0,0.0,0.0,0.0,0.0,0.0,0.0,2.7896,2.8061,2.6945,0.0,0.0,0.0,0.0,0.0,0.0,0.0,0.0,0.0,0.0,3.7015,3.852,3.8899,3.9137,3.9526,3.9367,3.9345,3.9493,3.9088,3.8334,3.7215,0.0,0.0,0.0,0.0,0.0,0.0,0.0,0.0,0.0,0.0,0.0,0.0,0.0,0.0,0.0,0.0,0.0,0.0,0.0,0.0,0.0,0.0,0.0,0.0,0.0,0.0,0.0,0.0,0.0,0.0,0.0,0.0,0.0,0.0,0.0,0.0,0.0,0.0,0.0,0.0,0.0,0.0,0.0,0.0,0.0,0.0,0.0,0.0,0.0,0.0,0.0,0.0,0.0,3.4826,3.6772,4.0513,4.3885,4.6671,4.6538,4.7769,5.0588,5.1361,4.9371,0.0,0.0,0.0,0.0,0.0,0.0,0.0,0.0,0.0,0.0,0.0,0.0,0.0,0.0,0.0,0.0,0.0,0.0,0.0,0.0,0.0,0.0,0.0,0.0,0.0,0.0,0.0,0.0,2.5395,2.6031,2.574,0.0,0.0,0.0,0.0,0.0,0.0,0.0,0.0,0.0,0.0,3.5011,3.6659,3.7266,0.0,0.0,3.841,3.8464,3.9185,3.8565,3.7581,3.6305,3.4929,0.0,0.0,0.0,0.0,0.0,0.0,0.0,0.0,0.0,0.0,0.0,0.0,0.0,0.0,0.0,0.0,0.0,0.0,0.0,0.0,0.0,0.0,0.0,0.0,0.0,0.0,0.0,0.0,0.0,0.0,0.0,0.0,0.0,0.0,0.0,0.0,0.0,0.0,0.0,0.0,0.0,0.0,0.0,0.0,0.0,0.0,0.0,0.0,0.0,0.0,0.0,0.0,3.4462,3.672,4.0128,4.3334,4.6277,4.5743,4.6634,4.9205,4.8682,4.5495,0.0,0.0,0.0,0.0,0.0,0.0,0.0,0.0,0.0,0.0,0.0,0.0,0.0,0.0,0.0,0.0,0.0,0.0,0.0,0.0,0.0,0.0,0.0,0.0,0.0,0.0,0.0,0.0,0.0,0.0,0.0,0.0,0.0,0.0,0.0,0.0,0.0,0.0,0.0,0.0,0.0,3.2441,3.412,3.5156,3.6176,0.0,3.7479,3.7763,3.8712,3.8456,3.7421,3.524,0.0,0.0,0.0,0.0,0.0,0.0,0.0,0.0,0.0,0.0,0.0,0.0,0.0,0.0,0.0,0.0,0.0,0.0,0.0,0.0,0.0,0.0,0.0,0.0,0.0,0.0,0.0,0.0,0.0,0.0,0.0,0.0,0.0,0.0,0.0,0.0,0.0,0.0,0.0,0.0,0.0,0.0,0.0,0.0,0.0,0.0,0.0,0.0,0.0,0.0,0.0,0.0,0.0,0.0,3.6177,3.9526,4.169,4.2445,4.225,4.2539,4.3218,4.4457,0.0,0.0,0.0,0.0,0.0,0.0,0.0,0.0,0.0,0.0,0.0,0.0,0.0,0.0,0.0,0.0,0.0,0.0,0.0,0.0,0.0,0.0,0.0,0.0,0.0,0.0,0.0,1.8213,0.0,0.0,0.0,0.0,0.0,0.0,0.0,0.0,0.0,0.0,0.0,0.0,0.0,0.0,3.1868,3.3441,3.3894,3.4359,0.0,0.0,3.4592,3.4866,3.5106,3.493,0.0,0.0,0.0,0.0,0.0,0.0,0.0,0.0,0.0,0.0,0.0,0.0,0.0,0.0,0.0,0.0,0.0,0.0,0.0,0.0,0.0,0.0,0.0,0.0,0.0,0.0,0.0,0.0,0.0,0.0,0.0,0.0,0.0,0.0,0.0,0.0,0.0,0.0,0.0,0.0,0.0,0.0,0.0,0.0,0.0,0.0,0.0,0.0,0.0,0.0,0.0,0.0,0.0,0.0,3.2724,3.5527,3.8436,4.0305,4.095,4.0799,4.0669,4.07,4.148,3.9794,0.0,0.0,0.0,0.0,0.0,0.0,0.0,0.0,0.0,0.0,0.0,0.0,0.0,0.0,0.0,0.0,0.0,0.0,0.0,0.0,0.0,0.0,0.0,0.0,0.0,0.0,0.0,0.0,0.0,0.0,0.0,0.0,0.0,0.0,0.0,0.0,0.0,0.0,0.0,0.0,0.0,0.0,3.1866,3.1834,0.0,0.0,0.0,3.2324,3.3279,0.0,0.0,0.0,0.0,0.0,0.0,0.0,0.0,0.0,0.0,0.0,0.0,0.0,0.0,0.0,0.0,0.0,0.0,0.0,0.0,0.0,0.0,0.0,0.0,0.0,0.0,0.0,0.0,0.0,0.0,0.0,0.0,0.0,0.0,0.0,0.0,0.0,0.0,0.0,0.0,0.0,0.0,0.0,0.0,0.0,0.0,0.0,0.0,0.0,0.0,0.0,0.0,0.0,0.0,0.0,0.0,0.0,3.4878,3.7319,3.9319,4.0721,4.0362,4.0128,4.0102,3.9474,3.755,0.0,0.0,0.0,0.0,0.0,0.0,0.0,0.0,0.0,0.0,0.0,0.0,0.0,0.0,0.0,0.0,0.0,0.0,0.0,0.0,0.0,0.0,0.0,0.0,0.0,0.0,0.0,0.0,0.0,0.0,0.0,0.0,0.0,0.0,0.0,0.0,0.0,0.0,0.0,0.0,0.0,2.9344,2.9866,2.958,2.9724,0.0,0.0,3.0475,3.2523,3.1897,0.0,0.0,0.0,0.0,0.0,0.0,0.0,0.0,0.0,0.0,0.0,0.0,0.0,0.0,0.0,0.0,0.0,0.0,0.0,0.0,0.0,0.0,0.0,0.0,0.0,0.0,0.0,0.0,0.0,0.0,0.0,0.0,0.0,0.0,0.0,0.0,0.0,0.0,0.0,0.0,0.0,0.0,0.0,0.0,0.0,0.0,0.0,0.0,0.0,0.0,0.0,0.0,0.0,0.0,0.0,0.0,3.4384,3.7499,3.9286,3.9597,3.9493,3.9471,3.9441,3.8542,3.6827,0.0,0.0,0.0,0.0,0.0,0.0,0.0,0.0,0.0,0.0,0.0,0.0,0.0,0.0,0.0,0.0,0.0,0.0,0.0,0.0,0.0,0.0,0.0,0.0,0.0,0.0,0.0,0.0,0.0,0.0,0.0,0.0,0.0,0.0,0.0,0.0,0.0,0.0,0.0,0.0,0.0,2.831,2.8784,2.8776,0.0,0.0,0.0,0.0,2.9335,2.8678,0.0,0.0,0.0,0.0,0.0,0.0,0.0,0.0,0.0,0.0,0.0,0.0,0.0,0.0,0.0,0.0,0.0,0.0,0.0,0.0,0.0,0.0,0.0,0.0,0.0,0.0,0.0,0.0,0.0,0.0,0.0,0.0,0.0,0.0,0.0,0.0,0.0,0.0,0.0,0.0,0.0,0.0,0.0,0.0,0.0,0.0,0.0,0.0,0.0,0.0,0.0,0.0,0.0,0.0,0.0,0.0,3.4462,3.6616,3.8199,3.9208,3.9,3.8799,3.8514,3.7711,3.5891,0.0,0.0,0.0,0.0,0.0,0.0,0.0,0.0,0.0,0.0,0.0,0.0,0.0,0.0,0.0,0.0,0.0,0.0,0.0,0.0,0.0,0.0,0.0,0.0,0.0,0.0,0.0,0.0,0.0,0.0,0.0,0.0,0.0,0.0,0.0,0.0,0.0,0.0,0.0,0.0,2.6241,2.7345,2.8065,0.0,0.0,0.0,0.0,0.0,0.0,2.6911,2.6131,0.0,0.0,0.0,0.0,0.0,0.0,0.0,0.0,0.0,0.0,0.0,0.0,0.0,0.0,0.0,0.0,0.0,0.0,0.0,0.0,0.0,0.0,0.0,0.0,0.0,0.0,0.0,0.0,0.0,0.0,0.0,0.0,0.0,0.0,0.0,0.0,0.0,0.0,0.0,0.0,0.0,0.0,0.0,0.0,0.0,0.0,0.0,0.0,0.0,0.0,0.0,0.0,0.0,0.0,0.0,3.4229,3.5189,3.6668,3.8767,3.8358,3.7919,3.7557,3.6746,3.4748,3.1549,0.0,0.0,0.0,0.0,0.0,0.0,0.0,0.0,0.0,0.0,0.0,0.0,0.0,0.0,0.0,0.0,0.0,0.0,0.0,0.0,0.0,0.0,0.0,0.0,0.0,0.0,0.0,0.0,0.0,0.0,0.0,0.0,0.0,0.0,0.0,0.0,0.0,0.0,0.0,2.5339,2.6306,0.0,0.0,0.0,0.0,0.0,0.0,0.0,0.0,2.4998,0.0,0.0,0.0,0.0,0.0,0.0,0.0,0.0,0.0,0.0,0.0,0.0,0.0,0.0,0.0,0.0,0.0,0.0,0.0,0.0,0.0,0.0,0.0,0.0,0.0,0.0,0.0,0.0,0.0,0.0,0.0,0.0,0.0,0.0,0.0,0.0,0.0,0.0,0.0,0.0,0.0,0.0,0.0,0.0,0.0,0.0,0.0,0.0,0.0,0.0,0.0,0.0,0.0,0.0,0.0,0.0,3.3423,3.5346,3.7031,3.659,3.6514,3.6877,3.5397,3.3239,3.0307,0.0,0.0,0.0,0.0,0.0,0.0,0.0,0.0,0.0,0.0,0.0,0.0,0.0,0.0,0.0,0.0,0.0,0.0,0.0,0.0,0.0,0.0,0.0,0.0,0.0,0.0,0.0,0.0,0.0,0.0,0.0,0.0,0.0,0.0,0.0,0.0,0.0,0.0,2.0071,2.2921,0.0,0.0,0.0,0.0,0.0,0.0,0.0,0.0,2.4544,0.0,0.0,0.0,0.0,0.0,0.0,0.0,0.0,0.0,0.0,0.0,0.0,0.0,0.0,0.0,0.0,0.0,0.0,0.0,0.0,0.0,0.0,0.0,0.0,0.0,0.0,0.0,0.0,0.0,0.0,0.0,0.0,0.0,0.0,0.0,0.0,0.0,0.0,0.0,0.0,0.0,0.0,0.0,0.0,0.0,0.0,0.0,0.0,0.0,0.0,0.0,0.0,0.0,0.0,0.0,0.0,0.0,0.0,3.4618,3.6254,3.6099,3.5761,3.5372,3.3423,3.1606,0.0,0.0,0.0,0.0,0.0,0.0,0.0,0.0,0.0,0.0,0.0,0.0,0.0,0.0,0.0,0.0,0.0,0.0,0.0,0.0,0.0,0.0,0.0,0.0,0.0,0.0,0.0,0.0,0.0,0.0,0.0,0.0,0.0,0.0,0.0,0.0,0.0,0.0,0.0,0.0,0.0,0.0,0.0,0.0,0.0,0.0,0.0,0.0,0.0,0.0,0.0,0.0,0.0,0.0,0.0,0.0,0.0,0.0,0.0,0.0,0.0,0.0,0.0,0.0,0.0,0.0,0.0,0.0,0.0,0.0,0.0,0.0,0.0,0.0,0.0,0.0,0.0,0.0,0.0,0.0,0.0,0.0,0.0,0.0,0.0,0.0,0.0,0.0,0.0,0.0,0.0,0.0,0.0,0.0,0.0,0.0,0.0,0.0,0.0,0.0,0.0,0.0,0.0,0.0,0.0,0.0,0.0,0.0,3.3889,3.5528,3.5476,3.506,3.4202,3.1839,3.021,0.0,0.0,0.0,0.0,0.0,0.0,0.0,0.0,0.0,0.0,0.0,0.0,0.0,0.0,0.0,0.0,0.0,0.0,0.0,0.0,0.0,0.0,0.0,0.0,0.0,0.0,0.0,0.0,0.0,0.0,0.0,0.0,0.0,0.0,0.0,0.0,0.0,0.0,0.0,0.0,0.0,0.0,0.0,0.0,0.0,0.0,0.0,0.0,2.2316,0.0,0.0,0.0,0.0,0.0,0.0,0.0,0.0,0.0,0.0,0.0,0.0,0.0,0.0,0.0,0.0,0.0,0.0,0.0,0.0,0.0,0.0,0.0,0.0,0.0,0.0,0.0,0.0,0.0,0.0,0.0,0.0,0.0,0.0,0.0,0.0,0.0,0.0,0.0,0.0,0.0,0.0,0.0,0.0,0.0,0.0,0.0,0.0,0.0,0.0,0.0,0.0,0.0,0.0,0.0,0.0,0.0,0.0,0.0,3.2693,3.4358,3.3941,3.3838,3.4098,3.1476,2.9502,0.0,0.0,0.0,0.0,0.0,0.0,0.0,0.0,0.0,0.0,0.0,0.0,0.0,0.0,0.0,0.0,0.0,0.0,0.0,0.0,0.0,0.0,0.0,0.0,0.0,0.0,0.0,0.0,0.0,0.0,0.0,0.0,0.0,0.0,0.0,0.0,0.0,0.0,0.0,0.0,0.0,0.0,0.0,0.0,0.0,0.0,0.0,0.0,0.0,0.0,0.0,0.0,0.0,0.0,0.0,0.0,0.0,0.0,0.0,0.0,0.0,0.0,0.0,0.0,0.0,0.0,0.0,0.0,0.0,0.0,0.0,0.0,0.0,0.0,0.0,0.0,0.0,0.0,0.0,0.0,0.0,0.0,0.0,0.0,0.0,0.0,0.0,0.0,0.0,0.0,0.0,0.0,0.0,0.0,0.0,0.0,0.0,0.0,0.0,0.0,0.0,0.0,0.0,0.0,0.0,0.0,0.0,0.0,3.0645,3.2669,3.2823,3.2849,3.2721,2.9988,2.8074,0.0,0.0,0.0,0.0,0.0,0.0,0.0,0.0,0.0,0.0,0.0,0.0,0.0,0.0,0.0,0.0,0.0,0.0,0.0,0.0,0.0,0.0,0.0,0.0,0.0,0.0,0.0,0.0,0.0,0.0,0.0,0.0,0.0,0.0,0.0,0.0,0.0,0.0,0.0,0.0,0.0,0.0,0.0,0.0,0.0,0.0,0.0,0.0,0.0,0.0,0.0,0.0,0.0,0.0,0.0,0.0,0.0,0.0,0.0,0.0,0.0,0.0,0.0,0.0,0.0,0.0,0.0,0.0,0.0,0.0,0.0,0.0,0.0,0.0,0.0,0.0,0.0,0.0,0.0,0.0,0.0,0.0,0.0,0.0,0.0,0.0,0.0,0.0,0.0,0.0,0.0,0.0,0.0,0.0,0.0,0.0,0.0,0.0,0.0,0.0,0.0,0.0,0.0,0.0,0.0,0.0,0.0,0.0,0.0,3.0974,3.1657,3.1606,3.0769,2.8411,2.6651,0.0,0.0,0.0,0.0,0.0,0.0,0.0,0.0,0.0,0.0,0.0,0.0,0.0,0.0,0.0,0.0,0.0,0.0,0.0,0.0,0.0,0.0,0.0,0.0,0.0,0.0,0.0,0.0,0.0,0.0,0.0,0.0,0.0,0.0,0.0,0.0,0.0,0.0,0.0,0.0,0.0,0.0,0.0,0.0,0.0,0.0,0.0,0.0,0.0,0.0,0.0,0.0,0.0,0.0,0.0,0.0,0.0,0.0,0.0,0.0,0.0,0.0,0.0,0.0,0.0,0.0,0.0,0.0,0.0,0.0,0.0,0.0,0.0,0.0,0.0,0.0,0.0,0.0,0.0,0.0,0.0,0.0,0.0,0.0,0.0,0.0,0.0,0.0,0.0,0.0,0.0,0.0,0.0,0.0,0.0,0.0,0.0,0.0,0.0,0.0,0.0,0.0,0.0,0.0,0.0,0.0,0.0,0.0,0.0,2.933,3.0307,3.0028,2.8468,2.7176,2.5509,0.0,0.0,0.0,0.0,0.0,0.0,0.0,0.0,0.0,0.0,0.0,0.0,0.0,0.0,0.0,0.0,0.0,0.0,0.0,0.0,0.0,0.0,0.0,0.0,0.0,0.0,0.0,0.0,0.0,0.0,0.0,0.0,0.0,0.0,0.0,0.0,0.0,0.0,0.0,0.0,0.0,0.0,0.0,0.0,0.0,0.0,0.0,0.0,0.0,0.0,0.0,0.0,0.0,0.0,0.0,0.0,0.0,0.0,0.0,0.0,0.0,0.0,0.0,0.0,0.0,0.0,0.0,0.0,0.0,0.0,0.0,0.0,0.0,0.0,0.0,0.0,0.0,0.0,0.0,0.0,0.0,0.0,0.0,0.0,0.0,0.0,0.0,0.0,0.0,0.0,0.0,0.0,0.0,0.0,0.0,0.0,0.0,0.0,0.0,0.0,0.0,0.0,0.0,0.0,0.0,0.0,0.0,0.0,0.0,2.5463,2.6801,2.7746,2.8161,2.573,2.43,2.4182,0.0,0.0,0.0,0.0,0.0,0.0,0.0,0.0,0.0,0.0,0.0,0.0,0.0,0.0,0.0,0.0,0.0,0.0,0.0,0.0,0.0,0.0,0.0,0.0,0.0,0.0,0.0,0.0,0.0,0.0,0.0,0.0,0.0,0.0,0.0,0.0,0.0,0.0,0.0,0.0,0.0,0.0,0.0,0.0,0.0,0.0,0.0,0.0,0.0,0.0,0.0,0.0,0.0,0.0,0.0,0.0,0.0,0.0,0.0,0.0,0.0,0.0,0.0,0.0,0.0,0.0,0.0,0.0,0.0,0.0,0.0,0.0,0.0,0.0,0.0,0.0,0.0,0.0,0.0,0.0,0.0,0.0,0.0,0.0,0.0,0.0,0.0,0.0,0.0,0.0,0.0,0.0,0.0,0.0,0.0,0.0,0.0,0.0,0.0,0.0,0.0,0.0,0.0,0.0,0.0,0.0,0.0,0.0,2.3391,2.5035,2.6216,2.6735,2.4604,2.3174,0.0,0.0,0.0,0.0,0.0,0.0,0.0,0.0,0.0,0.0,0.0,0.0,0.0,0.0,0.0,0.0,0.0,0.0,0.0,0.0,0.0,0.0,0.0,0.0,0.0,0.0,0.0,0.0,0.0,0.0,0.0,0.0,0.0,0.0,0.0,0.0,0.0,0.0,0.0,0.0,0.0,0.0,0.0,0.0,0.0,0.0,0.0,0.0,0.0,0.0,0.0,0.0,0.0,0.0,0.0,0.0,0.0,0.0,0.0,0.0,0.0,0.0,0.0,0.0,0.0,0.0,0.0,0.0,0.0,0.0,0.0,0.0,0.0,0.0,0.0,0.0,0.0,0.0,0.0,0.0,0.0,0.0,0.0,0.0,0.0,0.0,0.0,0.0,0.0,0.0,0.0,0.0,0.0,0.0,0.0,0.0,0.0,0.0,0.0,0.0,0.0,0.0,0.0,0.0,0.0,0.0,0.0,0.0,2.0558,2.3737,2.5419,2.5575,2.4038,2.39,2.2041,0.0,0.0,0.0,0.0,0.0,0.0,0.0,0.0,0.0,0.0,0.0,0.0,0.0,0.0,0.0,0.0,0.0,0.0,0.0,0.0,0.0,0.0,0.0,0.0,0.0,0.0,0.0,0.0,0.0,0.0,0.0,0.0,0.0,0.0,0.0,0.0,0.0,0.0,0.0,0.0,0.0,0.0,0.0,0.0,0.0,0.0,0.0,0.0,0.0,0.0,0.0,0.0,0.0,0.0,0.0,0.0,0.0,0.0,0.0,0.0,0.0,0.0,0.0,0.0,0.0,0.0,0.0,0.0,0.0,0.0,0.0,0.0,0.0,0.0,0.0,0.0,0.0,0.0,0.0,0.0,0.0,0.0,0.0,0.0,0.0,0.0,0.0,0.0,0.0,0.0,0.0,0.0,0.0,0.0,0.0,0.0,0.0,0.0,0.0,0.0,0.0,0.0,0.0,0.0,0.0,0.0,0.0,0.0,0.0,2.048,0.0,2.3857,0.0,2.3407,2.1872,0.0,0.0,0.0,0.0,0.0,0.0,0.0,0.0,0.0,0.0,0.0,0.0,0.0,0.0,0.0,0.0,0.0,0.0,0.0,0.0,0.0,0.0,0.0,0.0,0.0,0.0,0.0,0.0,0.0,0.0,0.0,0.0,0.0,0.0,0.0,0.0,0.0,0.0,0.0,0.0,0.0,0.0,0.0,0.0,0.0,0.0,0.0,0.0,0.0,0.0,0.0,0.0,0.0,0.0,0.0,0.0,0.0,0.0,0.0,0.0,0.0,0.0,0.0,0.0,0.0,0.0,0.0,0.0,0.0,0.0,0.0,0.0,0.0,0.0,0.0,0.0,0.0,0.0,0.0,0.0,0.0,0.0,0.0,0.0,0.0,0.0,0.0,0.0,0.0,0.0,0.0,0.0,0.0,0.0,0.0,0.0,0.0,0.0,0.0,0.0,0.0,0.0,0.0,0.0,0.0,0.0,0.0,0.0,0.0,1.9787,2.0363,2.1852,2.4367,2.2476,2.1373,0.0,0.0,0.0,0.0,0.0,0.0,0.0,0.0,0.0,0.0,0.0,0.0,0.0,0.0,0.0,0.0,0.0,0.0,0.0,0.0,0.0,0.0,0.0,0.0,0.0,0.0,0.0,0.0,0.0,0.0,0.0,0.0,0.0,0.0,0.0,0.0,0.0,0.0,0.0,0.0,0.0,0.0,0.0,0.0,0.0,0.0,0.0,0.0,0.0,0.0,0.0,0.0,0.0,0.0,0.0,0.0,0.0,0.0,0.0,0.0,0.0,0.0,0.0,0.0,0.0,0.0,0.0,0.0,0.0,0.0,0.0,0.0,0.0,0.0,0.0,0.0,0.0,0.0,0.0,0.0,0.0,0.0,0.0,0.0,0.0,0.0,0.0,0.0,0.0,0.0,0.0,0.0,0.0,0.0,0.0,0.0,0.0,0.0,0.0,0.0,0.0,0.0,0.0,0.0,0.0,0.0,0.0,0.0,0.0,2.1108,1.9988,1.989,2.1129,2.1121,2.06,0.0,0.0,0.0,0.0,0.0,0.0,0.0,0.0,0.0,0.0,0.0,0.0,0.0,0.0,0.0,0.0,0.0,0.0,0.0,0.0,0.0,0.0,0.0,0.0,0.0,0.0,0.0,0.0,0.0,0.0,0.0,0.0,0.0,0.0,0.0,0.0,0.0,0.0,0.0,0.0,0.0,0.0,0.0,0.0,0.0,0.0,0.0,0.0,0.0,0.0,0.0,0.0,0.0,0.0,0.0,0.0,0.0,0.0,0.0,0.0,0.0,0.0,0.0,0.0,0.0,0.0,0.0,0.0,0.0,0.0,0.0,0.0,0.0,0.0,0.0,0.0,0.0,0.0,0.0,0.0,0.0,0.0,0.0,0.0,0.0,0.0,0.0,0.0,0.0,0.0,0.0,0.0,0.0,0.0,0.0,0.0,0.0,0.0,0.0,0.0,0.0,0.0,0.0,0.0,0.0,0.0,0.0,0.0,0.0,0.0,1.9125,1.9684,2.0045,2.0096,1.9892,1.9601,0.0,0.0,0.0,0.0,0.0,0.0,0.0,0.0,0.0,0.0,0.0,0.0,0.0,0.0,0.0,0.0,0.0,0.0,0.0,0.0,0.0,0.0,0.0,0.0,0.0,0.0,0.0,0.0,0.0,0.0,0.0,0.0,0.0,0.0,0.0,0.0,0.0,0.0,0.0,0.0,0.0,0.0,0.0,0.0,0.0,0.0,0.0,0.0,0.0,0.0,0.0,0.0,0.0,0.0,0.0,0.0,0.0,0.0,0.0,0.0,0.0,0.0,0.0,0.0,0.0,0.0,0.0,0.0,0.0,0.0,0.0,0.0,0.0,0.0,0.0,0.0,0.0,0.0,0.0,0.0,0.0,0.0,0.0,0.0,0.0,0.0,0.0,0.0,0.0,0.0,0.0,0.0,0.0,0.0,0.0,0.0,0.0,0.0,0.0,0.0,0.0,0.0,0.0,0.0,0.0,0.0,0.0,0.0,0.0,0.0,1.8375,1.8822,1.8847,1.8931,0.0,0.0,0.0,0.0,0.0,0.0,0.0,0.0,0.0,0.0,0.0,0.0,0.0,0.0,0.0,0.0,0.0,0.0,0.0,0.0,0.0,0.0,0.0,0.0,0.0,0.0,0.0,0.0,0.0,0.0,0.0,0.0,0.0,0.0,0.0,0.0,0.0,0.0,0.0,0.0,0.0,0.0,0.0,0.0,0.0,0.0,0.0,0.0,0.0,0.0,0.0,0.0,0.0,0.0,0.0,0.0,0.0,0.0,0.0,0.0,0.0,0.0,0.0,0.0,0.0,0.0,0.0,0.0,0.0,0.0,0.0,0.0,0.0,0.0,0.0,0.0,0.0,0.0,0.0,0.0,0.0,0.0,0.0,0.0,0.0,0.0,0.0,0.0,0.0,0.0,0.0,0.0,0.0,0.0,0.0,0.0,0.0,0.0,0.0,0.0,0.0,0.0,0.0,0.0,0.0,0.0,0.0,0.0,0.0,0.0,0.0,1.6377,1.7363,1.7418,0.0,1.8102,0.0,0.0,0.0,0.0,0.0,0.0,0.0,0.0,0.0,0.0,0.0,0.0,0.0,0.0,0.0,0.0,0.0,0.0,0.0,0.0,0.0,0.0,0.0,0.0,0.0,0.0,0.0,0.0,0.0,0.0,0.0,0.0,0.0,0.0,0.0,0.0,0.0,0.0,0.0,0.0,0.0,0.0,0.0,0.0,0.0,0.0,0.0,0.0,0.0,0.0,0.0,0.0,0.0,0.0,0.0,0.0,0.0,0.0,0.0,0.0,0.0,0.0,0.0,0.0,0.0,0.0,0.0,0.0,0.0,0.0,0.0,0.0,0.0,0.0,0.0,0.0,0.0,0.0,0.0,0.0,0.0,0.0,0.0,0.0,0.0,0.0,0.0,0.0,0.0,0.0,0.0,0.0,0.0,0.0,0.0,0.0,0.0,0.0,0.0,0.0,0.0,0.0,0.0,0.0,0.0,0.0,0.0,0.0,0.0,0.0,0.0,0.0,1.529,1.5324,1.5504,0.0,0.0,0.0,0.0,0.0,0.0,0.0,0.0,0.0,0.0,0.0,0.0,0.0,0.0,0.0,0.0,0.0,0.0,0.0,0.0,0.0,0.0,0.0,0.0,0.0,0.0,0.0,0.0,0.0,0.0,0.0,0.0,0.0,0.0,0.0,0.0,0.0,0.0,0.0,0.0,0.0,0.0,0.0,0.0,0.0,0.0,0.0,0.0,0.0,0.0,0.0,0.0,0.0,0.0,0.0,0.0,0.0,0.0,0.0,0.0,0.0,0.0,0.0,0.0,0.0,0.0,0.0,0.0,0.0,0.0,0.0,0.0,0.0,0.0,0.0,0.0,0.0,0.0,0.0,0.0,0.0,0.0,0.0,0.0,0.0,0.0,0.0,0.0,0.0,0.0,0.0,0.0,0.0,0.0,0.0,0.0,0.0,0.0,0.0,0.0,0.0,0.0,0.0,0.0,0.0,0.0,0.0,0.0,0.0,0.0,1.4015,1.3438,1.3741,1.374,1.3472,0.0,0.0,0.0,0.0,0.0,0.0,0.0,0.0,0.0,0.0,0.0,0.0,0.0,0.0,0.0,0.0,0.0,0.0,0.0,0.0,0.0,0.0,0.0,0.0,0.0,0.0,0.0,0.0,0.0,0.0,0.0,0.0,0.0,0.0,0.0,0.0,0.0,0.0,0.0,0.0,0.0,0.0,0.0,0.0,0.0,0.0,0.0,0.0,0.0,0.0,0.0,0.0,0.0,0.0,0.0,0.0,0.0,0.0,0.0,0.0,0.0,0.0,0.0,0.0,0.0,0.0,0.0,0.0,0.0,0.0,0.0,0.0,0.0,0.0,0.0,0.0,0.0,0.0,0.0,0.0,0.0,0.0,0.0,0.0,0.0,0.0,0.0,0.0,0.0,0.0,0.0,0.0,0.0,0.0,0.0,0.0,0.0,0.0,0.0,0.0,0.0,0.0,0.0,0.0,0.0,0.0,0.0,0.0,0.0,0.0,0.0,0.0,0.0,0.0,1.1917,0.0,0.0,0.0,0.0,0.0,0.0,0.0,0.0,0.0,0.0,0.0,0.0,0.0,0.0,0.0,0.0,0.0,0.0,0.0,0.0,0.0,0.0,0.0,0.0,0.0,0.0,0.0,0.0,0.0,0.0,0.0,0.0,0.0,0.0,0.0,0.0,0.0,0.0,0.0,0.0,0.0,0.0,0.0,0.0,0.0,0.0,0.0,0.0,0.0,0.0,0.0,0.0,0.0,0.0,0.0,0.0,0.0,0.0,0.0,0.0,0.0,0.0,0.0,0.0,0.0,0.0,0.0,0.0,0.0,0.0,0.0,0.0,0.0,0.0,0.0,0.0,0.0,0.0,0.0,0.0,0.0,0.0,0.0,0.0,0.0,0.0,0.0,0.0,0.0,0.0,0.0,0.0,0.0,0.0,0.0,0.0,0.0,0.0,0.0,0.0,0.0,0.0,0.0,0.0,0.0,0.0,0.0,0.0,0.0,0.0,0.0,0.0,0.0,0.0,0.0,0.0,0.0,0.0,0.0,0.0,0.0,0.0,0.0,0.0,0.0,0.0,0.0,0.0,0.0,0.0,0.0,0.0,0.0,0.0,0.0,0.0,0.0,0.0,0.0,0.0,0.0,0.0,0.0,0.0,0.0,0.0,0.0,0.0,0.0,0.0,0.0,0.0,0.0,0.0,0.0,0.0,0.0,0.0,0.0,0.0,0.0,0.0,0.0,0.0,0.0,0.0,0.0,0.0,0.0,0.0,0.0,0.0,0.0,0.0,0.0,0.0,0.0,0.0,0.0,0.0,0.0,0.0,0.0,0.0,0.0,0.0,0.0,0.0,0.0,0.0,0.0,0.0,0.0,0.0,0.0,0.0,0.0,0.0,0.0,0.0,0.0,0.0,0.0,0.0,0.0,0.0,0.0,0.0,0.0,0.0,0.0,0.0,0.0,0.0,0.0,0.0,0.0,0.0,0.0,0.0,0.0,0.0,0.0,0.0,0.0,0.0,0.0,0.0,0.0,0.0,0.0,0.0,0.0,0.0,0.0,0.0,0.0,0.0,0.0,0.0,0.0,0.0,0.0,0.0,0.0,0.0,0.0,0.0,0.0,0.0,0.0,0.0,0.0,0.0,0.0,0.0,0.0,0.0,0.0,0.0,0.0,0.0,0.0,0.0,0.0,0.0,0.0,0.0,0.0,0.0,0.0,0.0,0.0,0.0,0.0,0.0,0.0,0.0,0.0,0.0,0.0,0.0,0.0,0.0,0.0,0.0,0.0,0.0,0.0,0.0,0.0,0.0,0.0,0.0,0.0,0.0,0.0,0.0,0.0,0.0,0.0,0.0,0.0,0.0,0.0,0.0,0.0,0.0,0.0,0.0,0.0,0.0,0.0,0.0,0.0,0.0,0.0,0.0,0.0,0.0,0.0,0.0,0.0,0.0,0.0,0.0,0.0,0.0,0.0,0.0,0.0,0.0,0.0,0.0,0.0,0.0,0.0,0.0,0.0,0.0,0.0,0.0,0.0,0.0,0.0,0.0,0.0,0.0,0.0,0.0,0.0,0.0,0.0,0.0,0.0,0.0,0.0,0.0,0.0,0.0,0.0,0.0,0.0,0.0,0.0,0.0,0.0,0.0,0.0,0.0,0.0,0.0,0.0,0.0,0.0,0.0,0.0,0.0,0.0,0.0,0.0,0.0,0.0,0.0,0.0,0.0,0.0,0.0,0.0,0.0,0.0,0.0,0.0,0.0,0.0,0.0,0.0,0.0,0.0,0.0,0.0,0.0,0.0,0.0,0.0,0.0,0.0,0.0,0.0,0.0,0.0,0.0,0.0,0.0,0.0,0.0,0.0,0.0,0.0,0.0,0.0,0.0,0.0,0.0,0.0,0.0,0.0,0.0,0.0,0.0,0.0,0.0,0.0,0.0,0.0,0.0,0.0,0.0,0.0,0.0,0.0,0.0,0.0,0.0,0.0,0.0,0.0,0.0,0.0,0.0,0.0,0.0,0.0,0.0,0.0,0.0,0.0,0.0,0.0,0.0,0.0,0.0,0.0,0.0,0.0,0.0,0.0,0.0,0.0,0.0,0.0,0.0,0.0,0.0,0.0,0.0,0.0,0.0,0.0,0.0,0.0,0.0,0.0,0.0,0.0,0.0,0.0,0.0,0.0,0.0,0.0,0.0,0.0,0.0,0.0,0.0,0.0,0.0,0.0,0.0,0.0,0.0,0.0,0.0,0.0,0.0,0.0,0.0,0.0,0.0,0.0,0.0,0.0,0.0,0.0,0.0,0.0,0.0,0.0,0.0,0.0,0.0,0.0,0.0,0.0,0.0,0.0,0.0,0.0,0.0,0.0,0.0,0.0,0.0,0.0,0.0,0.0,0.0,0.0,0.0,0.0,0.0,0.0,0.0,0.0,0.0,0.0,0.0,0.0,0.0,0.0,0.0,0.0,0.0,0.0,0.0,0.0,0.0,0.0,0.0,0.0,0.0,0.0,0.0,0.0,0.0,0.0,0.0,0.0,0.0,0.0,0.0,0.0,0.0,0.0,0.0,0.0,0.0,0.0,0.0,0.0,0.0,0.0,0.0,0.0,0.0,0.0,0.0,0.0,0.0,0.0,0.0,0.0,0.0,0.0,0.0,0.0,0.0,0.0,0.0,0.0,0.0,0.0,0.0,0.0,0.0,0.0,0.0,0.0,0.0,0.0,0.0,0.0,0.0,0.0,0.0,0.0,0.0,0.0,0.0,0.0,0.0,0.0,0.0,0.0,0.0,0.0,0.0,0.0,0.0,0.0,0.0,0.0,0.0,0.0,0.0,0.0,0.0,0.0,0.0,0.0,0.0,0.0,0.0,0.0,0.0,0.0,0.0,0.0,0.0,0.0,0.0,0.0,0.0,0.0,0.0,0.0,0.0,0.0,0.0,0.0,0.0,0.0,0.0,0.0,0.0,0.0,0.0,0.0,0.0,0.0,0.0,0.0,0.0,0.0,0.0,0.0,0.0,0.0,0.0,0.0,0.0,0.0,0.0,0.0,0.0,0.0,0.0,0.0,0.0,0.0,0.0,0.0,0.0,0.0,0.0,0.0,0.0,0.0,0.0,0.0,0.0,0.0,0.0,0.0,0.0,0.0,0.0,0.0,0.0,0.0,0.0,0.0,0.0,0.0,0.0,0.0,0.0,0.0,0.0,0.0,0.0,0.0,0.0,0.0,0.0,0.0,0.0,0.0,0.0,0.0,0.0,0.0,0.0,0.0,0.0,0.0,0.0,0.0,0.0,0.0,0.0,0.0,0.0,0.0,0.0,0.0,0.0,0.0,0.0,0.0,0.0,0.0,0.0,0.0,0.0,0.0,0.0,0.0,0.0,0.0,0.0,0.0,0.0,0.0,0.0,0.0,0.0,0.0,0.0,0.0,0.0,0.0,0.0,0.0,0.0,0.0,0.0,0.0,0.0,0.0,0.0,0.0,0.0,0.0,0.0,0.0,0.0,0.0,0.0,0.0,0.0,0.0,0.0,0.0,0.0,0.0,0.0,0.0,0.0,0.0,0.0,0.0,0.0,0.0,0.0,0.0,0.0,0.0,0.0,0.0,0.0,0.0,0.0,0.0,0.0,0.0,0.0,0.0,0.0,0.0,0.0,0.0,0.0,0.0,0.0,0.0,0.0,0.0,0.0,0.0,0.0,0.0,0.0,0.0,0.0,0.0,0.0,0.0,0.0,0.0,0.0,0.0,0.0,0.0,0.0,0.0,0.0,0.0,0.0,0.0,0.0,0.0,0.0,0.0,0.0,0.0,0.0,0.0,0.0,0.0,0.0,0.0,0.0,0.0,0.0,0.0,0.0,0.0,0.0,0.0,0.0,0.0,0.0,0.0,0.0,0.0,0.0,0.0,0.0,0.0,0.0,0.0,0.0,0.0,0.0,0.0,0.0,0.0,0.0,0.0,0.0,0.0,0.0,0.0,0.0,0.0,0.0,0.0,0.0,0.0,0.0,0.0,0.0,0.0,0.0,0.0,0.0,0.0,0.0,0.0,0.0,0.0,0.0,0.0,0.0,0.0,0.0,0.0,0.0,0.0,0.0,0.0,0.0,0.0,0.0,0.0,0.0,0.0,0.0,0.0,0.0,0.0,0.0,0.0,0.0,0.0,0.0,0.0,0.0,0.0,0.0,0.0,0.0,0.0,0.0,0.0,0.0,0.0,0.0,0.0,0.0,0.0,0.0,0.0,0.0,0.0,0.0,0.0,0.0,0.0,0.0,0.0,0.0,0.0,0.0,0.0,0.0,0.0,0.0,0.0,0.0,0.0,0.0,0.0,0.0,0.0,0.0,0.0,0.0,0.0,0.0,0.0,0.0,0.0,0.0,0.0,0.0]}]]]